[[{"header":{"parameterUnit":"m.s-1","parameterCategory":1,"la1":30.6,"la2":28.766,"lo1":-90.7593,"lo2":-88.6598,"dy":0.0162,"dx":0.0183,"nx":116,"ny":114,"refTime":"2023-08-25T12:00:00:Z","depth":0,"parameterNumber":2,"parameterNumberName":"U-component_of_WINDS"},"data":[0.0,0.0,0.0,0.0,0.0,0.0,0.0,0.0,0.0,0.0,0.0,0.0,0.0,0.0,0.0,0.0,0.0,0.0,0.0,0.0,0.0,0.0,0.0,0.0,0.0,0.0,0.0,0.0,0.0,0.0,0.0,0.0,0.0,0.0,0.0,0.0,0.0,0.0,0.0,0.0,0.0,0.0,0.0,0.0,0.0,0.0,0.0,0.0,0.0,0.0,0.0,0.0,0.0,0.0,0.0,0.0,0.0,0.0,0.0,0.0,0.0,0.0,0.0,0.0,0.0,0.0,0.0,0.0,0.0,0.0,0.0,0.0,0.0,0.0,0.0,0.0,0.0,0.0,0.0,0.0,0.0,0.0,0.0,0.0,0.0,0.0,0.0,0.0,0.0,0.0,0.0,0.0,0.0,0.0,0.0,0.0,0.0,0.0,0.0,0.0,0.0,0.0,0.0,0.0,0.0,0.0,0.0,0.0,0.0,0.0,0.0,0.0,0.0,0.0,0.0,0.0,0.0,0.0,0.0,0.0,0.0,0.0,0.0,0.0,0.0,0.0,0.0,0.0,0.0,0.0,0.0,0.0,0.0,0.0,0.0,0.0,0.0,0.0,0.0,0.0,0.0,0.0,0.0,0.0,0.0,0.0,0.0,0.0,0.0,0.0,0.0,0.0,0.0,0.0,0.0,0.0,0.0,0.0,0.0,0.0,0.0,0.0,0.0,0.0,0.0,0.0,0.0,0.0,0.0,0.0,0.0,0.0,0.0,0.0,0.0,0.0,0.0,0.0,0.0,0.0,0.0,0.0,0.0,0.0,0.0,0.0,0.0,0.0,0.0,0.0,0.0,0.0,0.0,0.0,0.0,0.0,0.0,0.0,0.0,0.0,0.0,0.0,0.0,0.0,0.0,0.0,0.0,0.0,0.0,0.0,0.0,0.0,0.0,0.0,0.0,0.0,0.0,0.0,0.0,0.0,0.0,0.0,0.0,0.0,0.0,0.0,0.0,0.0,0.0,0.0,0.0,0.0,0.0,0.0,0.0,0.0,0.0,0.0,0.0,0.0,0.0,0.0,0.0,0.0,0.0,0.0,0.0,0.0,0.0,0.0,0.0,0.0,0.0,0.0,0.0,0.0,0.0,0.0,0.0,0.0,0.0,0.0,0.0,0.0,0.0,0.0,0.0,0.0,0.0,0.0,0.0,0.0,0.0,0.0,0.0,0.0,0.0,0.0,0.0,0.0,0.0,0.0,0.0,0.0,0.0,0.0,0.0,0.0,0.0,0.0,0.0,0.0,0.0,0.0,0.0,0.0,0.0,0.0,0.0,0.0,0.0,0.0,0.0,0.0,0.0,0.0,0.0,0.0,0.0,0.0,0.0,0.0,0.0,0.0,0.0,0.0,0.0,0.0,0.0,0.0,0.0,0.0,0.0,0.0,0.0,0.0,0.0,0.0,0.0,0.0,0.0,0.0,0.0,0.0,0.0,0.0,0.0,0.0,0.0,0.0,0.0,0.0,0.0,0.0,0.0,0.0,0.0,0.0,0.0,0.0,0.0,0.0,0.0,0.0,0.0,0.0,0.0,0.0,0.0,0.0,0.0,0.0,0.0,0.0,0.0,0.0,0.0,0.0,0.0,0.0,0.0,0.0,0.0,0.0,0.0,0.0,0.0,0.0,0.0,0.0,0.0,0.0,0.0,0.0,0.0,0.0,0.0,0.0,0.0,0.0,0.0,0.0,0.0,0.0,0.0,0.0,0.0,0.0,0.0,0.0,0.0,0.0,0.0,0.0,0.0,0.0,0.0,0.0,0.0,0.0,0.0,0.0,0.0,0.0,0.0,0.0,0.0,0.0,0.0,0.0,0.0,0.0,0.0,0.0,0.0,0.0,0.0,0.0,0.0,0.0,0.0,0.0,0.0,0.0,0.0,0.0,0.0,0.0,0.0,0.0,0.0,0.0,0.0,0.0,0.0,0.0,0.0,0.0,0.0,0.0,0.0,0.0,0.0,0.0,0.0,0.0,0.0,0.0,0.0,0.0,0.0,0.0,0.0,0.0,0.0,0.0,0.0,0.0,0.0,0.0,0.0,0.0,0.0,0.0,0.0,0.0,0.0,0.0,0.0,0.0,0.0,0.0,0.0,0.0,0.0,0.0,0.0,0.0,0.0,0.0,0.0,0.0,0.0,0.0,0.0,0.0,0.0,0.0,0.0,0.0,0.0,0.0,0.0,0.0,0.0,0.0,0.0,0.0,0.0,0.0,0.0,0.0,0.0,0.0,0.0,0.0,0.0,0.0,0.0,0.0,0.0,0.0,0.0,0.0,0.0,0.0,0.0,0.0,0.0,0.0,0.0,0.0,0.0,0.0,0.0,0.0,0.0,0.0,0.0,0.0,0.0,0.0,0.0,0.0,0.0,0.0,0.0,0.0,0.0,0.0,0.0,0.0,0.0,0.0,0.0,0.0,0.0,0.0,0.0,0.0,0.0,0.0,0.0,0.0,0.0,0.0,0.0,0.0,0.0,0.0,0.0,0.0,0.0,0.0,0.0,0.0,0.0,0.0,0.0,0.0,0.0,0.0,0.0,0.0,0.0,0.0,0.0,0.0,0.0,0.0,0.0,0.0,0.0,0.0,0.0,0.0,0.0,0.0,0.0,0.0,0.0,0.0,0.0,0.0,0.0,0.0,0.0,0.0,0.0,0.0,0.0,0.0,0.0,0.0,0.0,0.0,0.0,0.0,0.0,0.0,0.0,0.0,0.0,0.0,0.0,0.0,0.0,0.0,0.0,0.0,0.0,0.0,0.0,0.0,0.0,0.0,0.0,0.0,0.0,0.0,0.0,0.0,0.0,0.0,0.0,0.0,0.0,0.0,0.0,0.0,0.0,0.0,0.0,0.0,0.0,0.0,0.0,0.0,0.0,0.0,0.0,0.0,0.0,0.0,0.0,0.0,0.0,0.0,0.0,0.0,0.0,0.0,0.0,0.0,0.0,0.0,0.0,0.0,0.0,0.0,0.0,0.0,0.0,0.0,0.0,0.0,0.0,0.0,0.0,0.0,0.0,0.0,0.0,0.0,0.0,0.0,0.0,0.0,0.0,0.0,0.0,0.0,0.0,0.0,0.0,0.0,0.0,0.0,0.0,0.0,0.0,0.0,0.0,0.0,0.0,0.0,0.0,0.0,0.0,0.0,0.0,0.0,0.0,0.0,0.0,0.0,0.0,0.0,0.0,0.0,0.0,0.0,0.0,0.0,0.0,0.0,0.0,0.0,0.0,0.0,0.0,0.0,0.0,0.0,0.0,0.0,0.0,0.0,0.0,0.0,0.0,0.0,0.0,0.0,0.0,0.0,0.0,0.0,0.0,0.0,0.0,0.0,0.0,0.0,0.0,0.0,0.0,0.0,0.0,0.0,0.0,0.0,0.0,0.0,0.0,0.0,0.0,0.0,0.0,0.0,0.0,0.0,0.0,0.0,0.0,0.0,0.0,0.0,0.0,0.0,0.0,0.0,0.0,0.0,0.0,0.0,0.0,0.0,0.0,0.0,0.0,0.0,0.0,0.0,0.0,0.0,0.0,0.0,0.0,0.0,0.0,0.0,0.0,0.0,0.0,0.0,0.0,0.0,0.0,0.0,0.0,0.0,0.0,0.0,0.0,0.0,0.0,0.0,0.0,0.0,0.0,0.0,0.0,0.0,0.0,0.0,0.0,0.0,0.0,0.0,0.0,0.0,0.0,0.0,0.0,0.0,0.0,0.0,0.0,0.0,0.0,0.0,0.0,0.0,0.0,0.0,0.0,0.0,0.0,0.0,0.0,0.0,0.0,0.0,0.0,0.0,0.0,0.0,0.0,0.0,0.0,0.0,0.0,0.0,0.0,0.0,0.0,0.0,0.0,0.0,0.0,0.0,0.0,0.0,0.0,0.0,0.0,0.0,0.0,0.0,0.0,0.0,0.0,0.0,0.0,0.0,0.0,0.0,0.0,0.0,0.0,0.0,0.0,0.0,0.0,0.0,0.0,0.0,0.0,0.0,0.0,0.0,0.0,0.0,0.0,0.0,0.0,0.0,0.0,0.0,0.0,0.0,0.0,0.0,0.0,0.0,0.0,0.0,0.0,0.0,0.0,0.0,0.0,0.0,0.0,0.0,0.0,0.0,0.0,0.0,0.0,0.0,0.0,0.0,0.0,0.0,0.0,0.0,0.0,0.0,0.0,0.0,0.0,0.0,0.0,0.0,0.0,0.0,0.0,0.0,0.0,0.0,0.0,0.0,0.0,0.0,0.0,0.0,0.0,0.0,0.0,0.0,0.0,0.0,0.0,0.0,0.0,0.0,0.0,0.0,0.0,0.0,0.0,0.0,0.0,0.0,0.0,0.0,0.0,0.0,0.0,0.0,0.0,0.0,0.0,0.0,0.0,0.0,0.0,0.0,0.0,0.0,0.0,0.0,0.0,0.0,0.0,0.0,0.0,0.0,0.0,0.0,0.0,0.0,0.0,0.0,0.0,0.0,0.0,0.0,0.0,0.0,0.0,0.0,0.0,0.0,0.0,0.0,0.0,0.0,0.0,0.0,0.0,0.0,0.0,0.0,0.0,0.0,0.0,0.0,0.0,0.0,0.0,0.0,0.0,0.0,0.0,0.0,0.0,0.0,0.0,0.0,0.0,0.0,0.0,0.0,0.0,0.0,0.0,0.0,0.0,0.0,0.0,0.0,0.0,0.0,0.0,0.0,0.0,0.0,0.0,0.0,0.0,0.0,0.0,0.0,0.0,0.0,0.0,0.0,0.0,0.0,0.0,0.0,0.0,0.0,0.0,0.0,0.0,0.0,0.0,0.0,0.0,0.0,0.0,0.0,0.0,0.0,0.0,0.0,0.0,0.0,0.0,0.0,0.0,0.0,0.0,0.0,0.0,0.0,0.0,0.0,0.0,0.0,0.0,0.0,0.0,0.0,0.0,0.0,0.0,0.0,0.0,0.0,0.0,0.0,0.0,0.0,0.0,0.0,0.0,0.0,0.0,0.0,0.0,0.0,0.0,0.0,0.0,0.0,0.0,0.0,0.0,0.0,0.0,0.0,0.0,0.0,0.0,0.0,0.0,0.0,0.0,0.0,0.0,0.0,0.0,0.0,0.0,0.0,0.0,0.0,0.0,0.0,0.0,0.0,0.0,0.0,0.0,0.0,0.0,0.0,0.0,0.0,0.0,0.0,0.0,0.0,0.0,0.0,0.0,0.0,0.0,0.0,0.0,0.0,0.0,0.0,0.0,0.0,0.0,0.0,0.0,0.0,0.0,0.0,0.0,0.0,0.0,0.0,0.0,0.0,0.0,0.0,0.0,0.0,0.0,0.0,0.0,0.0,0.0,0.0,0.0,0.0,0.0,0.0,0.0,0.0,0.0,0.0,0.0,0.0,0.0,0.0,0.0,0.0,0.0,0.0,0.0,0.0,0.0,0.0,0.0,0.0,0.0,0.0,0.0,0.0,0.0,0.0,0.0,0.0,0.0,0.0,0.0,0.0,0.0,0.0,0.0,0.0,0.0,0.0,0.0,0.0,0.0,0.0,0.0,0.0,0.0,0.0,0.0,0.0,0.0,0.0,0.0,0.0,0.0,0.0,0.0,0.0,0.0,0.0,0.0,0.0,0.0,0.0,0.0,0.0,0.0,0.0,0.0,0.0,0.0,0.0,0.0,0.0,0.0,0.0,0.0,0.0,0.0,0.0,0.0,0.0,0.0,0.0,0.0,0.0,0.0,0.0,0.0,0.0,0.0,0.0,0.0,0.0,0.0,0.0,0.0,0.0,0.0,0.0,0.0,0.0,0.0,0.0,0.0,0.0,0.0,0.0,0.0,0.0,0.0,0.0,0.0,0.0,0.0,0.0,0.0,0.0,0.0,0.0,0.0,0.0,0.0,0.0,0.0,0.0,0.0,0.0,0.0,0.0,0.0,0.0,0.0,0.0,0.0,0.0,0.0,0.0,0.0,0.0,0.0,0.0,0.0,0.0,0.0,0.0,0.0,0.0,0.0,0.0,0.0,0.0,0.0,0.0,0.0,0.0,0.0,0.0,0.0,0.0,0.0,0.0,0.0,0.0,0.0,0.0,0.0,0.0,-1.8086,0.0,0.0,0.0,0.0,0.0,0.0,0.0,0.0,0.0,0.0,0.0,0.0,0.0,0.0,0.0,0.0,0.0,0.0,0.0,0.0,0.0,0.0,0.0,0.0,0.0,0.0,0.0,0.0,0.0,0.0,0.0,0.0,0.0,0.0,0.0,0.0,0.0,0.0,0.0,-1.4034,-1.3608,-1.3317,-1.2714,-1.1911,-1.0924,0.0,0.0,0.0,0.0,0.0,0.0,0.0,0.0,0.0,0.0,0.0,0.0,0.0,0.0,0.0,0.0,0.0,0.0,0.0,0.0,0.0,0.0,0.0,0.0,0.0,0.0,0.0,0.0,0.0,0.0,0.0,0.0,0.0,0.0,0.0,0.0,0.0,0.0,0.0,0.0,0.0,0.0,0.0,0.0,0.0,0.0,0.0,0.0,0.0,0.0,0.0,0.0,0.0,0.0,0.0,0.0,0.0,0.0,0.0,0.0,0.0,0.0,0.0,0.0,0.0,0.0,0.0,0.0,0.0,0.0,0.0,-2.0147,0.0,0.0,0.0,0.0,0.0,0.0,0.0,0.0,0.0,0.0,0.0,0.0,0.0,0.0,0.0,0.0,0.0,0.0,0.0,0.0,0.0,0.0,0.0,0.0,-1.4805,-1.5635,-1.6009,-1.6346,0.0,0.0,0.0,0.0,0.0,0.0,0.0,-1.5834,-1.557,-1.5171,-1.4537,-1.3977,-1.3492,-1.3492,-1.2984,-1.2152,-1.1767,0.0,0.0,0.0,0.0,0.0,0.0,0.0,0.0,0.0,0.0,0.0,0.0,0.0,0.0,0.0,0.0,0.0,0.0,0.0,0.0,0.0,0.0,0.0,0.0,0.0,0.0,0.0,0.0,0.0,0.0,0.0,0.0,0.0,0.0,0.0,0.0,0.0,0.0,0.0,0.0,0.0,0.0,0.0,0.0,0.0,0.0,0.0,0.0,0.0,0.0,0.0,0.0,0.0,0.0,0.0,0.0,0.0,0.0,0.0,0.0,0.0,0.0,0.0,-1.8599,-1.9783,-2.0619,-2.1946,-2.3151,-2.4236,-2.3872,-2.3489,-2.3237,0.0,0.0,0.0,0.0,0.0,0.0,0.0,0.0,0.0,0.0,0.0,0.0,0.0,0.0,0.0,0.0,0.0,0.0,0.0,0.0,0.0,0.0,-1.5738,-1.6024,-1.6971,-1.6746,-1.6859,0.0,0.0,0.0,0.0,0.0,0.0,-1.8075,-1.7619,-1.7423,-1.7579,-1.5877,-1.4537,-1.3492,-1.3346,-1.3251,-1.3281,-1.3237,-1.2926,-1.2396,0.0,0.0,0.0,0.0,0.0,0.0,0.0,0.0,0.0,0.0,0.0,0.0,0.0,0.0,0.0,0.0,0.0,0.0,0.0,0.0,0.0,0.0,0.0,0.0,0.0,0.0,0.0,0.0,0.0,0.0,0.0,0.0,0.0,0.0,0.0,0.0,0.0,0.0,0.0,0.0,0.0,-0.7271,-0.7785,0.0,0.0,0.0,0.0,0.0,0.0,0.0,0.0,0.0,0.0,0.0,0.0,0.0,-1.5634,-1.6805,-1.7893,-1.8754,-1.9437,-2.1222,-2.2513,-2.3315,-2.4832,-2.5891,-2.6535,-2.7075,0.0,-2.4127,-2.4443,0.0,0.0,0.0,0.0,0.0,0.0,0.0,0.0,0.0,0.0,0.0,0.0,0.0,0.0,0.0,0.0,0.0,0.0,0.0,0.0,0.0,-1.6952,-1.6915,-1.7311,-1.7725,-1.8134,-1.8415,-1.9126,0.0,0.0,0.0,-1.9441,-1.8509,-1.8287,-1.7609,-1.6394,-1.5613,-1.484,-1.4137,-1.4065,-1.4065,-1.4137,-1.4137,-1.3477,-1.2445,-1.2091,0.0,0.0,0.0,0.0,0.0,0.0,0.0,0.0,0.0,0.0,0.0,0.0,0.0,0.0,0.0,0.0,0.0,0.0,0.0,0.0,0.0,0.0,0.0,0.0,0.0,0.0,0.0,0.0,0.0,0.0,0.0,0.0,0.0,0.0,0.0,0.0,0.0,0.0,0.0,-0.6648,-0.797,-0.8036,-0.7368,-0.6806,0.0,0.0,0.0,0.0,0.0,0.0,0.0,0.0,0.0,-1.5957,-1.7455,-1.8706,-1.95,-2.0584,-2.153,-2.2504,-2.3527,-2.4827,-2.6191,-2.6748,-2.7326,-2.7839,-2.7956,-2.7527,-2.6781,-2.6825,-2.7118,-2.7547,0.0,0.0,0.0,0.0,-3.0577,-3.1281,0.0,0.0,0.0,0.0,0.0,0.0,0.0,0.0,0.0,0.0,0.0,0.0,-1.8343,-1.8076,-1.79,-1.8018,-1.8848,-1.9315,-1.9265,-2.0125,0.0,-2.0151,-2.0582,-2.0291,-1.9034,-1.889,-1.7736,-1.563,-1.5762,-1.5621,-1.5196,-1.5054,-1.4982,-1.4982,-1.4776,-1.3912,-1.2666,-1.2439,-1.2077,-1.1781,0.0,0.0,0.0,0.0,0.0,0.0,0.0,0.0,0.0,0.0,0.0,0.0,0.0,0.0,0.0,0.0,0.0,0.0,0.0,0.0,0.0,0.0,0.0,0.0,0.0,0.0,0.0,0.0,0.0,0.0,0.0,0.0,0.0,0.0,0.0,0.0,0.0,-0.831,-0.9312,-0.8811,-0.8765,-0.8771,0.0,0.0,0.0,0.0,0.0,0.0,-1.4011,-1.53,-1.6954,-1.8948,-2.038,-2.1349,-2.19,-2.2673,-2.3659,-2.4843,-2.5255,-2.6352,-2.802,-2.7966,-2.8243,-2.8696,-2.8536,-2.8693,-2.9093,-2.8716,-2.8822,-2.9212,-2.9724,-3.0493,-3.1411,-3.1531,-3.1915,-3.2364,0.0,0.0,0.0,0.0,0.0,0.0,0.0,0.0,0.0,0.0,0.0,-1.9053,-1.9053,-1.9077,-1.9275,-1.9711,-1.98,-1.9972,-2.0279,-2.0944,-2.0955,-2.0151,-2.1094,-2.1273,-2.0506,-1.9857,-1.8664,-1.683,-1.7295,-1.7285,-1.6793,-1.6376,-1.6088,-1.5869,-1.5204,-1.4425,-1.376,-1.3912,-1.3178,-1.2003,-1.2378,0.0,0.0,0.0,0.0,0.0,0.0,0.0,0.0,0.0,0.0,0.0,0.0,0.0,0.0,0.0,0.0,0.0,0.0,0.0,0.0,0.0,0.0,0.0,0.0,0.0,0.0,0.0,0.0,0.0,0.0,0.0,0.0,0.0,0.0,0.0,0.0,0.0,0.0,-1.1613,-1.1864,0.0,0.0,0.0,0.0,-1.438,-1.4645,-1.5391,-1.6813,-1.8909,-2.0276,-2.0728,-2.2483,-2.3503,-2.3784,-2.4036,-2.4672,-2.5832,-2.5949,-2.6722,-2.8091,-2.8498,-2.8791,-2.9079,-2.9465,-2.9894,-3.0209,-2.8946,-2.9119,-3.0203,-3.0111,-3.0717,-3.1579,-3.1529,-3.2107,-3.2817,0.0,0.0,0.0,0.0,0.0,0.0,0.0,0.0,-1.923,-1.9353,-1.9502,-1.9598,-1.9552,-1.9407,-1.9419,-1.9585,-1.9998,-2.0242,-2.0237,-2.1135,-2.1514,-2.106,-2.1753,-2.1504,-2.0178,-1.9117,-1.8375,-1.7723,-1.8209,-1.8199,-1.7705,-1.7831,-1.7759,-1.7415,-1.6776,-1.6334,-1.5922,-1.4064,-1.3025,-1.2526,-1.1916,-1.1842,0.0,0.0,0.0,0.0,0.0,0.0,0.0,0.0,0.0,0.0,0.0,0.0,0.0,0.0,0.0,0.0,0.0,0.0,0.0,0.0,0.0,0.0,0.0,0.0,0.0,0.0,0.0,0.0,0.0,0.0,0.0,0.0,0.0,0.0,0.0,0.0,0.0,-1.3279,-1.3906,0.0,-1.4857,-1.4441,-1.4855,-1.6338,-1.745,-1.846,-1.9283,-2.0321,-2.1271,-2.2253,-2.2966,-2.3519,-2.3666,-2.3897,-2.4802,-2.6364,-2.6489,-2.751,-2.9209,-2.9274,-2.9462,-2.9773,-3.0222,-3.0399,-3.0414,-3.0429,-3.0833,-3.1401,-3.1422,-3.2001,-3.2827,-3.2816,-3.3314,-3.4006,0.0,0.0,0.0,0.0,0.0,0.0,0.0,0.0,-1.9617,-2.0037,-2.0169,-2.0189,-2.0205,-2.0098,-2.0039,-2.0039,-2.0508,-2.0752,-2.0495,-2.1577,-2.2013,-2.1514,-2.1855,-2.1453,-2.0239,-1.9424,-1.9017,-1.8956,-1.9374,-1.9446,-1.9156,-1.9291,-1.9219,-1.8864,-1.8064,-1.7552,-1.7292,-1.5075,-1.3859,-1.3351,-1.2729,-1.2525,-1.2601,0.0,0.0,0.0,0.0,0.0,0.0,0.0,0.0,0.0,0.0,0.0,0.0,0.0,0.0,0.0,0.0,0.0,0.0,0.0,0.0,0.0,0.0,0.0,0.0,0.0,0.0,0.0,0.0,0.0,0.0,0.0,0.0,0.0,0.0,0.0,-1.5161,-1.4421,-1.5557,-1.6496,-1.6775,-1.6927,-1.7601,-1.8929,-1.9922,-2.0712,-2.1205,-2.159,-2.2155,-2.3001,-2.3224,-2.3446,-2.3824,-2.4105,-2.5134,-2.6786,-2.7098,-2.809,-2.9685,-2.9834,-3.0075,-3.0322,-3.1072,-3.1257,-3.115,-3.1885,-3.2428,-3.2734,-3.2424,-3.2713,-3.3325,-3.357,-3.4037,-3.4642,0.0,0.0,0.0,0.0,0.0,0.0,0.0,-1.8751,-1.9324,-2.0648,-2.0788,-2.0838,-2.0948,-2.1109,-2.1221,-2.1221,-2.1474,-2.1526,-2.1221,-2.2285,-2.2408,-2.1308,-2.1271,-2.1147,-2.0896,-2.0907,-2.0797,-2.0564,-2.0899,-2.103,-2.103,-2.0736,-2.0441,-2.0196,-1.9068,-1.8258,-1.7644,-1.7087,-1.5944,-1.4621,-1.4925,-1.4176,-1.2912,0.0,0.0,0.0,0.0,0.0,0.0,0.0,0.0,0.0,0.0,0.0,0.0,0.0,0.0,0.0,0.0,0.0,0.0,0.0,0.0,0.0,0.0,0.0,0.0,0.0,0.0,0.0,0.0,0.0,0.0,0.0,0.0,0.0,-1.3044,-1.5639,-1.7081,-1.5304,-1.6996,-1.8497,-1.8861,-1.8718,-1.9659,-2.2209,-2.2004,-2.2004,-2.2402,-2.2777,-2.3001,-2.3001,-2.3224,-2.3593,-2.42,-2.4743,-2.5697,-2.7162,-2.7736,-2.8468,-2.9415,-3.0205,-3.0568,-3.0644,-3.1986,-3.254,-3.256,-3.3173,-3.3778,-3.4196,-3.3019,-3.2734,-3.3099,-3.3798,-3.4296,-3.4792,0.0,0.0,0.0,0.0,0.0,0.0,0.0,-1.8836,-1.974,-2.0499,-2.0699,-2.0845,-2.0905,-2.1078,-2.1221,-2.1221,-2.1285,-2.1463,-2.1815,-2.2616,-2.2898,-2.2654,-2.1632,-2.1167,-2.1384,-2.0886,-2.0999,-2.1882,-2.1946,-2.202,-2.2009,-2.223,-2.2146,-2.1776,-2.0933,-2.0536,-2.0308,-1.9399,-1.831,-1.7067,-1.5318,-1.4624,-1.4388,0.0,0.0,0.0,0.0,0.0,0.0,0.0,0.0,0.0,0.0,0.0,0.0,0.0,0.0,0.0,0.0,0.0,0.0,0.0,0.0,0.0,0.0,0.0,0.0,0.0,0.0,0.0,0.0,0.0,0.0,0.0,0.0,-1.8416,-1.6699,-1.8375,-1.9788,-1.9916,-2.0463,-2.0943,-2.1333,-2.1106,-2.1166,-2.1939,-2.1873,-2.1949,-2.2402,-2.2252,-2.2402,-2.3001,-2.3075,-2.3224,-2.3519,-2.4371,-2.5346,-2.6402,-2.7458,-2.8403,-2.9226,-3.0144,-3.0568,-3.0732,-3.2538,-3.2971,-3.2608,-3.3751,-3.4264,-3.4286,-3.4199,-3.4554,-3.5145,-3.5625,-3.6136,-3.663,0.0,0.0,0.0,0.0,0.0,0.0,0.0,-1.8913,-1.9818,-2.054,-2.0707,-2.0836,-2.0996,-2.1094,-2.1221,-2.1221,-2.1588,-2.1877,-2.2237,-2.2825,-2.328,-2.3287,-2.2331,-2.1897,-2.2177,-2.1956,-2.2242,-2.315,-2.3276,-2.3276,-2.3001,-2.3298,-2.315,-2.2628,-2.2069,-2.1756,-2.1517,-2.0672,-1.9806,-1.8973,-1.7178,-1.6007,-1.5286,-1.4798,-1.4631,-1.4599,-1.4116,-1.3796,-1.3519,-1.3185,0.0,0.0,0.0,0.0,0.0,0.0,0.0,0.0,0.0,0.0,0.0,0.0,0.0,0.0,0.0,0.0,0.0,0.0,0.0,0.0,0.0,0.0,0.0,0.0,-1.9173,-2.0714,-2.0085,-2.0917,-2.1595,-2.1638,-2.1918,-2.2004,-2.2004,-2.2004,-2.209,-2.2025,-2.2203,-2.2394,-2.27,-2.2461,-2.2613,-2.3307,-2.3334,-2.3519,-2.3863,-2.4992,-2.5975,-2.6812,-2.7934,-2.8753,-2.9289,-3.0205,-3.0568,0.0,-3.2725,-3.3358,-3.304,-3.4418,-3.5103,0.0,0.0,0.0,0.0,0.0,-3.7239,-3.7926,0.0,0.0,0.0,0.0,0.0,0.0,0.0,-1.8927,-1.9618,-2.0603,-2.0642,-2.0722,-2.1094,-2.1094,-2.1158,-2.1221,-2.2063,-2.2567,-2.258,-2.3091,-2.3442,-2.3503,-2.3018,-2.2855,-2.3065,-2.3338,-2.379,-2.4261,-2.4515,-2.4432,-2.3959,-2.3897,-2.3593,-2.3075,-2.2628,-2.2241,-2.1918,-2.1298,-2.075,-2.0197,-1.9728,-1.818,-1.6102,-1.6022,-1.5755,-1.549,-1.549,-1.5078,-1.4658,-1.5575,0.0,0.0,0.0,0.0,0.0,0.0,0.0,0.0,0.0,0.0,0.0,0.0,0.0,0.0,0.0,0.0,0.0,0.0,0.0,0.0,0.0,0.0,0.0,0.0,-2.0997,-2.2239,-2.2872,-2.3045,-2.2746,-2.168,-2.208,-2.2252,-2.1741,-2.2153,-2.2498,-2.2486,-2.278,-2.2934,-2.3034,0.0,0.0,0.0,0.0,-2.4388,-2.4801,-2.6131,-2.7079,-2.7709,-2.8638,-2.9162,-2.9415,-3.0205,-3.0568,-3.0687,-3.2725,-3.3582,-3.37,-3.5068,-3.6054,-3.6584,-3.5561,-3.5634,-3.6391,-3.7192,-3.8033,-3.884,0.0,0.0,0.0,0.0,0.0,0.0,0.0,-1.8245,-1.9094,-1.9932,-2.0074,-2.0194,-2.0495,-2.056,-2.0816,-2.1526,-2.1939,-2.2604,-2.348,-2.3484,-2.349,-2.3468,-2.2838,-2.2818,-2.3486,-2.3254,-2.3621,-2.4576,-2.4348,-2.4348,-2.4504,-2.4093,-2.3824,-2.3666,-2.315,-2.2852,-2.2767,-2.2617,-2.1842,-2.0672,-2.0894,-2.0217,-1.9067,-1.8752,-1.8707,-1.8948,-1.8948,-1.8399,-1.7794,-1.8249,-1.6882,-1.5004,-1.5528,-1.4424,0.0,0.0,0.0,0.0,0.0,0.0,0.0,0.0,0.0,0.0,0.0,0.0,0.0,0.0,0.0,0.0,0.0,0.0,0.0,-2.0572,-2.1912,-2.304,-2.299,-2.334,-2.3362,-2.2735,-2.2777,-2.3004,-2.3231,-2.3033,-2.296,-2.3054,-2.2746,-2.2635,-2.2635,-2.3387,0.0,-2.4514,-2.5429,-2.5789,-2.5439,-2.6701,-2.7189,-2.6947,0.0,0.0,-2.9162,-3.0144,-3.0568,-3.0687,-3.2725,-3.3582,-3.3684,-3.5161,-3.6333,-3.7195,-3.743,-3.7973,-3.8689,-3.9058,-3.9501,-3.9929,0.0,0.0,0.0,0.0,0.0,0.0,0.0,-1.8375,-1.9123,-1.9704,-2.0129,-2.0417,-2.0425,-2.0392,-2.0756,-2.1558,-2.2457,-2.3306,-2.4166,-2.4025,-2.3898,-2.3824,-2.352,-2.3519,-2.3875,-2.407,-2.442,-2.5004,-2.5217,-2.5217,-2.5158,-2.4587,-2.4299,-2.4227,-2.3361,-2.315,-2.3446,-2.315,-2.2531,-2.1918,-2.1918,-2.168,-2.1298,-2.0041,-1.9816,-2.0051,-2.0051,-1.9816,-1.9474,-1.9269,-1.8406,-1.7301,-1.6894,-1.6009,-1.5094,0.0,0.0,0.0,0.0,0.0,0.0,0.0,0.0,0.0,0.0,0.0,0.0,0.0,0.0,-1.9279,0.0,0.0,-2.1405,-2.1968,-2.2885,-2.3525,-2.3711,-2.4238,-2.4282,-2.3427,-2.3591,-2.3765,-2.3759,-2.3534,-2.3313,-2.3244,-2.3452,-2.3648,-2.3669,-2.4668,-2.5385,-2.5588,-2.64,-2.6668,-2.6404,-2.7369,-2.7803,-2.752,-2.8579,-2.9099,-2.9162,-3.0144,-3.0568,-3.0687,-3.2431,-3.3339,-3.3735,-3.5476,-3.6643,-3.7342,-3.7911,-3.8535,-3.9137,-3.9595,-3.9859,-4.0062,0.0,0.0,0.0,0.0,0.0,0.0,0.0,-1.8365,-1.911,-1.9407,-2.0118,-2.0508,-2.0273,-2.0278,-2.0694,-2.1569,-2.2948,-2.3951,-2.4449,-2.4425,-2.4296,-2.4177,-2.42,-2.4273,-2.4345,-2.4897,-2.5241,-2.5382,-2.6037,-2.6107,-2.5453,-2.5087,-2.4779,-2.4564,-2.357,-2.3446,-2.3824,-2.3224,-2.2927,-2.2852,-2.2628,-2.2628,-2.2692,-2.1135,-2.0595,-2.074,-2.074,-2.0623,-2.043,-2.0129,-1.9709,-1.927,-1.847,-1.8175,-1.776,-1.6373,-1.6301,0.0,0.0,0.0,0.0,0.0,0.0,0.0,0.0,0.0,-1.824,-1.9742,-2.033,-2.0799,-2.1456,-2.1845,-2.2426,-2.3401,-2.3864,-2.4238,-2.4657,-2.5306,-2.5349,-2.4437,-2.467,-2.4746,-2.4266,-2.4266,-2.4138,-2.384,-2.4555,-2.5016,-2.4977,-2.5992,-2.6633,-2.6668,-2.7327,-2.7655,-2.7544,-2.8298,-2.8538,-2.8304,-2.8915,-2.9146,-2.9162,-3.0083,-3.0568,-3.0687,-3.2281,-3.3287,-3.3987,-3.5769,-3.6764,-3.723,-3.7791,-3.8314,-3.8855,-3.9505,-3.9797,-3.9903,0.0,0.0,0.0,0.0,0.0,0.0,0.0,0.0,-1.8114,-1.8808,-1.9253,-1.9522,-1.9691,-1.9958,-2.056,-2.1675,-2.279,-2.3586,-2.3964,-2.412,-2.4204,-2.4189,-2.42,-2.4345,-2.4718,-2.479,-2.5206,-2.5828,-2.591,-2.5676,-2.5087,-2.5382,-2.5004,-2.4192,-2.3948,-2.3824,-2.3824,-2.3224,-2.2777,-2.2478,-2.2777,-2.2777,-2.2478,-2.2617,-2.2692,-2.2692,-2.2692,-2.1732,-2.0707,-2.2093,-2.1261,-1.9792,-2.0938,-2.0797,-1.9763,-1.7716,-1.6851,-1.6203,-1.4362,-1.5056,-1.6102,-1.547,-1.6911,-1.8635,0.0,0.0,-2.0913,-2.2275,-2.2972,-2.3306,-2.3174,-2.3829,-2.4368,-2.4108,-2.4893,-2.5447,-2.5349,-2.6216,-2.6886,-2.6738,-2.6387,-2.6086,-2.5905,-2.5995,-2.6097,-2.6162,-2.5898,-2.5503,-2.521,-2.658,-2.7383,-2.7394,-2.8736,-2.9276,-2.8687,-2.9516,-2.9347,-2.8317,-2.9201,-2.9429,-2.9099,-2.996,-3.0447,-3.0687,-3.2671,-3.4003,-3.4911,-3.5722,-3.6333,-3.6825,-3.7433,-3.7928,-3.848,-3.9296,-3.9797,-4.012,0.0,0.0,0.0,0.0,0.0,0.0,0.0,0.0,0.0,-1.8046,-1.8844,-1.9286,-1.917,-2.0109,-2.1066,-2.1675,-2.2647,-2.3356,-2.3845,-2.3733,-2.3824,-2.4189,-2.42,-2.4273,-2.4429,-2.4646,-2.4933,-2.5277,-2.5477,-2.5382,-2.5158,-2.504,-2.4743,-2.4264,-2.3497,-2.3213,-2.3128,-2.2542,-2.2176,-2.2101,-2.2252,-2.2176,-2.2101,-2.2478,-2.2628,-2.2596,-2.2401,-2.1871,0.0,-2.147,-2.0941,-2.0262,-2.0984,-2.0236,-1.8923,-1.7818,-1.7226,-1.7067,-1.7557,-1.7458,0.0,0.0,-1.9238,-2.0337,-2.1159,-2.1707,-2.2497,-2.4191,-2.4777,-2.4846,-2.4614,-2.5081,-2.5462,0.0,-2.6039,-2.6601,-2.6802,-2.7522,-2.7901,-2.7573,-2.8035,-2.7909,-2.6818,-2.676,-2.6678,-2.6505,-2.6659,-2.6577,-2.6207,-2.7429,-2.8075,-2.8075,-2.8895,-2.9422,-2.944,-2.9851,-2.9816,-2.9321,-2.9605,-2.9676,-2.961,-3.0116,-3.0687,-3.1452,-3.261,-3.3649,-3.4609,-3.5283,-3.6002,-3.6746,-3.7323,-3.7808,-3.8296,-3.9171,-3.9683,-3.9963,0.0,0.0,0.0,0.0,0.0,0.0,0.0,0.0,0.0,0.0,-1.8432,-1.9124,-1.9205,-2.0288,-2.1156,-2.1581,-2.2412,-2.3081,-2.3423,-2.3254,-2.3312,-2.3666,-2.3897,-2.397,-2.397,-2.4418,-2.4718,-2.479,-2.5052,-2.5111,-2.4945,-2.4754,-2.4455,-2.3975,-2.3276,-2.283,-2.266,-2.209,-2.1807,-2.1807,-2.1807,-2.1807,-2.1807,-2.2101,-2.2103,-2.1934,-2.1839,-2.1637,-2.1385,-2.0698,-2.0386,-2.0282,-2.0632,-1.9856,-1.877,-1.8128,-1.7521,-1.7555,-1.9422,0.0,0.0,-2.0682,-2.1669,-2.2482,-2.2874,-2.3306,-2.3973,-2.5392,-2.583,-2.5911,-2.5977,-2.6236,-2.6523,-2.6883,-2.727,-2.7715,-2.8004,-2.8633,-2.8882,-2.8383,-2.9209,-2.9209,-2.781,-2.7637,-2.7487,-2.7103,-2.7418,-2.7429,-2.6974,-2.795,-2.851,-2.851,-2.8986,-2.9468,-2.9792,-3.0134,-3.0281,-3.0124,-3.0115,-3.0062,-2.9983,-3.0244,-3.0911,-3.1868,-3.2695,-3.3443,-3.4186,-3.5065,-3.5847,-3.6563,-3.7114,-3.7596,-3.8099,-3.8828,-3.9345,-3.9709,0.0,0.0,0.0,0.0,0.0,0.0,0.0,0.0,0.0,0.0,0.0,0.0,0.0,-2.0293,-2.0621,-2.1344,-2.219,-2.2608,-2.2332,-2.2666,-2.2739,-2.2456,-2.3001,-2.3298,-2.3298,-2.3897,-2.4418,-2.479,-2.479,-2.455,-2.3925,-2.4874,-2.4504,-2.3032,-2.3401,-2.3254,-2.266,-2.209,-2.1807,-2.1807,-2.1807,-2.1807,-2.1807,-2.1807,-2.1442,-2.105,-2.1565,-2.129,-2.0544,-2.0544,-2.0102,-1.9733,-2.0348,-2.0747,-2.0681,-1.9113,-1.7834,-1.7117,-1.8073,-1.9795,-2.1461,-2.192,-2.3829,-2.5426,-2.4871,-2.5205,-2.5615,-2.5704,-2.6106,-2.6665,-2.7257,-2.7434,-2.7626,-2.8243,-2.8585,-2.8779,-2.8791,-2.9378,-2.9792,-2.9714,-2.9792,-2.9624,0.0,-2.9052,-2.8895,-2.851,-2.8122,-2.7719,-2.7231,-2.803,-2.851,-2.851,-2.9312,-2.9792,-2.9792,-3.0596,-3.0686,-3.0137,-3.0891,-3.0829,-3.0034,-3.043,-3.0866,-3.1394,-3.2917,-3.3684,-3.3937,-3.5374,-3.5975,-3.6088,-3.6661,-3.723,-3.7771,-3.8176,-3.8752,-3.9408,0.0,0.0,0.0,0.0,0.0,0.0,0.0,0.0,0.0,0.0,0.0,0.0,0.0,0.0,0.0,0.0,-2.2039,-2.2105,-2.2223,-2.2243,-2.2263,-2.2364,-2.2604,-2.2927,-2.3298,-2.3519,-2.3897,-2.4418,-2.397,-2.3666,-2.3508,-2.3423,-2.2905,-2.2014,-2.2166,-2.1852,-2.1318,-2.1098,-2.1031,-2.1031,-2.1031,-2.1031,-2.1031,-2.1185,-2.113,-2.0999,0.0,-1.995,-1.9576,-2.0184,-1.9941,-1.9553,-2.0417,-2.0257,-1.9633,-1.8918,-1.8543,-1.8751,-2.0764,-2.1845,-2.2804,-2.4183,-2.5092,-2.5718,-2.5893,-2.5961,-2.6052,-2.6405,-2.6084,-2.5628,-2.5708,-2.6701,-2.7349,-2.7179,-2.8913,-3.0062,-2.9534,-2.9921,-3.0075,-2.9869,-2.9546,0.0,0.0,0.0,0.0,-2.8122,-2.7973,-2.7731,-2.7231,-2.78,-2.8122,-2.8122,-2.8907,-2.9378,-2.9378,-3.0216,-3.0657,-3.0686,-3.1307,-3.1392,-3.0908,-3.1123,-3.1602,-3.2297,-3.2851,-3.3547,-3.4415,-3.5128,-3.5722,-3.6208,-3.6678,-3.721,-3.7702,-3.8129,-3.864,-3.9165,0.0,0.0,0.0,0.0,0.0,0.0,0.0,0.0,0.0,0.0,0.0,0.0,0.0,0.0,0.0,0.0,0.0,-2.1567,-2.1629,-2.1809,-2.1881,-2.1996,-2.2096,-2.2342,-2.2778,-2.3017,-2.3335,-2.3769,-2.3356,-2.3224,-2.315,-2.2628,-2.2101,-2.1502,-2.1502,-2.1195,-2.0566,-2.0566,-2.0566,-2.0489,-2.0731,-2.0799,-2.0702,-2.0928,-2.0838,0.0,-2.0163,-1.9605,-1.9142,-1.9581,-1.9392,-1.9204,-1.9992,-1.9837,-1.9297,-1.9497,-1.983,-2.0586,-2.3005,-2.382,-2.429,-2.587,-2.6255,-2.6347,-2.6588,-2.6484,-2.6483,-2.6741,-2.5973,-2.5293,-2.5466,-2.6232,-2.6795,-2.6317,-2.8005,-2.9341,-2.9043,-2.921,-2.9439,-2.9767,-2.939,-2.9052,0.0,0.0,0.0,-2.7973,-2.7719,-2.7557,-2.7231,-2.7638,-2.7893,-2.7893,-2.851,-2.8973,-2.9131,-2.9819,-3.0508,-3.1198,-3.1531,-3.1791,-3.191,-3.1994,-3.2361,-3.2977,-3.3482,-3.3992,-3.4529,-3.5191,-3.5722,-3.6208,-3.6678,-3.721,-3.7702,-3.8129,-3.8609,-3.9129,0.0,0.0,0.0,0.0,0.0,0.0,0.0,0.0,0.0,0.0,0.0,0.0,0.0,0.0,0.0,0.0,0.0,0.0,-2.0662,-2.133,-2.1632,-2.1333,-2.1607,-2.1768,-2.1768,-2.2455,-2.2853,-2.2925,-2.2981,-2.3001,-2.3001,-2.2553,-2.2025,-2.1502,-2.1502,-2.1195,-2.0644,-2.0644,-2.0489,-2.042,-2.0974,-2.1118,-2.0981,-2.1012,-2.0616,-2.0108,-2.0411,-2.0021,-1.9219,-1.8809,-1.8682,-1.8779,-1.9311,-1.9614,-2.0005,-2.1083,-2.1678,-2.2537,-2.4681,-2.5464,-2.5957,-2.6942,-2.7231,-2.7149,-2.6974,-2.6891,-2.6798,-2.6528,-2.5776,-2.54,0.0,0.0,-2.5995,-2.5796,-2.6387,-2.7079,-2.7609,-2.7681,-2.8208,0.0,0.0,0.0,0.0,0.0,0.0,-2.7893,0.0,-2.7231,-2.7231,-2.7638,-2.7893,-2.7893,-2.8271,-2.8657,-2.9131,-2.9561,-3.0469,-3.1629,-3.1629,-3.2082,-3.2892,-3.2922,-3.311,-3.3418,-3.4787,-3.4951,-3.4431,-3.5594,-3.6053,-3.6062,-3.6678,-3.723,-3.7736,-3.8143,-3.864,-3.9165,0.0,0.0,0.0,0.0,0.0,0.0,0.0,0.0,0.0,0.0,0.0,0.0,0.0,0.0,0.0,0.0,0.0,0.0,-1.9897,-2.0543,-2.086,-2.0525,-2.0877,-2.135,-2.1768,-2.21,-2.2413,-2.2925,-2.2834,-2.2777,-2.2777,-2.2176,-2.1883,-2.1731,-2.1262,-2.1108,-2.1272,-2.0799,-2.0809,-2.1195,-2.1359,-2.1502,-2.1482,-2.0901,-2.0661,-2.0511,-1.9664,-1.9329,-1.9258,-1.9357,-1.9743,-2.0363,-2.1769,-2.2258,-2.2495,-2.3203,-2.3989,-2.4821,-2.5303,-2.6152,-2.6896,-2.7115,-2.7231,-2.7149,-2.6974,-2.6809,-2.6449,-2.5508,-2.4945,-2.4317,0.0,0.0,0.0,-2.5937,-2.8587,0.0,-2.9796,-2.9897,0.0,-2.9844,0.0,-2.859,-2.851,-2.7788,0.0,0.0,-2.7231,-2.7231,-2.7231,-2.7638,-2.7719,-2.7394,-2.8111,-2.8803,-2.9316,-3.0758,-3.1823,-3.2403,-3.2835,-3.3431,-3.4118,-3.4076,-3.4516,-3.5483,-3.5808,-3.594,-3.5964,-3.6571,-3.6532,-3.6208,-3.6719,-3.723,-3.7736,-3.8143,-3.864,-3.9165,0.0,0.0,0.0,0.0,0.0,0.0,0.0,0.0,0.0,0.0,0.0,0.0,0.0,0.0,0.0,0.0,0.0,0.0,0.0,-2.0058,-2.031,-2.04,-2.0202,-2.0302,-2.0712,-2.0758,-2.1016,-2.1503,-2.1555,-2.159,-2.1787,-2.1252,-2.1108,-2.1415,-2.0712,-2.0712,-2.1185,-2.0566,-2.0333,0.0,0.0,-2.1031,-2.0837,-2.0582,-2.0549,-2.0404,-1.9535,-1.9554,-2.0061,-2.0542,-2.1231,-2.1999,-2.2594,-2.3145,-2.3713,-2.4607,0.0,-2.5694,-2.6161,-2.6758,-2.7231,-2.7231,-2.7231,-2.6999,-2.6352,-2.6144,-2.5847,-2.5015,-2.4364,0.0,-2.3193,-2.5211,0.0,0.0,0.0,0.0,-2.9467,-2.9428,-2.9542,0.0,-2.8986,0.0,-2.851,-2.7708,-2.7383,0.0,-2.7765,-2.7765,-2.7765,-2.8327,-2.8554,-2.8315,-2.8791,-2.9328,-2.9909,-3.1294,-3.22,-3.2704,-3.3199,-3.3934,-3.4846,-3.4996,-3.5523,-3.6295,0.0,-3.6882,-3.6831,-3.7369,-3.7199,-3.6663,-3.7369,-3.7681,-3.7771,-3.8342,-3.8778,-3.9165,0.0,0.0,0.0,0.0,0.0,0.0,0.0,0.0,0.0,0.0,0.0,0.0,0.0,0.0,0.0,0.0,0.0,0.0,0.0,0.0,-2.0049,-2.0601,-1.9634,-1.9193,-1.9327,-1.9247,-1.9354,-1.9736,-1.9974,-2.0269,-2.0556,-2.0226,-2.0401,-2.0944,-2.0167,-2.0245,-2.0779,-2.0089,-1.9548,-1.9152,-2.0167,-2.0235,-1.9797,0.0,-2.0225,-2.0119,-1.9669,-2.0119,-2.1089,-2.1752,-2.2768,-2.358,-2.2808,-2.3308,-2.4443,-2.5444,-2.575,-2.592,-2.6942,-2.7149,-2.7149,-2.7149,-2.7149,-2.6755,-2.5495,-2.5315,-2.5172,-2.4511,0.0,-2.3656,-2.4133,-2.5327,-2.5961,-2.5222,0.0,-2.7792,-2.8435,-2.8203,-2.8399,-2.9651,-2.9143,-2.8657,-2.851,-2.7869,-2.7765,-2.8462,-2.8688,-2.8767,-2.8688,-2.9316,-2.9704,-2.9704,-2.9858,-3.0152,-3.0683,-3.1529,-3.2273,-3.2846,-3.3269,-3.407,-3.5175,-3.5691,-3.6214,-3.6663,0.0,0.0,-3.7352,-3.8116,-3.7997,-3.7463,-3.8461,-3.8546,-3.8164,-3.8958,-3.9293,-3.95,0.0,0.0,0.0,0.0,0.0,0.0,0.0,0.0,0.0,0.0,-1.1613,-1.2865,0.0,0.0,0.0,0.0,0.0,0.0,0.0,0.0,0.0,-2.0124,-1.99,-1.965,-1.9524,-1.9341,-1.9213,-1.9284,-2.0119,-2.0561,-2.0642,-2.0841,-2.1011,-2.1088,-2.007,-1.9904,-2.0285,-1.9687,-1.946,-1.9529,-2.006,-2.0275,-2.0265,-1.9506,0.0,0.0,-1.9534,-2.0052,-2.1009,-2.1278,-2.2714,-2.4424,-2.4388,-2.5185,-2.6222,-2.6569,-2.6591,-2.6532,-2.6869,-2.6809,-2.6727,-2.6727,-2.6727,-2.6427,-2.5191,-2.5001,0.0,0.0,-2.3358,-2.3786,-2.2551,-2.4777,-2.6915,-2.7042,-2.8422,-2.9683,-3.0439,-3.0553,-3.0366,0.0,0.0,0.0,0.0,0.0,0.0,0.0,0.0,-3.0215,-2.9549,-2.9626,-2.9704,-2.9704,-3.0545,-3.0996,-3.1071,-3.2259,-3.2988,-3.3479,-3.3977,-3.4572,-3.54,-3.607,-3.6874,-3.771,-3.8332,0.0,-3.8405,-3.9336,-3.9232,-3.8694,-3.9743,-4.0148,-4.0142,-4.0693,-4.0966,-4.1163,0.0,0.0,0.0,0.0,0.0,0.0,0.0,-0.7165,-0.8309,-0.8959,-0.9884,-1.1527,-1.4307,-1.4887,-1.5384,0.0,0.0,0.0,0.0,0.0,0.0,0.0,-1.8291,-1.8404,-1.8269,-1.8295,-1.8447,-1.8605,0.0,-1.9072,-1.9303,-1.9488,-1.9745,-1.9995,-1.8779,-1.8541,-1.8912,-1.7963,-1.7738,-1.7997,-1.8381,-1.8709,-1.8877,0.0,0.0,0.0,-1.9082,-1.9878,-2.0899,-2.0466,-2.2182,-2.4479,-2.4693,-2.5611,-2.6644,-2.6727,-2.6727,-2.6809,-2.6891,-2.6809,-2.6727,-2.6727,-2.6644,-2.6195,-2.4551,0.0,0.0,0.0,-2.3005,-2.3854,-2.3619,-2.5654,0.0,-2.8015,-2.9312,-3.0323,-3.0469,-3.0646,0.0,0.0,0.0,0.0,0.0,0.0,0.0,0.0,0.0,-3.0745,-3.038,-3.0771,-3.1022,-3.1022,-3.1468,-3.1763,-3.1823,-3.2475,-3.3129,-3.3632,-3.3908,-3.4452,-3.5169,-3.5879,-3.6569,-3.7298,-3.8157,0.0,-3.8883,-3.9932,-3.9995,-3.9582,-4.0625,-4.0925,-4.0769,-4.1148,-4.1505,-4.1791,0.0,0.0,0.0,0.0,0.0,0.0,0.0,-0.6083,-0.708,-0.7664,-0.8438,-1.0088,-1.3186,-1.4004,-1.4601,0.0,0.0,0.0,0.0,0.0,0.0,0.0,0.0,0.0,0.0,0.0,0.0,0.0,-1.7267,0.0,0.0,0.0,0.0,0.0,-1.7075,-1.6782,-1.715,-1.6113,-1.5769,0.0,0.0,-1.6724,0.0,0.0,0.0,0.0,0.0,-1.9522,-2.0434,-2.0061,-2.1487,-2.3608,-2.4231,-2.5206,-2.6146,-2.6146,-2.6311,-2.6427,-2.6704,-2.6727,-2.6727,-2.6727,-2.6561,-2.5964,-2.4181,-2.3961,0.0,-2.2603,-2.3112,-2.4157,-2.5131,-2.6586,-2.7817,0.0,-2.9239,-2.9872,-2.9768,-3.0037,-3.0139,0.0,0.0,0.0,0.0,0.0,0.0,0.0,0.0,0.0,-3.1206,-3.185,-3.2182,-3.2182,-3.2182,-3.2241,-3.2359,-3.2561,-3.2846,-3.3339,-3.3632,-3.4113,-3.4787,-3.5479,-3.6117,-3.6769,-3.7911,0.0,0.0,-4.0446,-4.0756,-4.0586,-4.1566,-4.1705,-4.1418,-4.1714,-4.2114,-4.2513,0.0,0.0,0.0,0.0,0.0,0.0,0.0,-0.5306,-0.5607,-0.7431,-0.7812,-0.8415,-0.9916,-1.2145,-1.3715,0.0,0.0,0.0,0.0,0.0,0.0,0.0,0.0,0.0,0.0,0.0,0.0,0.0,0.0,0.0,0.0,0.0,0.0,0.0,0.0,0.0,-1.4884,-1.4814,0.0,0.0,0.0,0.0,0.0,0.0,0.0,0.0,0.0,-1.8798,-1.9119,-2.0424,-2.1079,-2.1458,-2.2717,-2.3895,-2.4737,-2.4798,0.0,0.0,-2.6025,-2.6146,-2.599,-2.599,-2.5979,-2.5644,-2.456,0.0,-2.3822,-2.3623,-2.4084,-2.4815,-2.5501,-2.655,-2.7281,-2.7394,-2.755,-2.7999,-2.8736,-2.9369,-2.9806,-2.9792,0.0,0.0,0.0,0.0,0.0,0.0,0.0,0.0,-3.2096,-3.2169,-3.2182,-3.2182,-3.2182,-3.2182,-3.2241,-3.2359,-3.2489,-3.2489,-3.3269,-3.3825,-3.4206,-3.5073,-3.5928,-3.6769,-3.8092,0.0,0.0,-4.1168,-4.1955,-4.223,-4.2793,-4.3139,-4.3259,-4.3498,-4.3751,-4.4055,0.0,0.0,0.0,0.0,0.0,0.0,-0.4139,-0.4916,-0.5613,-0.5992,-0.6608,-0.7134,-0.7647,-0.876,-1.0118,-1.1883,0.0,0.0,0.0,0.0,0.0,0.0,0.0,0.0,0.0,0.0,0.0,-1.4158,0.0,0.0,0.0,0.0,0.0,0.0,0.0,0.0,0.0,-1.2435,0.0,0.0,0.0,0.0,0.0,0.0,0.0,0.0,0.0,0.0,-1.7619,-1.9396,-2.008,-2.0258,-2.0774,-2.177,-2.3041,-2.4246,-2.458,-2.4841,-2.5931,-2.6157,-2.6074,-2.6074,-2.5937,-2.5606,-2.454,0.0,-2.4106,-2.3867,-2.4414,-2.5195,-2.6193,-2.6984,-2.7637,-2.7999,-2.8162,-2.8313,-2.8347,-2.8475,-2.8713,0.0,0.0,0.0,0.0,0.0,0.0,0.0,0.0,0.0,-3.2182,-3.2182,-3.2182,-3.2182,-3.195,-3.195,-3.2182,-3.2069,-3.2128,-3.2417,-3.2988,-3.3409,-3.3825,-3.4677,-3.5593,-3.6461,-3.7663,0.0,0.0,-4.0856,-4.1674,-4.2175,-4.292,-4.3268,-4.3426,-4.3892,-4.4221,-4.4546,0.0,0.0,0.0,0.0,0.0,-0.2507,-0.3054,-0.3986,-0.4763,-0.5002,-0.5384,-0.5838,-0.6133,-0.6283,-0.7046,-0.8808,-0.9562,0.0,0.0,0.0,0.0,0.0,0.0,0.0,0.0,0.0,-1.4022,-1.268,-1.3373,-1.3441,0.0,0.0,0.0,0.0,0.0,0.0,0.0,0.0,0.0,0.0,0.0,0.0,0.0,0.0,0.0,0.0,0.0,0.0,0.0,0.0,0.0,-1.9147,-1.8985,-1.9893,-2.1322,-2.3134,-2.3853,-2.437,-2.537,-2.5775,-2.5895,-2.5895,-2.5716,-2.5338,0.0,0.0,-2.4401,-2.4411,-2.4966,-2.5723,-2.6792,-2.7608,-2.7987,-2.7775,-2.7903,-2.7903,-2.7499,-2.7102,-2.7219,0.0,0.0,0.0,0.0,0.0,0.0,0.0,0.0,0.0,0.0,-3.2182,-3.2182,-3.2023,-3.1716,-3.1716,-3.2023,-3.1863,-3.1923,-3.2359,-3.2846,-3.3325,-3.3811,-3.4677,-3.5593,-3.6569,0.0,0.0,0.0,-4.0638,-4.1393,-4.2008,-4.275,-4.3178,-4.3442,-4.3949,-4.4402,-4.4819,0.0,0.0,0.0,0.0,0.0,0.0,-0.2898,-0.2433,-0.2668,-0.4768,-0.43,-0.4217,-0.5229,-0.5306,-0.5303,-0.5384,-0.6816,0.0,0.0,0.0,0.0,0.0,0.0,0.0,0.0,0.0,-1.1322,-1.1322,-1.0124,-1.0021,-1.0877,-0.8695,0.0,0.0,0.0,0.0,0.0,0.0,0.0,0.0,0.0,0.0,0.0,0.0,0.0,0.0,0.0,0.0,0.0,0.0,0.0,0.0,0.0,-1.8407,-1.9888,-2.1024,-2.2241,-2.3327,-2.4042,-2.4671,-2.52,-2.52,-2.5031,-2.4893,-2.4737,-2.4598,-2.4724,-2.5484,-2.6147,-2.6719,-2.7336,-2.8223,-2.8131,-2.6152,-2.6008,-2.6091,-2.5568,-2.5322,0.0,0.0,0.0,0.0,0.0,0.0,0.0,0.0,0.0,0.0,0.0,-3.2182,-3.2023,-3.1629,-3.1629,-3.1629,-3.1629,-3.1629,-3.179,-3.2182,-3.2931,-3.3659,-3.4312,-3.5059,-3.6039,0.0,0.0,0.0,0.0,-4.0625,-4.1428,-4.2074,-4.2537,-4.3069,-4.3631,-4.3892,-4.4374,-4.4915,0.0,0.0,0.0,0.0,0.0,0.0,0.0,-0.2821,-0.321,-0.4611,-0.4219,-0.3908,-0.4219,-0.3754,-0.3366,-0.3366,-0.5063,0.0,0.0,0.0,0.0,0.0,0.0,0.0,0.0,0.0,-0.8765,-0.7474,-0.8356,-0.8435,-0.7727,-0.7571,-0.7069,-0.6394,0.0,0.0,0.0,0.0,0.0,0.0,0.0,0.0,0.0,0.0,0.0,0.0,0.0,0.0,0.0,0.0,0.0,0.0,0.0,0.0,0.0,-1.9598,-2.0895,-2.2301,-2.3236,-2.3709,-2.3897,-2.4221,-2.4302,-2.436,-2.4525,-2.4598,-2.4847,-2.5579,-2.5815,-2.6008,-2.6659,-2.7418,-2.7406,-2.583,-2.5924,-2.6019,0.0,0.0,0.0,0.0,0.0,0.0,0.0,0.0,0.0,0.0,0.0,0.0,0.0,-3.1656,-3.1421,-3.1629,-3.1347,-3.1347,-3.1629,-3.1347,-3.1495,-3.2182,-3.2503,-3.2903,-3.3241,-3.4327,0.0,0.0,0.0,0.0,0.0,-4.0449,-4.1111,-4.1788,-4.2297,-4.2884,-4.3442,-4.3912,-4.4364,-4.48,0.0,0.0,0.0,0.0,0.0,0.0,0.0,-0.243,-0.2899,-0.4066,-0.3599,-0.3365,-0.3752,-0.3054,-0.2511,-0.2511,-0.3599,0.0,0.0,0.0,0.0,0.0,0.0,0.0,-0.6379,-0.7028,-0.688,-0.5719,-0.6527,-0.6567,-0.6109,-0.5792,-0.5414,-0.4964,-0.4418,-0.4318,0.0,0.0,0.0,0.0,0.0,0.0,-1.2015,0.0,0.0,0.0,0.0,0.0,0.0,0.0,0.0,0.0,0.0,0.0,0.0,0.0,-1.9776,-2.1124,-2.2361,-2.2857,-2.3185,-2.3722,-2.3865,0.0,-2.4289,-2.4482,-2.4766,-2.5199,-2.5359,-2.5527,-2.5924,-2.6505,-2.6412,-2.5147,-2.5158,-2.5326,0.0,0.0,0.0,0.0,0.0,0.0,0.0,0.0,0.0,0.0,0.0,0.0,0.0,-3.1582,-3.1434,-3.1347,-3.1123,-3.1198,-3.1629,-3.1347,-3.1569,-3.2182,-3.2503,-3.2761,-3.3185,-3.438,0.0,0.0,0.0,0.0,0.0,-3.9986,-4.0689,-4.1453,-4.1966,-4.2657,-4.3403,-4.3844,-4.4364,-4.491,0.0,0.0,0.0,0.0,0.0,0.0,0.0,-0.1572,-0.2042,-0.3212,-0.2665,-0.2586,-0.3597,-0.2976,-0.251,-0.2433,0.0,0.0,0.0,0.0,0.0,0.0,0.0,0.0,-0.5017,-0.5132,-0.5247,-0.5272,-0.4378,-0.4376,-0.5169,-0.3411,-0.3069,-0.3838,-0.2716,-0.2781,-0.3823,-0.469,-0.6129,-0.7899,-0.7899,-0.9561,0.0,0.0,0.0,0.0,0.0,0.0,0.0,0.0,0.0,0.0,0.0,0.0,0.0,0.0,0.0,0.0,0.0,-2.2351,-2.2971,-2.3515,-2.3555,-2.3604,-2.4094,-2.4378,0.0,-2.454,-2.4871,-2.5115,-2.5115,-2.5421,-2.5316,-2.4135,-2.3877,0.0,0.0,0.0,0.0,0.0,0.0,0.0,0.0,0.0,0.0,0.0,0.0,0.0,0.0,-3.173,-3.173,-3.1061,-3.0986,-3.1198,-3.1556,-3.1556,-3.179,-3.2169,-3.2717,-3.3255,-3.3851,-3.5044,0.0,0.0,0.0,0.0,0.0,-3.9506,-4.0153,-4.1071,-4.1666,-4.2508,-4.3431,-4.3781,-4.4411,-4.5106,0.0,0.0,0.0,0.0,0.0,0.0,0.0,0.0,0.0,0.0,-0.2353,-0.2276,-0.3132,-0.2665,-0.2198,0.0,0.0,0.0,0.0,0.0,0.0,0.0,0.0,0.0,-0.1257,-0.1371,-0.1401,-0.1343,-0.0963,-0.0868,-0.0873,-0.0427,-0.0257,-0.035,0.0,-0.0438,-0.1598,-0.3374,-0.445,-0.5085,-0.7376,-0.869,0.0,0.0,0.0,0.0,-1.3828,-1.4159,0.0,0.0,0.0,0.0,0.0,0.0,0.0,0.0,-1.855,-1.9213,-2.1073,0.0,-2.1787,-2.2564,-2.293,-2.3227,0.0,-2.4378,-2.454,-2.454,-2.4454,-2.4368,-2.4186,-2.4498,-2.4402,-2.3028,0.0,0.0,0.0,0.0,0.0,0.0,0.0,0.0,0.0,0.0,0.0,0.0,0.0,0.0,0.0,-3.1035,-3.1035,-3.1408,-3.1123,-3.1061,-3.1123,-3.1408,-3.1629,-3.1716,-3.2155,-3.2846,-3.3865,-3.4633,0.0,0.0,0.0,0.0,-3.9061,-3.9454,-4.0153,-4.1053,-4.1785,-4.2567,-4.3382,-4.3943,-4.4448,-4.4919,0.0,0.0,0.0,0.0,0.0,0.0,0.0,0.0,0.0,0.0,0.0,0.0,0.0,0.0,0.0,0.0,0.0,0.0,0.0,0.0,0.0,0.0,0.0,-0.0406,0.0,0.0085,0.0087,0.0,0.0088,0.026,0.0434,0.0424,0.051,0.0781,0.0701,0.0088,-0.1148,-0.223,-0.3224,-0.4295,-0.6328,0.0,0.0,0.0,0.0,0.0,-1.3392,-1.3984,0.0,-1.3906,-1.4573,-1.5567,0.0,0.0,0.0,0.0,-1.8078,-1.8479,-2.007,-2.0867,-2.1572,-2.2544,-2.2941,-2.3268,-2.4163,-2.4454,-2.454,-2.454,-2.4196,-2.3937,-2.3677,-2.4079,-2.3983,0.0,0.0,0.0,0.0,0.0,0.0,0.0,0.0,0.0,0.0,0.0,0.0,0.0,0.0,0.0,0.0,-3.1198,-3.1272,-3.1347,-3.1508,-3.1582,-3.1582,-3.1556,-3.1703,-3.1863,-3.2155,-3.2704,-3.3604,-3.4699,-3.5627,0.0,0.0,0.0,-3.886,-3.9259,-3.9851,-4.0659,-4.1508,-4.2332,-4.3138,-4.3767,-4.4402,-4.4981,0.0,0.0,0.0,0.0,0.0,0.0,0.0,0.0,0.0,0.0,0.0,0.0,0.0,0.0,0.0,0.0,0.0,0.0,0.0,0.0,0.0,0.0,-0.0078,0.0481,0.0419,0.0588,0.0601,0.0448,0.0525,0.0604,0.0603,0.0675,0.0762,0.0954,0.0709,-0.0089,-0.1223,-0.1335,-0.2419,-0.421,-0.5097,0.0,0.0,0.0,0.0,0.0,0.0,0.0,0.0,-1.373,-1.4237,-1.5249,-1.5401,0.0,0.0,0.0,0.0,0.0,-1.9027,-2.0498,-2.1953,-2.2806,-2.3022,-2.3248,-2.4248,-2.454,-2.4454,-2.4454,-2.411,-2.3754,-2.3744,-2.3993,0.0,0.0,0.0,0.0,0.0,0.0,0.0,0.0,0.0,0.0,0.0,0.0,0.0,0.0,0.0,0.0,0.0,-3.1421,-3.173,-3.0986,-3.173,-3.2169,-3.2182,-3.1863,-3.179,-3.2023,-3.2286,-3.2775,-3.3465,-3.4832,-3.5785,0.0,0.0,0.0,-3.8567,-3.8936,-3.9454,-4.0086,-4.1133,-4.2032,-4.285,-4.3638,-4.4392,-4.512,0.0,0.0,0.0,0.0,0.0,0.0,0.0,0.0,0.0,0.0,0.0,0.0,0.0,0.0,0.0,0.0,0.0,0.0,0.0,0.0,0.0,0.0313,0.0862,0.1603,0.252,0.2439,0.2492,0.2689,0.2587,0.2536,0.2534,0.2561,0.2588,0.2691,0.1687,0.0805,0.0,-0.0985,-0.2063,-0.3232,-0.4121,0.0,0.0,0.0,0.0,0.0,0.0,0.0,0.0,-1.3971,-1.4552,-1.5658,-1.5914,0.0,0.0,0.0,0.0,0.0,-1.9186,-2.0928,-2.2616,-2.2209,-2.2093,-2.2486,-2.4152,-2.454,-2.4454,-2.4292,-2.4024,-2.3993,-2.4723,-2.3704,-2.294,0.0,0.0,0.0,0.0,0.0,0.0,0.0,0.0,0.0,0.0,0.0,0.0,0.0,0.0,0.0,0.0,-3.1061,-3.1136,-3.0986,-3.1421,-3.1863,-3.2182,-3.2169,-3.1803,-3.1211,-3.1877,-3.2903,-3.4177,-3.4699,-3.5642,0.0,0.0,-3.796,-3.8383,-3.8623,-3.9189,-4.0136,-4.1191,-4.2065,-4.2832,-4.3912,-4.461,-4.508,0.0,0.0,0.0,0.0,0.0,0.0,0.0,0.0,0.0,0.0,0.0,0.0,0.0,0.0,0.0,0.0,0.0,0.0,0.0,0.0,0.0705,0.0627,0.1745,0.2678,0.3193,0.3196,0.3264,0.3406,0.3216,0.3316,0.3865,0.3824,0.3514,0.2992,0.2562,0.1514,0.0088,-0.0446,-0.1614,-0.3139,0.0,0.0,0.0,0.0,0.0,0.0,0.0,0.0,0.0,0.0,-1.4461,-1.565,-1.6237,0.0,0.0,0.0,0.0,0.0,-1.8086,-1.8834,-1.9901,-2.153,-2.3185,-2.4562,-2.5365,-2.5611,-2.5274,-2.4049,-2.3897,-2.3912,-2.3598,0.0,-2.4777,0.0,0.0,0.0,0.0,0.0,0.0,0.0,0.0,0.0,0.0,0.0,0.0,0.0,0.0,0.0,0.0,0.0,-3.0947,-3.1334,-3.1716,-3.1936,-3.1863,-3.2096,-3.2023,-3.1656,-3.2082,-3.2775,-3.3644,-3.4765,-3.5627,-3.6305,0.0,-3.7801,-3.8017,-3.8415,-3.8952,-3.9594,-4.0816,-4.1747,-4.2551,-4.4111,-4.4928,-4.5323,0.0,0.0,0.0,0.0,0.0,0.0,0.0,0.0,0.0,0.0,0.0,0.0,0.0,0.0,0.0,0.0,0.0,0.0,0.0,0.0,0.079,0.079,0.2262,0.3217,0.3444,0.3632,0.3617,0.365,0.3587,0.404,0.4903,0.4653,0.4075,0.3336,0.3183,0.1954,-0.0088,-0.0089,-0.1254,-0.3226,0.0,0.0,0.0,0.0,0.0,0.0,0.0,0.0,0.0,0.0,0.0,0.0,0.0,0.0,0.0,-1.7473,-1.7383,-1.7212,-1.7139,-1.7343,-1.8155,-2.0838,-2.3134,-2.5065,-2.6206,-2.6185,-2.5495,-2.4094,-2.4296,-2.4289,0.0,-2.4514,0.0,0.0,0.0,0.0,0.0,0.0,0.0,0.0,0.0,0.0,0.0,0.0,0.0,0.0,0.0,0.0,0.0,0.0,-3.0683,-3.1246,-3.1863,-3.2023,-3.1703,-3.2023,-3.2169,-3.2096,-3.2286,-3.2561,-3.3058,-3.4566,-3.5434,-3.5691,-3.6997,-3.7599,-3.7759,-3.8246,-3.8639,-3.9115,-4.046,-4.1594,-4.2665,-4.4285,-4.5148,-4.5517,0.0,0.0,0.0,0.0,0.0,0.0,0.0,0.0,0.0,0.0,0.0,0.0,0.0,0.0,0.0,0.0,0.0,0.0,0.0,-0.016,0.0648,0.1296,0.2151,0.2934,0.3697,0.3601,0.3644,0.3743,0.4426,0.519,0.5863,0.4753,0.4197,0.4192,0.3315,0.1792,0.0,-0.0268,-0.1432,-0.3227,-0.3587,0.0,0.0,0.0,0.0,0.0,0.0,0.0,0.0,0.0,0.0,0.0,0.0,0.0,-1.77,-1.77,-1.77,-1.7619,-1.7212,-1.8536,-2.0074,-2.0139,-1.9924,-2.095,-2.5445,-2.5158,-2.4231,-2.4925,-2.5611,-2.583,0.0,-2.5325,0.0,0.0,0.0,0.0,0.0,0.0,0.0,0.0,0.0,0.0,0.0,0.0,0.0,0.0,0.0,0.0,0.0,0.0,0.0,-3.0139,-3.1468,-3.2182,-3.2182,-3.2182,-3.2023,-3.1629,-3.2009,-3.2516,-3.3044,-3.3973,-3.4832,-3.5627,-3.6662,-3.7301,-3.77,-3.7876,-3.8375,-3.9115,-4.0214,-4.1843,-4.3703,-4.4562,-4.5084,-4.5379,0.0,0.0,0.0,0.0,0.0,0.0,0.0,0.0,0.0,0.0,0.0,0.0,0.0,0.0,0.0,0.0,0.0,0.0,0.0,0.0,0.0653,0.1575,0.2287,0.3086,0.3949,0.398,0.4023,0.4074,0.5142,0.5709,0.5709,0.5193,0.4734,0.43,0.332,0.1794,0.0,-0.0269,-0.1611,-0.3496,-0.4385,-0.5625,0.0,0.0,0.0,0.0,0.0,0.0,0.0,0.0,-1.5115,-1.646,-1.7367,-1.7781,-1.787,-1.787,-1.7781,-1.7619,-1.7383,-1.8716,-2.0254,-2.0031,-2.0017,-2.1034,-2.4837,-2.5092,-2.442,-2.4206,-2.4922,-2.5432,0.0,0.0,0.0,0.0,0.0,0.0,0.0,0.0,0.0,0.0,0.0,0.0,0.0,0.0,0.0,0.0,0.0,0.0,0.0,0.0,0.0,-3.0367,-3.132,-3.195,-3.2182,-3.2182,-3.2096,-3.195,-3.2096,-3.2314,-3.2516,-3.3381,-3.4177,-3.4832,-3.5946,-3.6738,-3.7301,-3.7642,-3.8091,-3.8701,-4.028,-4.2002,-4.3582,-4.4233,-4.4786,-4.5304,0.0,0.0,0.0,0.0,0.0,0.0,0.0,0.0,0.0,0.0,0.0,0.0,0.0,0.0,0.0,0.0,0.0,0.0,-0.0821,-0.0248,0.0502,0.1358,0.1734,0.2543,0.3862,0.3862,0.3965,0.4259,0.5581,0.6334,0.6634,0.5854,0.5202,0.4654,0.3138,0.1435,-0.0179,-0.0716,-0.2236,-0.4208,-0.5095,-0.6505,0.0,0.0,0.0,0.0,0.0,0.0,0.0,0.0,-1.5621,-1.6624,-1.7538,-1.787,-1.804,-1.804,-1.8023,-1.8095,-1.7942,-1.8807,-1.9802,-2.0173,-2.0244,-2.0993,-2.4232,-2.4545,-2.4106,-2.4283,-2.4441,-2.4567,-2.4819,0.0,0.0,0.0,0.0,0.0,0.0,0.0,0.0,0.0,0.0,0.0,0.0,0.0,0.0,0.0,0.0,0.0,0.0,0.0,0.0,0.0,-3.0771,-3.1542,-3.1776,-3.2096,-3.2182,-3.2182,-3.2182,-3.2182,-3.2255,-3.2974,-3.3575,-3.4109,-3.5404,-3.6275,-3.6769,-3.7449,-3.8132,-3.8849,-4.0443,-4.1979,-4.3361,-4.3968,-4.4643,-4.5285,0.0,0.0,0.0,0.0,0.0,0.0,0.0,0.0,0.0,0.0,0.0,0.0,0.0,0.0,0.0,0.0,0.0,0.0,-0.1678,-0.0859,0.0,0.0782,0.0532,0.1254,0.3136,0.2957,0.3372,0.4175,0.5631,0.7166,0.8823,0.6694,0.5719,0.5542,0.2686,0.0717,-0.0537,-0.17,-0.3486,-0.5447,-0.5628,-0.7376,-0.9817,0.0,0.0,0.0,0.0,0.0,0.0,0.0,-1.6632,-1.7473,-1.7878,-1.804,-1.804,-1.804,-1.8505,-1.8966,-1.8966,-1.8718,-1.8789,-2.0448,-2.0167,-2.0391,-2.3792,-2.3327,-2.2859,-2.5398,-2.4307,-2.3326,-2.4786,-2.4451,0.0,0.0,0.0,0.0,0.0,0.0,0.0,0.0,0.0,0.0,0.0,0.0,0.0,0.0,0.0,0.0,0.0,0.0,0.0,0.0,-2.9807,-3.0882,-3.0895,-3.1763,-3.2182,-3.2182,-3.2182,-3.2169,-3.2255,-3.2717,-3.3185,-3.3575,-3.4963,-3.5804,-3.6166,-3.7238,-3.8439,-3.9697,-4.0716,-4.189,-4.3084,-4.3908,-4.4662,-4.5342,0.0,0.0,0.0,0.0,0.0,0.0,0.0,0.0,0.0,0.0,0.0,0.0,0.0,0.0,0.0,0.0,0.0,0.0,-0.0588,-0.0424,0.0,0.0955,0.0786,0.1147,0.2149,0.2688,0.3482,0.4789,0.5139,0.586,0.6605,0.5364,0.4383,0.3664,0.206,0.0358,-0.1431,-0.2677,-0.4014,-0.5622,-0.7811,-0.9118,-1.0072,0.0,0.0,0.0,0.0,0.0,0.0,0.0,0.0,0.0,-1.7878,-1.804,-1.804,-1.804,-1.8112,-1.8264,-1.8095,-2.0104,-2.1909,-2.0429,-2.202,-2.4019,-2.436,-2.3337,-2.2794,-2.4118,-2.3624,-2.3175,-2.3814,0.0,0.0,0.0,0.0,0.0,0.0,0.0,0.0,0.0,0.0,0.0,0.0,0.0,0.0,0.0,0.0,0.0,0.0,0.0,0.0,0.0,-2.9069,-2.9768,-3.0075,-3.0317,-3.0469,-3.0469,-3.0469,-3.1097,-3.2182,-3.2372,-3.2717,-3.3185,-3.3837,-3.4765,-3.5867,-3.7282,-3.8327,-3.9176,-4.0167,-4.1153,-4.2159,-4.3472,-4.4177,-4.4738,0.0,0.0,0.0,0.0,0.0,0.0,0.0,0.0,0.0,0.0,0.0942,0.0157,0.0,0.0,0.0,0.0,0.0,0.0,0.0,-0.0589,0.0,0.0608,0.0435,0.0614,0.1253,0.2418,0.3314,0.4026,0.4652,0.5277,0.563,0.4383,0.3398,0.2861,0.1075,-0.0716,-0.259,-0.3655,-0.5338,-0.7372,-0.92,-1.059,-1.1712,0.0,0.0,0.0,0.0,0.0,0.0,0.0,0.0,0.0,-1.7878,-1.804,-1.8031,-1.8434,-1.8745,-1.9161,-1.9837,-2.1639,-2.3177,-2.2633,-2.3875,-2.5098,-2.4419,-2.3801,-2.3639,0.0,-2.3536,-2.3005,-2.3485,0.0,0.0,0.0,0.0,0.0,0.0,0.0,0.0,0.0,0.0,0.0,0.0,0.0,0.0,0.0,0.0,0.0,0.0,0.0,0.0,0.0,-2.8462,-2.9003,-2.9238,-2.9549,-2.9704,-2.9704,-2.9704,-3.0241,-3.1246,-3.1542,-3.2055,-3.2717,-3.3381,-3.4312,-3.5627,-3.6966,-3.7879,-3.8531,-3.9664,-4.0758,-4.1848,-4.303,-4.4072,-4.5059,0.0,0.0,0.0,0.0,0.0,0.0,0.0,0.0,0.0,0.0,0.141,0.0627,0.0,0.0,0.0,0.0,0.0,0.0,0.0,-0.0923,0.0,0.0,-0.0261,-0.0088,0.0448,0.2061,0.2778,0.2508,0.4117,0.5008,0.5272,0.3575,0.2681,0.2413,-0.0358,-0.2413,-0.3829,-0.49,-0.719,-0.9899,-1.0159,-1.1798,-1.4055,-1.3789,0.0,0.0,0.0,0.0,0.0,0.0,0.0,0.0,-1.7878,-1.804,-1.8112,-1.8904,-1.9784,-2.0908,-2.2692,-2.3016,-2.3428,-2.6017,-2.5536,-2.4449,-2.4118,-2.4498,-2.4861,-2.4935,0.0,-2.2867,0.0,0.0,0.0,0.0,0.0,0.0,0.0,0.0,0.0,0.0,0.0,0.0,0.0,0.0,0.0,0.0,0.0,0.0,0.0,0.0,0.0,-2.6891,-2.7834,-2.8383,-2.8383,-2.9081,-2.9471,0.0,-2.9471,-2.9549,-2.9704,-3.0443,-3.1307,-3.2169,-3.3241,-3.4312,-3.5305,-3.6399,-3.7144,-3.7767,-3.9196,-4.0521,-4.1806,-4.2663,-4.4156,-4.5847,0.0,0.0,0.0,0.0,0.0,0.0,0.0,0.0,0.0,0.0,0.0,0.0,0.0,0.0,0.0,0.0,0.0,0.0,0.0,0.0083,0.0166,0.0,-0.0263,0.0,0.0897,0.0986,0.1613,0.2777,0.3674,0.3583,0.2593,0.2236,0.1164,-0.0537,-0.2145,-0.3481,-0.4903,-0.7537,-0.9113,-1.0072,-1.2486,-1.3698,-1.4223,-1.5304,-1.5733,0.0,0.0,0.0,0.0,0.0,0.0,0.0,-1.7878,-1.804,-1.8031,-1.8023,-1.9396,-2.0837,-2.0793,-2.3043,-2.5419,-2.5344,-2.5732,-2.5732,-2.4372,-2.4317,-2.4241,-2.3212,-2.3027,0.0,0.0,0.0,0.0,0.0,0.0,0.0,0.0,0.0,0.0,0.0,0.0,0.0,0.0,0.0,0.0,0.0,0.0,0.0,0.0,0.0,0.0,-2.7149,-2.7383,-2.7452,-2.7452,-2.7615,-2.7777,0.0,-2.7777,-2.8235,-2.9238,-3.0075,-3.0709,-3.136,-3.2706,-3.3463,-3.3794,-3.5627,-3.6662,-3.7219,-3.8696,-3.9664,-4.0511,-4.2821,-4.4126,-4.5036,0.0,0.0,0.0,0.0,0.0,0.0,0.0,0.0,0.0,0.0,0.0,0.0,0.0,0.0,0.0,0.0,0.0,0.0,0.0,0.0,0.0411,0.0168,-0.0088,0.0,0.0359,0.0628,0.1076,0.1703,0.2509,0.2508,0.179,0.0806,-0.0269,-0.1435,-0.3041,-0.4725,-0.6486,-0.8507,-1.0423,-1.2054,-1.3698,-1.4559,-1.4977,-1.5982,-1.6312,-1.6245,-1.6574,0.0,0.0,0.0,0.0,0.0,0.0,0.0,-1.8031,-1.8256,-1.9172,-2.0353,-2.185,-2.3589,-2.4905,-2.4977,-2.5478,-2.5505,-2.3953,-2.3704,-2.3627,-2.2872,0.0,0.0,0.0,0.0,0.0,0.0,0.0,0.0,0.0,0.0,0.0,0.0,0.0,0.0,0.0,0.0,0.0,0.0,0.0,0.0,0.0,-2.7231,-2.7231,-2.7231,-2.7231,-2.7231,-2.7231,-2.7231,-2.7231,-2.7231,-2.7231,-2.7777,-2.887,-3.0114,-3.0797,-3.111,-3.1928,-3.2263,-3.255,-3.4187,-3.523,-3.5965,-3.752,-3.8947,-4.0408,-4.2096,-4.3757,-4.5331,0.0,0.0,0.0,0.0,0.0,0.0,0.0,0.0,0.0,0.0,0.0,0.0,0.0,0.0,0.0,0.0,0.0,0.0,0.0,0.0,0.0,0.0338,0.0088,-0.009,-0.0359,0.0448,0.0718,0.0538,0.1075,0.1343,0.1433,-0.0269,-0.1345,-0.1883,-0.376,-0.5794,-0.7888,-0.9035,-1.1203,-1.388,-1.4223,-1.4901,-1.5741,-1.6229,-1.6394,-1.6394,-1.6812,-1.6812,-1.673,-1.7139,0.0,0.0,0.0,0.0,-1.8112,-1.8567,-1.8922,-1.9963,-2.3014,-2.3769,-2.39,-2.4934,-2.5147,0.0,-2.3434,-2.3096,-2.3105,-2.3222,0.0,0.0,0.0,0.0,0.0,0.0,0.0,0.0,0.0,0.0,0.0,0.0,0.0,0.0,0.0,0.0,0.0,0.0,0.0,0.0,-2.7231,-2.7056,-2.7056,-2.7056,-2.6891,-2.6891,-2.6891,-2.7056,-2.7056,-2.6974,-2.7138,-2.7545,-2.8339,-2.9806,-3.0646,-3.0934,-3.1084,-3.122,-3.1429,-3.2664,-3.3722,-3.4618,-3.6089,-3.8131,-4.0275,-4.1116,-4.3127,-4.5592,0.0,0.0,0.0,0.0,0.0,0.0,0.0,0.0,0.0,0.0,0.4229,0.368,0.0,0.0,0.0,0.0,0.0,0.0,0.0833,0.0,0.0,0.0347,0.0177,0.0,-0.009,-0.0179,0.0179,0.0987,-0.0179,-0.0359,0.0269,-0.0448,-0.1789,-0.3669,-0.5181,-0.6596,-0.7914,-0.9927,-1.1569,-1.3021,-1.3964,-1.4824,-1.5506,-1.6154,-1.6319,-1.6327,-1.7448,-1.7367,-1.6812,-1.7772,-1.7789,0.0,0.0,0.0,-1.7878,-1.7456,-1.877,-2.0316,-2.0205,-2.2239,-2.4538,-2.4987,-2.5136,-2.4808,0.0,0.0,-2.3193,0.0,0.0,0.0,0.0,0.0,0.0,0.0,0.0,0.0,0.0,0.0,0.0,0.0,0.0,0.0,0.0,0.0,0.0,0.0,0.0,0.0,-2.7149,-2.6622,-2.6362,-2.6362,-2.5779,-2.5454,-2.5454,-2.6423,-2.6588,-2.6113,-2.6857,-2.7267,-2.7429,-2.7971,-2.8858,-2.9998,-3.0482,-3.0683,-3.0833,-3.1842,-3.2806,-3.3711,-3.5005,-3.6725,-3.8699,-4.0645,-4.2454,-4.4092,0.0,0.0,0.0,0.0,0.0,0.0,0.0,0.0,0.0,0.0,0.0,0.4229,0.0,0.0,0.0,0.1909,0.1796,0.159,0.1284,0.0952,0.0696,0.0696,0.0444,0.0179,0.0179,0.0448,0.0807,0.1075,0.0269,0.0,0.0179,-0.1343,-0.2774,-0.3937,-0.5272,-0.6858,-0.8515,-1.0697,-1.2254,-1.336,-1.4636,-1.5982,-1.7276,-1.7188,-1.7719,-1.8589,-1.8155,-1.7755,-1.7448,-1.7375,-1.7302,-1.7221,-1.7221,0.0,0.0,0.0,-1.7865,-1.8876,-2.0145,-2.2501,-2.4519,-2.4428,-2.4382,-2.4049,-2.2677,0.0,0.0,0.0,0.0,0.0,0.0,0.0,0.0,0.0,0.0,0.0,0.0,0.0,0.0,0.0,0.0,0.0,0.0,0.0,0.0,0.0,0.0,-2.579,-2.6041,-2.579,-2.5611,-2.5611,-2.5359,-2.5369,-2.5611,-2.6091,-2.6268,-2.629,-2.6704,-2.6951,-2.7185,-2.7418,-2.7903,-2.8712,-2.8912,-2.9045,-2.9123,-2.9897,-3.0799,-3.1761,-3.2878,-3.4995,-3.7496,-3.8673,-4.0562,-4.2767,0.0,0.0,0.0,0.0,0.0,0.0,0.0,0.0,0.0,0.0,0.0,0.0,0.0,0.0,0.0,0.0,0.228,0.194,0.1561,0.1311,0.1228,0.1403,0.0801,0.0628,0.0806,0.1071,0.1068,0.0888,0.0619,0.0177,-0.0266,-0.222,-0.3563,-0.4472,-0.5539,-0.7207,-0.9383,-1.095,-1.2419,-1.3795,-1.5384,-1.7036,-1.8633,-1.84,-1.9192,-2.0344,-1.8843,-1.8158,-1.7917,-1.7286,-1.7049,-1.7057,-1.7057,-1.7139,0.0,0.0,0.0,-1.7589,-2.0264,-2.2135,-2.3351,-2.3628,-2.3533,-2.3142,0.0,0.0,0.0,0.0,0.0,0.0,0.0,0.0,0.0,0.0,0.0,0.0,0.0,0.0,0.0,0.0,0.0,0.0,0.0,0.0,0.0,0.0,0.0,-2.5031,-2.52,-2.5031,-2.4935,-2.4935,-2.4765,-2.485,-2.5348,-2.56,-2.5946,-2.629,-2.6124,-2.6102,-2.6163,-2.6163,-2.6307,-2.6625,-2.7197,-2.7279,-2.7116,-2.7928,-2.873,-2.9585,-3.0712,-3.3048,-3.5929,-3.6294,-3.834,-4.0962,0.0,0.0,0.0,0.0,0.0,0.0,0.0,0.0,0.0,0.0,0.0,0.0,0.5622,0.4613,0.4068,0.399,0.3127,0.2407,0.1994,0.1861,0.197,0.2415,0.1343,0.0,0.197,0.0968,0.0436,0.0436,-0.0085,-0.0938,-0.1997,-0.2607,-0.4035,-0.598,-0.6511,-0.8009,-1.0289,-1.0549,-1.1826,-1.3893,-1.5826,-1.7387,-1.8511,-1.9507,-2.0077,-2.0254,-1.9473,-1.8709,-1.7997,-1.7917,-1.7521,-1.7057,-1.6812,-1.7066,-1.731,0.0,0.0,0.0,-1.948,-1.987,-2.0255,-2.2875,-2.278,-2.2341,0.0,0.0,0.0,0.0,0.0,0.0,0.0,0.0,0.0,0.0,0.0,0.0,0.0,0.0,0.0,0.0,0.0,0.0,0.0,0.0,0.0,0.0,0.0,-2.4509,-2.52,-2.4594,-2.4241,-2.4241,-2.356,-2.3396,-2.3917,-2.4775,-2.5348,-2.5568,-2.4914,-2.4145,-2.3347,-2.3347,-2.3347,-2.3434,-2.5576,-2.5959,-2.5209,-2.6138,-2.676,-2.7335,-2.874,-3.0943,-3.3382,-3.3933,-3.5843,-3.8267,0.0,0.0,0.0,0.0,0.0,0.0,0.0,0.0,0.0,0.0,0.0,0.0,0.0,0.5696,0.5076,0.5068,0.4369,0.3855,0.3714,0.3624,0.3669,0.3846,0.3129,0.2949,0.3217,0.3241,0.3206,0.3206,0.2119,0.1009,-0.0084,-0.2372,-0.4257,-0.5832,-0.6347,-0.7824,-0.9923,-1.073,-1.2024,-1.3724,-1.6347,-1.8455,-2.0154,-2.0585,-2.197,-2.3437,0.0,0.0,-2.0432,-1.9873,-1.9146,-1.8399,-1.7764,-1.7691,-1.761,-1.6894,-1.673,-1.704,-1.8681,-1.9041,-1.9339,-2.1024,-2.173,-2.2083,-2.1996,0.0,0.0,0.0,0.0,0.0,0.0,0.0,0.0,0.0,0.0,0.0,0.0,0.0,0.0,0.0,0.0,0.0,0.0,0.0,0.0,0.0,0.0,0.0,-2.382,-2.3647,-2.3299,-2.2843,-2.2589,-2.2501,-2.2668,-2.3454,-2.3877,-2.3953,-2.3704,-2.3444,-2.3096,-2.3096,-2.2473,-2.1587,-2.2504,-2.3595,-2.4707,-2.5145,-2.6003,-2.6933,-2.6939,-2.823,-3.0138,-3.0302,-3.1859,-3.3999,0.0,0.0,0.0,0.0,0.0,0.0,0.0,0.0,0.0,0.794,0.0,0.0,0.0,0.0,0.5854,0.5613,0.5292,0.505,0.4952,0.492,0.5001,0.5092,0.4467,0.4287,0.4465,0.44,0.442,0.4455,0.2887,0.1629,0.0577,-0.2232,-0.424,-0.5441,-0.6241,-0.7889,-1.0071,-1.0936,-1.2266,-1.3984,-1.7303,-1.9323,-2.0532,-2.1293,-2.2635,0.0,0.0,0.0,0.0,0.0,-2.0671,-2.0014,-1.886,-1.8019,-1.7448,-1.6894,-1.673,-1.686,-1.7829,-1.8053,-1.8303,-1.9507,-2.0316,-2.093,-2.1225,0.0,0.0,0.0,0.0,0.0,0.0,0.0,0.0,0.0,0.0,0.0,0.0,0.0,0.0,0.0,0.0,0.0,0.0,0.0,0.0,0.0,0.0,0.0,-2.2775,-2.2775,-2.2511,-2.1882,-2.1971,-2.205,-2.212,-2.2746,-2.2921,-2.2658,-2.2385,-2.212,-2.1765,-2.1489,-2.0843,-1.9895,-2.0036,-2.1067,-2.2646,-2.3192,-2.4018,-2.4925,-2.4641,-2.5654,-2.7171,-2.716,-2.8158,-2.9719,0.0,0.0,0.0,0.0,0.0,0.0,0.0,0.0,0.9599,0.8775,0.0,0.0,0.0,0.0,0.0,0.5699,0.5869,0.5859,0.5438,0.5659,0.5883,0.6157,0.5181,0.5006,0.5719,0.4365,0.3691,0.3771,0.2115,0.0851,-0.0242,-0.2341,-0.4007,-0.517,-0.6286,-0.8175,-1.0689,-1.0934,-1.2332,-1.4685,-1.865,-1.9898,-1.9586,-2.1549,0.0,0.0,-2.0742,-2.059,0.0,-2.1784,0.0,0.0,0.0,0.0,-1.673,-1.673,-1.6738,-1.673,0.0,0.0,0.0,-1.8294,0.0,0.0,0.0,0.0,0.0,0.0,0.0,0.0,0.0,0.0,0.0,0.0,0.0,0.0,0.0,0.0,0.0,0.0,0.0,0.0,0.0,0.0,0.0,0.0,0.0,-2.2775,-2.2059,-2.2059,-2.1882,-2.1356,-2.1695,-2.2041,-2.2306,-2.2736,-2.2482,-2.1606,-2.0872,-2.0068,-1.9112,-1.8373,-1.8183,-1.8399,-1.8406,-1.8502,-1.8835,-2.0083,-2.0767,-2.1106,-2.2046,-2.3231,-2.4557,-2.4557,-2.4919,-2.553,0.0,0.0,0.0,0.0,0.0,0.8016,0.8623,0.8927,0.8927,0.0,0.0,0.0,0.9311,0.8627,0.7936,0.748,0.7379,0.7311,0.7256,0.7292,0.7371,0.7573,0.7051,0.6789,0.6969,0.6313,0.5667,0.5025,0.3474,0.1899,0.0079,-0.1972,-0.3644,-0.4857,-0.5777,-0.7202,-0.894,-1.0136,-1.1757,-1.3737,-1.7304,-1.9305,0.0,0.0,0.0,0.0,0.0,-2.4073,-2.4185,0.0,-2.3545,-2.1471,0.0,0.0,-1.673,-1.673,-1.6812,-1.6976,-1.6976,0.0,0.0,0.0,0.0,0.0,0.0,0.0,0.0,0.0,0.0,0.0,0.0,0.0,0.0,0.0,0.0,0.0,0.0,0.0,0.0,0.0,0.0,0.0,0.0,0.0,0.0,0.0,-2.2069,-2.1704,-2.1347,-2.0997,-2.0817,-2.0817,-2.0085,-1.972,-1.9812,-1.9621,-1.9347,-1.908,-1.8896,-1.8753,-1.8627,-1.7647,-1.7029,-1.6731,-1.6124,-1.5821,-1.596,-1.8427,-1.952,-1.96,-1.9096,-1.9332,-2.002,-2.002,-2.0491,-2.1235,0.0,0.0,0.0,0.0,0.0,0.8694,0.9604,0.9976,1.0051,0.0,0.0,0.0,0.9685,0.9236,0.8784,0.8403,0.8199,0.807,0.825,0.8106,0.8111,0.8193,0.794,0.768,0.7507,0.72,0.6531,0.5524,0.4053,0.2533,0.0937,-0.1562,-0.3129,-0.3986,-0.5312,-0.6485,-0.7593,-0.9541,-1.1226,0.0,-1.6994,0.0,0.0,-2.2087,-2.354,0.0,0.0,0.0,-2.4498,-2.5872,-2.4368,0.0,0.0,0.0,0.0,0.0,-1.6894,-1.7139,-1.7139,-1.7221,-1.731,-1.7139,0.0,0.0,-1.9596,-2.0347,0.0,0.0,0.0,0.0,0.0,0.0,0.0,0.0,0.0,0.0,0.0,0.0,0.0,0.0,0.0,0.0,0.0,0.0,0.0,-2.198,-2.1722,-2.1356,-2.0907,-2.0002,-1.9637,-1.982,-1.8904,-1.8357,-1.855,-1.8272,-1.8155,-1.8293,-1.7508,-1.7287,-1.7483,-1.5999,-1.5251,-1.5107,-1.4533,-1.4146,-1.4044,-1.5897,-1.7114,-1.7678,-1.7075,-1.6746,-1.6714,-1.6839,-1.6701,-1.6441,0.0,0.0,0.6158,0.7367,0.8631,0.982,1.0807,1.1632,1.1929,0.0,1.1186,1.0732,0.9523,0.9463,0.9316,0.8927,0.8714,0.8666,0.8792,0.8655,0.8504,0.8337,0.8364,0.8113,0.7591,0.731,0.6649,0.5544,0.4185,0.2912,0.1888,-0.1018,-0.2504,-0.2817,-0.4846,-0.593,-0.6537,-0.8967,0.0,-1.2306,-1.7146,-1.8897,0.0,0.0,-2.2605,-2.268,-2.3502,-2.3418,-2.3321,-2.5644,-2.4498,0.0,0.0,0.0,0.0,0.0,-1.7,-1.7261,-1.7229,-1.7302,-1.7392,-1.7221,0.0,0.0,-2.0765,-2.1255,-2.1826,0.0,0.0,0.0,0.0,0.0,0.0,0.0,0.0,0.0,0.0,0.0,0.0,0.0,0.0,0.0,0.0,-2.1741,-2.1731,-2.1642,-2.1463,-2.1096,-2.0447,-1.9072,-1.8442,-1.8735,-1.7978,-1.7714,-1.8047,-1.7953,-1.7923,-1.8052,-1.6461,-1.5716,-1.5783,-1.3976,-1.3293,-1.3509,-1.3404,-1.3098,-1.2748,-1.2856,-1.3819,-1.5316,-1.5316,-1.4748,-1.3955,-1.4297,-1.3219,-1.1806,0.0,0.505,0.6018,0.722,0.8116,0.8988,0.997,1.0807,1.126,1.1111,1.1484,1.1409,1.0363,1.0588,1.0663,1.0438,1.024,1.0062,1.0152,1.0305,1.0048,0.9266,0.9329,0.889,0.8113,0.7618,0.691,0.5925,0.4522,0.3279,0.2254,-0.0079,-0.1722,-0.2582,-0.391,-0.494,-0.5924,-0.77,0.0,-1.119,-1.5952,0.0,-1.9401,-2.1795,-2.3497,-2.4618,-2.5041,-2.5303,-2.5344,-2.4273,-2.3294,-2.2104,0.0,0.0,0.0,0.0,0.0,0.0,0.0,0.0,0.0,0.0,0.0,0.0,-1.8194,-1.8138,-1.8422,0.0,0.0,0.0,0.0,0.0,0.0,0.0,0.0,0.0,0.0,0.0,0.0,0.0,0.0,0.0,0.0,-2.2176,-2.1642,-2.1454,-1.9985,-1.908,-1.9188,-1.8342,-1.7978,-1.8272,-1.7512,-1.7254,-1.7507,-1.6952,-1.6319,-1.5689,-1.5288,-1.4814,-1.4123,-1.288,-1.237,-1.2567,-1.1711,-1.1306,-1.1341,-1.0566,-1.0668,-1.1315,-1.1647,-1.1088,-1.0307,-1.0421,-1.0315,-1.0206,0.403,0.5108,0.6294,0.7641,0.8631,0.9674,1.0651,1.1105,1.1409,1.1558,1.1706,1.1632,1.1186,1.1111,1.1037,1.0962,1.0657,1.0534,1.0628,1.0715,1.0555,1.0213,1.0338,0.9932,0.889,0.8544,0.7581,0.5961,0.4706,0.3517,0.235,0.024,-0.1582,-0.3119,-0.383,-0.4924,-0.6342,0.0,-0.8846,-1.0794,-1.5099,0.0,-1.9911,-2.2112,-2.3533,-2.4317,-2.4584,-2.4754,-2.4617,-2.309,-2.2045,0.0,0.0,-1.9667,-1.8935,0.0,-1.8442,-1.8833,0.0,0.0,0.0,-1.7781,0.0,0.0,0.0,-1.8806,-1.9074,0.0,0.0,0.0,0.0,0.0,0.0,0.0,0.0,0.0,0.0,0.0,0.0,0.0,0.0,0.0,0.0,-2.1998,-2.1365,-2.0718,-1.9538,-1.8719,-1.8627,-1.7885,-1.768,-1.8135,-1.7472,-1.6952,-1.6565,-1.6282,-1.562,-1.4756,-1.4241,-1.3739,-1.322,-1.1505,-1.0695,-1.0558,-0.9464,-0.9023,-0.902,-0.8689,-0.8355,-0.8131,-0.901,-0.8793,-0.8023,-0.8131,-0.802,-0.7805,0.3892,0.5171,0.6497,0.7854,0.9228,1.0363,1.126,1.1558,1.1781,1.2157,1.1929,1.1855,1.215,1.1751,1.1484,1.1484,1.1157,1.0948,1.1028,1.0999,1.1072,1.1067,1.1431,1.1063,0.9927,0.9492,0.8372,0.6599,0.5193,0.3908,0.2709,0.0814,-0.1201,-0.337,-0.3849,-0.494,-0.6567,0.0,0.0,-1.0559,0.0,-1.7054,-1.9839,-2.1826,-2.2812,-2.3086,-2.3434,-2.3347,-2.2902,-2.2026,-2.103,-2.0265,-2.0957,-2.0081,0.0,0.0,0.0,0.0,0.0,0.0,0.0,0.0,0.0,-1.8164,0.0,0.0,0.0,-2.1091,0.0,0.0,0.0,0.0,0.0,0.0,0.0,0.0,0.0,0.0,0.0,0.0,0.0,0.0,0.0,-2.1353,-2.0739,-1.9795,-1.8959,-1.8517,-1.8334,-1.7702,-1.7472,-1.8082,-1.7322,-1.6493,-1.5872,-1.5675,-1.5185,-1.4289,-1.3451,-1.2797,-1.2531,-1.0566,-0.9471,-0.8813,-0.7916,-0.7362,-0.7138,-0.7138,-0.6584,-0.581,-0.7133,-0.7135,-0.6258,-0.6589,-0.6035,-0.5373,0.4154,0.5105,0.6083,0.7229,0.8636,0.983,1.0288,1.0962,1.1781,1.2673,1.2305,1.2445,1.3688,1.3205,1.2761,1.2679,1.2609,0.0,1.192,0.0,1.2337,1.1721,1.2272,1.21,1.1149,1.0106,0.9305,0.8848,0.6791,0.5173,0.3947,0.2642,0.0566,-0.2096,-0.3296,-0.4377,-0.5263,0.0,-0.8307,0.0,-1.1659,-1.4661,0.0,-1.9928,-2.1105,-2.1952,-2.2366,-2.2287,-2.1808,0.0,-2.0551,-1.9965,0.0,-1.9528,-2.04,0.0,0.0,0.0,0.0,0.0,0.0,0.0,-1.7951,0.0,0.0,0.0,-1.7775,-1.789,0.0,0.0,0.0,0.0,0.0,0.0,0.0,0.0,0.0,0.0,0.0,0.0,0.0,0.0,0.0,0.0,-1.925,-1.8956,-1.7251,-1.685,-1.8175,-1.7565,-1.7336,-1.7648,-1.6554,-1.6087,-1.6272,-1.5225,-1.4301,-1.347,-1.3362,-1.262,-1.1345,-1.1017,-1.0135,-0.892,-0.8809,-0.814,-0.7027,-0.6033,-0.5592,-0.5481,-0.6251,-0.5808,-0.4814,-0.5039,-0.4369,-0.3473,0.3687,0.5375,0.6865,0.7367,0.8856,1.0212,1.0962,1.207,1.2952,1.3404,1.3397,1.3535,1.4129,0.0,0.0,0.0,0.0,1.3314,0.0,0.0,1.34,1.4038,1.3499,1.313,1.2832,1.1724,1.0611,0.9405,0.7748,0.6022,0.4411,0.3104,0.0901,-0.2016,-0.3224,0.0,-0.613,0.0,-0.7955,0.0,0.0,0.0,0.0,-1.83,-1.98,-2.0598,-2.0532,-2.0529,-2.0439,0.0,-1.9478,0.0,0.0,0.0,0.0,0.0,0.0,0.0,0.0,0.0,0.0,0.0,0.0,0.0,-1.7232,0.0,-1.6599,0.0,0.0,0.0,0.0,0.0,0.0,0.0,0.0,0.0,0.0,0.0,0.0,0.0,0.0,0.0,0.0,0.0,0.0,0.0,0.0,-1.6621,-1.7676,-1.7616,-1.7463,-1.736,-1.6852,-1.5956,-1.4752,-1.4327,-1.3521,-1.2323,-1.1546,-1.0891,-1.0021,-0.8689,-0.7584,-0.6813,-0.6144,-0.559,-0.5033,-0.459,-0.4369,-0.4367,-0.4475,-0.4365,-0.4147,-0.3585,-0.3135,-0.291,0.3792,0.5676,0.7287,0.765,0.8935,1.0288,1.1477,1.2799,1.3753,1.397,0.0,0.0,1.4768,1.4574,0.0,0.0,1.3761,1.3635,0.0,0.0,1.3822,1.4894,1.4504,0.0,0.0,1.3087,1.198,1.0351,0.8773,0.6964,0.4966,0.3587,0.1334,-0.1627,0.0,-0.4451,-0.6354,0.0,-0.7726,-0.9611,-0.9942,-1.1393,-1.3716,-1.68,-1.8468,-1.8991,-1.8822,-1.8959,-1.9248,-1.9165,-1.862,0.0,-1.9465,0.0,0.0,0.0,0.0,0.0,-1.795,0.0,0.0,0.0,0.0,0.0,0.0,0.0,0.0,0.0,0.0,0.0,0.0,0.0,-1.6506,-1.6254,0.0,0.0,0.0,0.0,0.0,0.0,0.0,0.0,0.0,0.0,0.0,-1.781,-1.6571,-1.6371,-1.775,-1.8023,-1.7879,-1.7138,-1.6834,-1.5668,-1.3614,-1.3295,-1.2649,-1.1568,-1.0351,-0.9688,-0.9361,-0.7252,-0.5922,-0.5258,-0.4479,-0.3811,-0.3365,-0.3475,-0.3475,-0.3365,-0.3139,-0.3251,-0.3587,-0.2464,-0.2126,-0.2013,0.4849,0.5828,0.6861,0.7934,0.8641,0.9599,1.1156,0.0,0.0,0.0,0.0,0.0,0.0,0.0,0.0,0.0,0.0,1.3022,1.3022,0.0,1.3541,1.3087,1.4959,1.505,0.0,0.0,1.3419,1.2242,1.0178,0.8074,0.5943,0.4704,0.2562,-0.0335,-0.1419,-0.3043,-0.5162,-0.6172,-0.8065,-1.0381,-1.0381,-1.1549,-1.3563,0.0,-1.6808,-1.7221,-1.7558,0.0,0.0,-1.8155,-1.8139,0.0,0.0,0.0,0.0,0.0,0.0,0.0,0.0,0.0,0.0,-1.6706,0.0,0.0,0.0,0.0,-1.5996,0.0,0.0,0.0,0.0,0.0,-1.5975,-1.5087,-1.594,0.0,0.0,0.0,0.0,0.0,0.0,0.0,0.0,0.0,0.0,-1.6296,-1.5284,-1.5771,-1.8571,-1.8767,-1.8292,-1.7114,-1.605,-1.4776,-1.329,-1.2214,-1.1678,-1.1568,-1.0351,-0.9688,-0.9361,-0.8134,-0.6581,-0.492,-0.5258,-0.4369,-0.2693,-0.3027,-0.2915,-0.2693,-0.2693,-0.2917,-0.3025,-0.2128,-0.1231,-0.0336,0.4288,0.5692,0.6972,0.0,0.0,0.0,0.0,1.331,0.0,0.0,0.0,0.0,0.0,0.0,1.4171,0.0,0.0,1.4013,1.4428,1.4281,0.0,0.0,0.0,1.5556,0.0,0.0,0.0,0.0,1.1133,0.9291,0.7176,0.5924,0.4048,0.1543,-0.0168,-0.25,0.0,0.0,0.0,0.0,0.0,-1.0728,-1.207,0.0,0.0,-1.5967,-1.661,-1.7158,0.0,-1.7686,-1.7877,-1.8097,-1.8824,-1.9032,-1.9003,-1.9225,-1.9687,0.0,0.0,0.0,-2.0173,-1.7586,0.0,0.0,0.0,0.0,0.0,0.0,0.0,0.0,0.0,-1.542,-1.5393,-1.572,-1.5761,-1.5854,0.0,0.0,0.0,0.0,0.0,0.0,0.0,0.0,0.0,-1.6216,-1.6006,-1.6668,-1.8723,-1.8994,-1.831,-1.6393,-1.5743,-1.4352,-1.2214,-1.1564,-1.0798,-0.9801,-0.8579,-0.7584,-0.6702,-0.5477,-0.4475,-0.3695,-0.3807,-0.3474,-0.2693,-0.2806,-0.2806,-0.2693,-0.2469,-0.258,-0.2691,-0.1792,-0.1456,-0.1232,0.4257,0.5728,0.0,0.0,0.0,0.0,0.0,0.0,0.0,0.0,1.4258,0.0,1.3818,0.0,1.3977,0.0,1.413,1.4388,1.5134,1.4766,0.0,1.6109,1.5777,0.0,0.0,0.0,0.0,0.0,0.0,0.9899,0.7793,0.6583,0.4793,0.2513,0.1274,-0.1439,-0.523,0.0,-0.7579,0.0,0.0,-1.0208,0.0,0.0,-1.3291,-1.4129,0.0,-1.5922,-1.6491,-1.7003,-1.7416,-1.7874,-1.8921,-1.9051,-1.8904,-1.9626,-1.9912,-1.9913,-1.9479,-2.0355,0.0,-1.8221,-1.8391,0.0,-1.5931,0.0,0.0,0.0,0.0,0.0,0.0,0.0,-1.4852,-1.5203,-1.501,-1.5137,0.0,-1.497,0.0,0.0,0.0,0.0,0.0,0.0,-1.5021,-1.6309,-1.6497,-1.7028,0.0,0.0,-1.7779,-1.5749,-1.4995,-1.3604,-1.1459,-1.1126,-1.0249,-0.892,-0.7695,-0.6478,-0.5371,-0.4033,-0.325,-0.2915,-0.2915,-0.2691,-0.2357,-0.2469,-0.2469,-0.2356,-0.2132,-0.2244,-0.2356,-0.1457,-0.1344,-0.1344,0.0,0.0,0.0,0.0,0.9516,0.0,0.0,0.0,1.4201,0.0,1.3825,1.3745,1.3302,1.3212,1.3369,1.3889,1.3668,0.0,1.5072,1.4902,0.0,0.0,1.4944,1.4458,1.2443,0.0,0.0,0.0,0.0,0.0,0.7971,0.6675,0.4946,0.2867,0.2865,0.0,-0.4981,-0.4725,-0.7118,-1.0864,-1.0088,-0.9989,-1.0552,-1.0638,-1.1089,-1.1838,-1.3305,-1.4369,-1.5189,-1.6031,-1.6755,-1.7541,-1.8354,-1.909,-1.9769,-2.0407,-2.0881,-2.1078,-1.9929,-1.9992,-2.0048,-1.8606,0.0,0.0,0.0,0.0,-1.6447,0.0,0.0,0.0,0.0,0.0,-1.4145,-1.3534,-1.3758,-1.3957,-1.3957,-1.3294,0.0,0.0,0.0,0.0,0.0,0.0,-1.3815,-1.6342,-1.6636,0.0,0.0,0.0,-1.6903,-1.5417,-1.4035,-1.2644,-1.1126,-1.0798,-1.0025,-0.8809,-0.7584,-0.6475,-0.526,-0.3808,-0.2915,-0.2693,-0.2693,-0.2356,-0.1795,-0.202,-0.202,-0.1795,-0.1795,-0.202,-0.2132,-0.1346,-0.1009,-0.1119,0.3866,0.5647,0.7567,0.0,1.0071,1.1087,0.0,0.0,0.0,0.0,1.2586,1.2439,1.1545,1.1614,1.2005,1.2846,1.2989,0.0,0.0,0.0,0.0,1.4111,1.424,1.3769,1.2674,1.386,0.0,1.2705,0.0,0.0,1.0077,0.7552,0.5515,0.4078,0.0,0.0,-0.448,-0.4411,-0.6629,-1.0229,-1.0026,-0.963,0.0,0.0,-1.0173,-1.0085,-1.2248,-1.3395,-1.394,-1.4763,-1.5561,-1.6312,-1.7437,-1.8081,-1.8513,-1.9229,-1.9855,-2.0395,-2.0323,-2.0793,-2.0965,-1.9577,-1.93,-1.9016,0.0,0.0,0.0,0.0,0.0,0.0,0.0,0.0,0.0,-1.3167,-1.3461,-1.3789,-1.3957,0.0,0.0,-1.2705,0.0,0.0,0.0,0.0,-1.3856,-1.5805,-1.5744,0.0,0.0,0.0,0.0,-1.5737,-1.4148,-1.2753,-1.1459,-1.0911,-0.9691,-0.7584,-0.7025,-0.5693,-0.3696,-0.3027,-0.258,-0.2356,-0.2356,-0.2132,-0.1795,-0.1907,-0.1907,-0.1795,-0.1795,-0.2132,-0.258,-0.2578,-0.2464,-0.2236,0.3281,0.0,0.0,0.9518,0.0,0.0,1.1922,0.0,0.0,1.1781,1.1929,0.0,1.1111,1.1111,1.1377,1.2132,1.246,0.0,0.0,0.0,0.0,1.3492,1.3029,1.2583,1.2077,1.276,0.0,1.21,0.0,0.0,0.9826,0.7735,0.5891,0.4472,0.0,0.0969,-0.3457,-0.5678,-0.7532,-0.9128,-0.9976,0.0,0.0,-0.9932,-1.0035,-0.9961,-1.1461,-1.2272,-1.2796,-1.3722,-1.4467,-1.5205,-1.6642,-1.7196,-1.7534,-1.8417,-1.9042,-1.9459,-1.9932,-2.0571,-2.0952,-2.0333,-2.0079,-1.9791,-1.8633,-1.8528,-1.859,0.0,0.0,0.0,0.0,0.0,0.0,-1.2119,-1.226,0.0,0.0,0.0,0.0,0.0,0.0,0.0,0.0,0.0,0.0,0.0,0.0,0.0,0.0,0.0,0.0,-1.499,-1.2991,-1.1818,-1.1564,-1.0534,-0.9005,-0.6914,-0.68,-0.5359,-0.2915,-0.258,-0.2356,-0.2244,-0.2578,-0.2689,-0.2577,-0.3135,-0.3358,-0.3356,-0.3441,-0.3765,-0.4205,-0.4496,-0.4394,-0.4084,0.0,0.0,0.0,0.0,0.0,0.0,0.0,1.207,0.0,1.095,0.0,1.1403,1.0875,1.0726,1.0901,1.1609,0.0,1.2247,1.2857,1.2426,1.2264,1.2517,1.1578,1.1123,1.1154,1.1241,0.0,0.0,0.0,0.0,0.8455,0.7421,0.5937,0.4263,0.0,0.0,0.0,-0.7313,-0.8914,-0.8361,-0.9921,-1.0343,-0.9986,-1.0095,-1.0308,-1.0641,-1.0916,-1.1257,-1.1757,-1.2857,-1.3542,-1.4179,-1.5808,-1.6322,-1.6653,-1.7706,-1.8156,-1.8481,-1.9117,-1.9737,-2.0272,-2.065,-2.0639,-2.0286,-1.98,-1.9557,-1.9187,-1.8542,-1.8486,-1.8533,0.0,0.0,0.0,-1.1104,0.0,0.0,0.0,0.0,0.0,0.0,0.0,0.0,0.0,0.0,0.0,0.0,0.0,0.0,0.0,0.0,0.0,-1.3854,-1.1472,-1.0563,-1.1381,0.0,-0.821,-0.6536,-0.6342,-0.5027,-0.2581,-0.2468,-0.2355,-0.2467,-0.3358,-0.3802,-0.3914,-0.4905,-0.5447,-0.5537,-0.5778,-0.607,-0.6383,-0.6893,-0.6915,-0.6677,0.0,0.0,0.0,0.0,0.0,0.7287,0.7821,0.9643,1.0484,0.9044,0.9125,0.8908,0.7999,0.8223,0.8917,1.0106,1.061,0.0,0.0,0.0,0.0,1.1549,1.0516,1.0032,1.0207,1.0814,1.0888,0.0,0.0,0.0,0.8417,0.6502,0.5168,0.4331,0.0,0.0,-0.4329,-0.6754,0.0,-0.9822,-0.9656,-0.9705,-1.007,-1.0338,-1.0433,-1.0467,-1.1068,-1.1165,-1.1262,-1.2015,-1.2528,-1.313,-1.42,-1.5056,-1.5792,-1.6638,-1.7342,-1.7855,-1.8308,-1.8754,-1.9185,-1.955,-1.9635,-1.9686,-2.0052,-2.0266,-2.0214,-1.972,-1.9944,-1.9562,-1.7384,0.0,0.0,0.0,0.0,0.0,0.0,0.0,0.0,0.0,0.0,0.0,0.0,0.0,0.0,0.0,0.0,0.0,0.0,0.0,0.0,0.0,-1.2323,0.0,0.0,0.0,-0.7542,-0.5358,-0.4739,-0.3691,-0.2356,-0.3025,-0.3358,-0.347,-0.4582,-0.5139,-0.5133,-0.5174,-0.5528,-0.6081,-0.71,-0.7719,-0.8128,-0.9097,-1.0163,-1.1001,0.0,0.0,0.0,0.0,0.0,0.0,0.0,0.6013,0.0,0.7351,0.774,0.7897,0.7672,0.7609,0.8223,0.9593,0.9545,0.9818,1.0812,1.0132,0.957,0.9372,0.8817,0.0,0.8406,0.8479,0.903,1.0277,0.0,0.0,0.8547,0.6592,0.4941,0.3441,0.0,-0.23,0.0,0.0,0.0,-1.0293,-1.0763,-1.0828,-1.074,-1.0849,-1.0895,-1.0895,-1.1585,-1.1929,-1.2015,-1.1929,-1.21,-1.2528,-1.3457,-1.4216,-1.4922,-1.5745,-1.6468,-1.7139,-1.7762,-1.8115,-1.8454,-1.8821,-1.8641,-1.8514,-1.896,-1.9125,-1.9151,-1.906,-1.9389,-1.892,-1.6359,-1.4422,0.0,0.0,0.0,0.0,0.0,0.0,0.0,0.0,0.0,0.0,0.0,0.0,0.0,0.0,0.0,0.0,0.0,0.0,0.0,0.0,0.0,0.0,0.0,0.0,0.0,-0.5307,-0.4428,-0.3488,-0.2839,-0.3273,-0.3707,-0.4356,-0.5547,-0.6303,-0.6724,-0.7633,-0.8611,-0.9549,-1.0272,-1.1226,-1.2184,-1.2959,-1.3937,-1.47,0.0,0.3511,0.0,0.0,0.3643,0.0,0.2311,0.2321,0.3182,0.5348,0.6276,0.6816,0.7046,0.6988,0.746,0.8751,0.8295,0.8291,0.9082,0.8387,0.768,0.7033,0.7083,0.6925,0.6468,0.5872,0.6637,0.0,0.0,0.0,0.0,0.5937,0.3967,0.0,0.0,0.0,0.0,0.0,-1.1134,-1.1107,-1.1997,-1.2009,-1.1488,-1.166,-1.1574,-1.158,-1.2443,-1.2948,-1.3105,-1.2351,-1.2351,-1.2693,-1.3451,-1.3964,-1.4559,-1.5311,-1.5899,-1.6456,-1.7231,-1.7562,-1.7895,-1.8181,-1.7841,-1.7518,-1.7676,-1.7801,-1.7803,-1.7706,-1.7978,-1.7469,-1.5301,-1.4751,0.0,0.0,0.0,0.0,0.0,0.0,0.0,0.0,0.0,0.0,0.0,0.0,0.0,0.0,0.0,0.0,0.0,0.0,0.0,0.0,0.0,-0.9492,-0.9549,0.0,-0.6458,-0.5455,-0.4548,-0.3932,-0.3511,-0.3828,-0.4567,-0.5411,-0.6785,-0.7919,-0.8913,-1.0887,-1.2292,-1.3217,-1.39,-1.4958,-1.6348,-1.7309,-1.8125,-1.8632,0.0,0.0,0.0,0.0,0.0,0.0,0.0,-0.039,0.0,0.2571,0.3902,0.4535,0.4226,0.4618,0.5389,0.6454,0.6454,0.6765,0.754,0.6857,0.6146,0.5551,0.5502,0.5208,0.4549,0.4302,0.4042,0.0,0.0,0.0,0.0,0.2934,0.0,0.0,0.0,0.0,0.0,-1.0819,-1.2075,-1.3522,-1.2498,-1.2072,-1.2242,-1.2674,-1.2589,-1.2328,-1.3275,-1.3795,-1.3964,-1.362,-1.3964,-1.4482,-1.4566,-1.4894,-1.5401,-1.5914,-1.6087,-1.6252,-1.6696,-1.6942,-1.7269,-1.7636,-1.7641,-1.7552,-1.7336,-1.743,-1.719,-1.5938,-1.5854,-1.5622,-1.4046,-1.411,-1.3995,0.0,0.0,0.0,0.0,0.0,0.0,0.0,0.0,0.0,0.0,0.0,0.0,0.0,0.0,0.0,0.0,0.0,0.0,-0.8921,0.0,-0.7415,-0.6301,-0.7024,-0.6771,-0.5464,-0.5018,-0.4567,-0.4039,-0.5624,-0.6574,-0.6992,-0.8685,-1.0248,-1.1883,-1.3661,-1.4607,-1.5045,-1.7238,-1.8341,-1.8959,-2.1733,-2.2926,-2.3533,0.0,0.0,0.0,0.0,0.0,0.0,0.0,-0.3958,-0.3182,-0.2169,0.0156,0.18,0.2036,0.2425,0.32,0.4588,0.3964,0.3883,0.4953,0.3643,0.2647,0.212,0.1911,0.1375,0.0576,0.0,-0.025,0.0,0.0,0.0,0.0,0.0,0.0,0.0,0.0,-1.1768,-1.2732,-1.4165,-1.5107,-1.553,-1.4448,-1.4112,-1.4196,-1.4371,-1.4287,-1.428,-1.5199,-1.5779,-1.6116,-1.6265,-1.5365,-1.43,-1.4461,-1.4803,-1.5311,-1.5891,-1.6468,-1.6886,-1.6894,-1.7212,-1.7416,-1.7153,-1.7028,-1.6976,-1.6615,-1.6792,-1.6837,-1.6067,-1.5896,-1.5687,-1.5082,-1.4401,-1.3943,0.0,0.0,0.0,0.0,0.0,0.0,0.0,0.0,0.0,0.0,0.0,0.0,0.0,0.0,0.0,0.0,0.0,0.0,-0.715,0.0,-0.7712,-0.615,-0.6363,-0.6392,-0.6037,-0.5205,-0.5037,-0.5551,-0.6669,-0.8282,-1.0083,-1.1202,-1.2904,-1.4796,-1.596,-1.7717,-1.9779,-2.036,-2.1664,-2.3337,-2.4277,-2.507,-2.6023,-0.5812,0.0,-0.4893,0.0,-0.5987,-0.6152,-0.7884,-0.711,-0.6179,-0.6103,-0.3947,-0.1865,-0.0234,0.0312,0.1011,0.2171,0.1164,0.0853,0.178,0.0155,-0.1006,-0.1396,-0.1652,0.0,-0.3356,-0.3984,-0.4317,-0.4499,-0.3663,0.0,0.0,0.0,0.0,0.0,-1.4379,-1.574,-1.5682,-1.7376,-1.7937,-1.756,-1.6911,-1.6503,-1.6265,-1.6191,-1.6116,-1.6034,-1.6838,-1.7261,-1.7513,-1.823,-1.7074,-1.5365,-1.5448,-1.5621,-1.5876,-1.6453,-1.6944,-1.744,-1.7529,-1.7781,-1.7853,-1.7131,-1.6976,-1.6812,-1.6079,-1.6331,-1.6584,-1.6246,-1.6088,-1.6053,-1.6045,-1.5238,-1.4669,-1.5307,0.0,0.0,0.0,0.0,0.0,0.0,0.0,-1.2736,-1.2632,0.0,0.0,0.0,0.0,0.0,0.0,0.0,0.0,0.0,0.0,0.0,0.0,-0.6592,-0.6816,-0.6836,-0.6129,-0.6229,-0.703,-0.8396,-1.0347,-1.2684,-1.4214,-1.5912,-1.7622,-1.8651,-2.0597,-2.3002,-2.3063,-2.4346,-2.6233,-2.6868,-2.7566,-2.8395,-0.8552,-0.6843,-0.6225,-0.898,-0.8458,-0.8143,-0.9579,-0.9435,-0.8985,-0.8604,-0.8378,-0.6771,-0.2868,-0.1705,-0.1162,-0.1162,-0.178,-0.2089,-0.186,-0.3317,-0.4399,0.0,0.0,-0.5452,-0.6691,-0.7021,-0.7786,-0.91,0.0,0.0,-1.0964,0.0,-1.386,-1.5027,-1.7414,-1.8963,-1.974,-1.9974,-1.9984,-1.975,-1.9496,-1.9016,-1.8461,-1.8098,-1.7713,-1.7382,-1.8017,-1.7883,-1.7594,-1.9088,-1.9186,-1.8576,-1.8112,-1.77,-1.744,-1.787,-1.77,-1.7602,-1.8416,-1.8656,-1.8505,-1.7853,-1.77,-1.7286,-1.5726,-1.5899,-1.6312,-1.6139,-1.6163,-1.6234,-1.6475,-1.6726,-1.6578,-1.5662,0.0,0.0,0.0,0.0,0.0,0.0,-1.3616,-1.3459,-1.4025,0.0,0.0,0.0,0.0,0.0,0.0,0.0,0.0,-0.7289,-0.7006,0.0,-0.6141,-0.7848,-0.8531,-0.7939,-0.7939,-0.8131,-0.8513,-1.103,-1.2956,-1.4386,-1.7587,-1.9477,-2.039,-2.1807,-2.2889,-2.3641,-2.5283,-2.6151,-2.6783,-3.0011,-3.1048,-3.1142,-1.2264,-1.1633,-1.1321,-1.2078,-1.2191,-1.2237,-1.2622,-1.2739,-1.2652,-1.229,-1.1926,-1.1162,-0.9865,-0.7187,-0.5387,0.0,-0.5762,-0.6218,0.0,-0.7996,-0.904,-0.9134,-1.0194,-1.0961,-1.1409,-1.1624,-1.2627,-1.449,0.0,0.0,0.0,-1.6847,-1.8373,-2.0012,-2.1691,-2.227,-2.2096,-2.2882,-2.2794,-2.22,-2.1901,-2.1242,-2.0439,-2.0372,-2.0071,-1.9759,-2.0256,-2.0411,-2.0488,-2.1211,-2.1385,-2.1155,-2.0527,-1.9816,-1.9186,-1.9719,-2.01,-2.0178,-1.9659,-1.9737,-1.9659,-1.8647,-1.8416,-1.8095,-1.7204,-1.6886,-1.6968,-1.7123,-1.681,-1.6648,-1.6881,-1.6468,-1.6077,-1.6033,-1.6223,0.0,0.0,0.0,0.0,0.0,-1.313,-1.2808,0.0,-1.1359,0.0,0.0,0.0,0.0,0.0,0.0,0.0,0.0,-0.7434,0.0,-0.6429,-0.7838,-0.8718,-0.9118,-0.9418,-1.0391,-1.192,-1.3402,-1.5376,-1.7827,-1.9635,-2.1541,-2.3433,-2.3956,-2.5489,-2.7613,-2.8004,-2.8783,-2.9931,-3.0902,-3.1395,-3.1768,-1.535,-1.5138,-1.4988,-1.4791,-1.4901,-1.5168,-1.5581,-1.5687,-1.5739,-1.5652,-1.5295,-1.4944,-1.4795,-1.2518,0.0,-0.9426,-0.9675,-0.9983,-1.0188,-1.1939,-1.2748,-1.2315,-1.3964,-1.4899,-1.4849,0.0,0.0,-1.8301,-1.7123,-1.7474,-1.9261,-2.0577,-2.1742,-2.2771,-2.3941,-2.4232,-2.3803,-2.4434,-2.436,-2.3781,-2.3571,-2.3007,-2.2324,-2.2024,-2.1805,-2.1586,-2.1983,-2.2045,-2.2045,-2.2534,-2.2628,-2.2411,-2.2099,-2.1639,-2.11,-2.1024,-2.1354,-2.1593,-2.0914,-2.0991,-2.0904,-1.9659,-1.9353,-1.9195,-1.8336,-1.77,-1.7456,-1.7861,-1.7375,-1.6894,-1.7139,-1.673,-1.6389,-1.6598,-1.6637,-1.6622,-1.641,0.0,0.0,0.0,0.0,0.0,0.0,-1.2354,0.0,0.0,0.0,0.0,0.0,0.0,0.0,-0.8642,-0.9364,0.0,-0.8153,-0.9233,-1.0083,-1.0485,-1.1361,-1.2603,-1.41,-1.5638,-1.7781,-2.0492,-2.1822,-2.3598,-2.5647,-2.6119,-2.7665,-2.9681,-2.9675,-3.0483,-3.1605,-3.1883,-3.2235,-3.2617,-1.7746,-1.7532,0.0,0.0,-1.6917,0.0,-1.8419,-1.8398,-1.8368,-1.8812,-1.8415,-1.8014,-1.7793,-1.7484,-1.6336,-1.3861,0.0,0.0,0.0,-1.5295,-1.5809,-1.4717,-1.6637,-1.7656,-1.7408,-1.8716,-1.9841,-2.0613,-2.2111,-2.2754,-2.2575,-2.3658,-2.4045,-2.3811,-2.4607,-2.4976,-2.4925,-2.5014,-2.4887,-2.4695,-2.4695,-2.4424,-2.4087,-2.3304,-2.2948,-2.296,-2.316,-2.3003,-2.2712,-2.3195,-2.3152,-2.2873,-2.3018,-2.323,-2.315,-2.1829,-2.1662,-2.1964,-2.2071,-2.2232,-2.206,-2.0804,-2.0507,-2.0236,-1.9292,-1.8425,-1.7942,-1.8353,-1.7789,-1.7302,-1.7473,-1.7554,-1.7473,-1.7473,-1.7448,-1.7107,-1.6206,0.0,0.0,0.0,0.0,0.0,0.0,-1.4307,-1.4467,0.0,0.0,0.0,0.0,0.0,-1.0296,-1.1317,-1.2216,-1.2114,-1.0937,-1.1808,-1.22,-1.2119,-1.3628,-1.4728,-1.5304,-1.7792,-2.0181,-2.2492,-2.4257,-2.582,-2.7195,-2.8437,-2.9439,-3.0197,-3.069,-3.1302,-3.2063,-3.3077,-3.3547,-3.3738,0.0,0.0,-1.9619,-1.9228,-1.9609,-2.0114,-2.0768,-2.1065,-2.1339,-2.1651,-2.1342,-2.1042,-2.0728,-2.04,-2.0292,-2.0369,-1.8095,-1.7069,-1.8019,-1.9013,-1.962,-1.9662,-2.121,-2.1812,-2.1369,-2.2128,-2.2633,-2.2815,-2.4092,-2.4616,-2.4313,-2.4874,-2.5256,-2.5415,-2.6311,-2.659,-2.6383,-2.7076,-2.7197,-2.6886,-2.6411,-2.599,-2.57,-2.5014,-2.4528,-2.436,-2.4632,-2.4747,-2.4811,-2.5115,-2.5178,-2.5102,-2.4963,-2.5102,-2.5039,-2.3917,-2.3349,-2.3098,-2.2684,-2.2288,-2.1756,-2.103,-2.0749,-2.0552,-2.0198,-1.965,-1.9107,-1.8913,-1.8674,-1.8594,-1.8825,-1.8754,-1.8603,-1.8603,-1.8347,-1.783,-1.7033,-1.6785,0.0,0.0,-1.4981,-1.5013,-1.5771,-1.5437,-1.5198,0.0,0.0,0.0,0.0,-1.3881,-1.3148,-1.318,-1.2647,-1.2188,-1.1641,-1.2194,-1.3031,-1.3972,-1.5667,-1.7168,-1.8548,-2.0398,-2.2595,-2.519,-2.6686,-2.8095,-2.9326,-3.023,-3.1144,-3.1967,-3.2486,-3.2982,-3.3531,-3.4052,-3.4399,-3.4704,-2.231,-2.2262,-2.2153,-2.1836,-2.2116,-2.2492,-2.2934,-2.3056,-2.3285,-2.3599,-2.3259,-2.3034,-2.2962,-2.284,-2.3039,-2.3882,-2.1295,-2.0006,-2.1058,-2.1836,-2.2274,-2.2298,-2.3767,-2.4336,-2.3767,-2.4563,-2.5038,-2.5038,-2.5875,-2.6026,-2.5645,-2.6269,-2.6549,-2.6472,-2.7185,-2.7398,-2.7336,-2.7749,-2.7896,-2.7665,-2.7102,-2.6736,-2.6539,-2.5963,-2.5625,-2.552,-2.567,-2.5788,-2.5976,-2.5877,-2.5935,-2.5949,-2.5734,-2.5747,-2.5761,-2.5316,-2.4782,-2.4165,-2.3586,-2.3278,-2.2887,-2.1931,-2.1349,-2.1021,-2.0905,-2.0577,-2.0262,-2.0052,-1.983,-1.9728,-1.9806,-1.9875,-1.9797,-1.9599,-1.9303,-1.8794,-1.7907,-1.7632,0.0,-1.7192,-1.7046,-1.7142,-1.7768,-1.7482,-1.7022,-1.6183,0.0,0.0,-1.5836,-1.5423,-1.4856,-1.4116,-1.3964,-1.3622,-1.3018,-1.443,-1.5404,-1.5937,-1.8081,-1.9762,-2.1071,-2.2718,-2.4894,-2.7356,-2.8492,-2.9743,-3.0908,-3.1788,-3.2555,-3.3203,-3.3483,-3.3987,-3.4513,-3.4691,-3.4977,-3.527,-2.4761,-2.4718,-2.4563,-2.4393,-2.4292,-2.4363,-2.4829,-2.4743,-2.477,-2.5245,-2.484,-2.467,-2.4995,-2.4983,-2.5204,-2.5788,-2.383,-2.2874,-2.3476,-2.4125,-2.4353,-2.3945,-2.5355,-2.5952,-2.5423,-2.6462,-2.7071,-2.7108,-2.7384,-2.7282,-2.6849,-2.7585,-2.77,-2.7312,-2.7735,-2.7981,-2.7997,-2.7966,-2.7917,-2.7868,-2.7434,-2.7246,-2.7181,-2.6782,-2.6573,-2.6573,-2.6587,-2.6692,-2.6692,-2.6293,-2.6293,-2.6414,-2.6187,-2.6172,-2.6226,-2.6481,-2.6047,-2.538,-2.4621,-2.4405,-2.4174,-2.3179,-2.2343,-2.1831,-2.1771,-2.1577,-2.1415,-2.1343,-2.092,-2.0599,-2.0735,-2.0954,-2.103,-2.0554,-2.0377,-1.992,-1.8938,0.0,-1.8822,-1.9108,-1.9535,-1.986,-1.9877,-1.9915,-1.9358,-1.8009,-1.7929,-1.7677,-1.7111,-1.7043,-1.6397,-1.517,-1.5708,-1.5634,-1.4845,-1.7219,-1.8283,-1.7916,-2.0495,-2.2251,-2.3103,-2.4865,-2.6886,-2.9165,-2.9889,-3.0981,-3.2276,-3.3082,-3.3767,-3.4185,-3.4252,-3.4625,-3.5182,-3.5182,-3.5367,-3.5711,-2.6187,-2.6079,-2.5918,-2.5713,-2.5577,-2.57,-2.6269,-2.6414,-2.6678,-2.7122,-2.7129,-2.7172,-2.728,-2.7121,-2.7289,-2.7875,-2.7214,-2.6651,-2.6376,-2.639,-2.6457,-2.6695,-2.7187,-2.7405,-2.7289,-2.8128,-2.8685,-2.898,-2.881,-2.8607,-2.829,-2.8211,-2.8146,-2.8143,-2.8732,-2.881,-2.8481,-2.881,-2.8949,-2.8903,-2.8307,-2.8355,-2.8748,-2.8148,-2.7905,-2.7905,-2.7966,-2.7997,-2.7997,-2.7894,-2.7978,-2.8061,-2.776,-2.7825,-2.791,-2.76,-2.7401,-2.6934,-2.5254,-2.4256,-2.3669,-2.3829,-2.3753,-2.3675,-2.352,-2.2954,-2.2343,-2.1779,-2.1246,-2.1092,-2.1825,-2.1972,-2.1889,-2.1691,-2.1564,-2.1161,-2.0083,0.0,-2.0768,-2.075,-2.1385,-2.1805,-2.1793,-2.1803,-2.1501,-2.0834,-2.0757,-2.0498,-1.991,-1.9329,-1.8931,-1.8736,-1.7203,-1.6553,-1.6892,-1.8827,-1.9879,-2.0167,-2.2329,-2.3993,-2.5356,-2.6496,-2.8363,-3.0598,-3.1129,-3.2189,-3.363,-3.4366,-3.4835,-3.5135,-3.5287,-3.5424,-3.5532,-3.5532,-3.5711,-3.5932,-2.7393,-2.7306,-2.724,-2.7261,-2.7159,-2.7261,-2.7715,-2.77,-2.7715,-2.7845,-2.7932,-2.8033,-2.8179,-2.8418,-2.8748,-2.9239,-2.9118,-2.8919,-2.8607,-2.813,-2.7936,-2.8194,-2.8497,-2.8591,-2.8591,-2.8996,-2.9241,-2.9406,-2.948,-2.9374,-2.9057,-2.9313,-2.9374,-2.9225,-2.9673,-2.9805,-2.9629,-2.9805,-2.9892,-2.9848,-2.9374,-2.9374,-2.9569,-2.9041,-2.8856,-2.8856,-2.8888,-2.8888,-2.8904,-2.8889,-2.8919,-2.8966,-2.8795,-2.8732,-2.8653,-2.84,-2.7883,-2.7166,-2.6304,-2.5507,-2.4925,-2.5141,-2.4962,-2.4648,-2.4335,-2.4103,-2.3786,-2.3414,-2.3119,-2.3124,-2.3506,-2.3811,-2.3744,-2.3269,-2.3475,0.0,0.0,-2.3132,-2.3455,-2.3165,-2.3663,-2.3895,-2.3554,-2.3554,-2.325,-2.2573,-2.251,-2.2211,-2.1466,-2.1141,-2.1034,-2.1242,-1.9566,-1.8887,-1.9506,-2.1158,-2.2105,-2.2454,-2.4472,-2.5975,-2.6965,-2.8593,-3.0139,-3.1618,-3.2454,-3.3459,-3.4448,-3.4947,-3.5228,-3.5458,-3.5577,-3.5622,-3.5622,-3.5622,-3.5667,-3.58,-2.8301,-2.8268,-2.8235,-2.8525,-2.8477,-2.8431,-2.8764,-2.8748,-2.8654,-2.8654,-2.8685,-2.8856,-2.9041,-2.9448,-2.9816,-3.0199,-3.0215,-3.0162,-3.006,-2.9467,-2.9164,-2.9239,-2.9524,-2.9673,-2.9745,-2.9717,-2.9717,-2.9805,-3.014,-3.0097,-2.9761,-3.0326,-3.0426,-3.0156,-3.0493,-3.0634,-3.0634,-3.0699,-3.0699,-3.0699,-3.0418,-3.0335,-3.0293,-3.0005,-2.9859,-2.9859,-2.9832,-2.9805,-2.9789,-2.9613,-2.9629,-2.9673,-2.954,-2.9287,-2.909,-2.9182,-2.8575,-2.7754,-2.7434,-2.6902,-2.6442,-2.6376,-2.6087,-2.5685,-2.5329,-2.5252,-2.5226,-2.5017,-2.4927,-2.4957,-2.5099,-2.5423,-2.5423,-2.4785,0.0,0.0,0.0,-2.5174,-2.5451,-2.5436,-2.5672,-2.5746,-2.5451,-2.5475,-2.5157,-2.4518,-2.4447,-2.4149,-2.3441,-2.3369,-2.3514,-2.3853,-2.2243,-2.1611,-2.2114,-2.3509,-2.4376,-2.4803,-2.6493,-2.7775,-2.8652,-3.0288,-3.1504,-3.2485,-3.3403,-3.4201,-3.4899,-3.5105,-3.5367,-3.5622,-3.5622,-3.5622,-3.5622,-3.5622,-3.5622,-3.5622,-2.8951,-2.8716,-2.8622,-2.9152,-2.8904,-2.881,-2.9223,-2.9536,-2.9903,-3.0185,-3.0327,-3.0526,-3.0788,-3.046,-3.0393,-3.0814,-3.0443,-3.0205,-3.0189,-3.0284,-3.0251,-3.0038,-3.0293,-3.0543,-3.0885,-3.0716,-3.0773,-3.1055,-3.1112,-3.0975,-3.0773,-3.0871,-3.0733,-3.0468,-3.0885,-3.1044,-3.1083,-3.1244,-3.1321,-3.1321,-3.1321,-3.1283,-3.1283,-3.1266,-3.1227,-3.1227,-3.1027,-3.0988,-3.0908,-3.0327,-3.0302,-3.0402,-2.9924,-2.9661,-2.9633,-3.0,-3.0044,-2.9677,-2.84,-2.7715,-2.7399,-2.7232,-2.7181,-2.7129,-2.7115,-2.6553,-2.5994,-2.5994,-2.5535,-2.5354,-2.5887,-2.6256,-2.6228,-2.5768,0.0,0.0,-2.5421,-2.5203,-2.5568,-2.6826,-2.6958,-2.7182,-2.771,-2.7762,-2.7657,-2.73,-2.7392,-2.7233,-2.6943,-2.693,-2.6943,-2.6943,-2.5235,-2.4281,-2.4364,-2.5632,-2.6536,-2.7167,-2.8101,-2.931,-3.0675,-3.1174,-3.2114,-3.3382,-3.3503,-3.405,-3.4899,-3.4899,-3.5211,-3.5622,-3.5622,-3.5622,-3.5622,-3.5622,-3.5622,-3.5622,-2.9152,-2.9287,-2.9435,-2.9629,-2.9756,-2.994,-3.0352,-3.0551,-3.0673,-3.0697,-3.0811,-3.0925,-3.0965,-3.0918,-3.0918,-3.1072,-3.0831,-3.0568,-3.0401,-3.0804,-3.101,-3.0914,-3.1162,-3.1389,-3.1504,-3.1428,-3.1445,-3.1576,-3.1576,-3.1521,-3.1445,-3.1445,-3.1406,-3.1312,-3.1466,-3.1542,-3.1542,-3.1617,-3.1654,-3.1654,-3.1654,-3.1654,-3.1654,-3.1654,-3.1654,-3.1654,-3.1579,-3.1542,-3.1504,-3.1278,-3.1278,-3.1295,-3.1083,-3.0885,-3.0625,-3.0526,-3.0477,-3.0267,-2.9745,-2.921,-2.8717,-2.8496,-2.8319,-2.811,-2.7864,-2.7405,-2.7056,-2.6865,-2.6643,-2.6558,-2.6804,-2.6953,-2.6886,-2.6673,0.0,-2.7181,-2.6694,-2.7002,-2.7218,-2.7054,-2.7047,-2.7018,-2.687,-2.6897,-2.6934,-2.7006,-2.7404,-2.7669,-2.7755,-2.8348,-2.8666,-2.8666,-2.8268,-2.7578,-2.6809,-2.7604,-2.8424,-2.9122,-2.9742,-3.0601,-3.1675,-3.2391,-3.298,-3.3555,-3.4101,-3.4546,-3.4947,-3.5211,-3.5441,-3.5622,-3.5622,-3.5622,-3.5622,-3.5622,-3.5622,-3.5622,-2.9777,-3.0005,-3.0269,-3.041,-3.0558,-3.0841,-3.1223,-3.13,-3.13,-3.1359,-3.1393,-3.1355,-3.1257,-3.1291,-3.1286,-3.119,-3.1032,-3.0871,-3.0757,-3.13,-3.164,-3.1731,-3.1839,-3.1893,-3.1893,-3.1837,-3.18,-3.18,-3.18,-3.18,-3.18,-3.18,-3.18,-3.18,-3.1873,-3.1893,-3.191,-3.1946,-3.1982,-3.1982,-3.1982,-3.1982,-3.1982,-3.1982,-3.1982,-3.1982,-3.1982,-3.1982,-3.1982,-3.191,-3.1893,-3.1856,-3.1837,-3.1634,-3.1372,-3.0931,-3.0828,-3.0781,-3.0683,-3.0309,-2.9853,-2.9515,-2.9198,-2.8904,-2.8638,-2.8352,-2.8094,-2.7898,-2.7849,-2.7849,-2.7765,-2.7799,-2.7799,-2.7635,-2.7976,-2.8106,-2.7703,-2.7993,-2.8071,-2.7484,-2.7454,-2.7293,-2.6982,-2.6936,-2.7056,-2.7221,-2.7654,-2.813,-2.8488,-2.9137,-2.9545,-2.9545,-2.9826,-2.9691,-2.9083,-2.9425,-2.9922,-3.0585,-3.1057,-3.1762,-3.2555,-3.3298,-3.3694,-3.3848,-3.4594,-3.4947,-3.5041,-3.5367,-3.5532,-3.5622,-3.5622,-3.5622,-3.5622,-3.5622,-3.5622,-3.5622,-3.0801,-3.0897,-3.1072,-3.1528,-3.1355,-3.1223,-3.164,-3.1714,-3.1894,-3.2354,-3.2232,-3.2001,-3.1837,-3.1614,-3.144,-3.123,-3.1032,-3.1015,-3.1295,-3.175,-3.2109,-3.2388,-3.2196,-3.2108,-3.2108,-3.191,-3.18,-3.18,-3.18,-3.18,-3.18,-3.18,-3.18,-3.18,-3.2001,-3.2108,-3.2108,-3.2319,-3.2406,-3.2406,-3.2406,-3.2406,-3.2406,-3.2406,-3.2406,-3.2406,-3.2406,-3.2406,-3.2354,-3.2161,-3.2108,-3.209,-3.1873,-3.18,-3.1709,-3.1179,-3.1252,-3.1423,-3.11,-3.0878,-3.0609,-3.0274,-2.9913,-2.9617,-2.9617,-2.9335,-2.9121,-2.9121,-2.9121,-2.9029,-2.8732,-2.8936,-2.9029,-2.8732,-2.8463,-2.8288,-2.8288,-2.7849,-2.7703,-2.8345,-2.8368,-2.8477,-2.8606,-2.8608,-2.8623,-2.8708,-2.8722,-2.8961,-2.9579,-2.9633,-2.9633,-2.9633,-2.9633,-3.0096,-3.1182,-3.0921,-3.0984,-3.142,-3.1936,-3.2687,-3.3503,-3.3797,-3.4101,-3.4497,-3.4787,-3.5041,-3.5291,-3.5291,-3.5412,-3.5622,-3.5622,-3.5622,-3.5622,-3.5622,-3.5622,-3.5622,-3.1321,-3.1603,-3.1768,-3.1694,-3.1858,-3.2037,-3.2179,-3.2179,-3.2232,-3.2388,-3.2232,-3.209,-3.2018,-3.1837,-3.1726,-3.1691,-3.1654,-3.1711,-3.1985,-3.2003,-3.2162,-3.2523,-3.2422,-3.2371,-3.2319,-3.2249,-3.2214,-3.2214,-3.2214,-3.2214,-3.2214,-3.2267,-3.2284,-3.2284,-3.2404,-3.2438,-3.2472,-3.2506,-3.2557,-3.2557,-3.2557,-3.2557,-3.2557,-3.2557,-3.2557,-3.2523,-3.2507,-3.2473,-3.2439,-3.2354,-3.2319,-3.2319,-3.2249,-3.2214,-3.2214,-3.2037,-3.1965,-3.1893,-3.1802,-3.1617,-3.1312,-3.0576,-3.0199,-3.0,-3.0,-2.9913,-2.9886,-2.9886,-2.9886,-2.9738,-2.9409,-2.9409,-2.938,-2.9029,-2.892,-2.8716,-2.8352,-2.8143,-2.7974,-2.7769,-2.7748,-2.7823,-2.7965,-2.798,-2.8083,-2.842,-2.9012,-2.972,-3.0351,-3.0381,-3.0381,-3.0381,-3.0381,-3.0757,-3.161,-3.1256,-3.1686,-3.2873,-3.3049,-3.3382,-3.3899,-3.4,-3.4201,-3.4497,-3.4787,-3.5041,-3.5291,-3.5458,-3.5532,-3.5622,-3.5622,-3.5622,-3.5622,-3.5622,-3.5622,-3.5622,-3.1823,-3.2144,-3.2301,-3.2073,-3.2214,-3.2406,-3.2406,-3.2406,-3.2406,-3.2406,-3.2284,-3.2214,-3.2232,-3.2109,-3.2002,-3.1877,-3.1913,-3.202,-3.2162,-3.23,-3.2437,-3.269,-3.2623,-3.2574,-3.2473,-3.2473,-3.2473,-3.2473,-3.2473,-3.2473,-3.2473,-3.2523,-3.2557,-3.2557,-3.2573,-3.2606,-3.2606,-3.2606,-3.2606,-3.2606,-3.2606,-3.2606,-3.2606,-3.2606,-3.2606,-3.2606,-3.2523,-3.2507,-3.2507,-3.2422,-3.2406,-3.2406,-3.2406,-3.2406,-3.2388,-3.2319,-3.2196,-3.2108,-3.2108,-3.1929,-3.1709,-3.124,-3.0804,-3.051,-3.0401,-3.0274,-3.0189,-3.0189,-3.0189,-3.0146,-2.9984,-2.9968,-2.9837,-2.9544,-2.9499,-2.9319,-2.8842,-2.8748,-2.8654,-2.8319,-2.8319,-2.8255,-2.8079,-2.8094,-2.8128,-2.8288,-2.8931,-2.9463,-2.9884,-2.9899,-3.0024,-3.032,-3.032,-3.0888,-3.2065,-3.1857,-3.2322,-3.3503,-3.3503,-3.3694,-3.4101,-3.4201,-3.4349,-3.4497,-3.4899,-3.5152,-3.5291,-3.5503,-3.5622,-3.5622,-3.5622,-3.5622,-3.5622,-3.5622,-3.5622,-3.5622,-3.237,-3.2488,-3.2573,-3.2523,-3.2457,-3.2406,-3.2406,-3.2406,-3.2406,-3.2406,-3.2406,-3.2405,-3.2419,-3.2419,-3.2283,-3.1933,-3.1986,-3.2074,-3.2074,-3.2588,-3.2852,-3.2805,-3.2805,-3.2755,-3.2639,-3.2606,-3.2606,-3.2606,-3.2606,-3.2606,-3.2606,-3.2606,-3.2606,-3.2606,-3.2621,-3.2639,-3.2639,-3.2639,-3.2639,-3.2639,-3.2639,-3.2639,-3.2639,-3.2639,-3.2639,-3.2606,-3.2557,-3.2541,-3.2507,-3.2422,-3.2388,-3.2406,-3.2388,-3.2406,-3.2354,-3.2196,-3.2126,-3.2126,-3.2126,-3.2001,-3.191,-3.2037,-3.16,-3.1061,-3.0838,-3.0568,-3.0359,-3.0359,-3.0359,-3.0384,-3.0559,-3.0559,-3.0435,-3.0123,-3.0081,-2.9941,-2.9563,-2.9518,-2.9518,-2.9518,-2.9518,-2.9305,-2.8842,-2.8795,-2.8685,-2.8448,-2.8685,-2.8795,-2.8795,-2.8842,-2.9186,-2.9892,-2.9986,-3.0826,-3.2556,-3.2572,-3.2889,-3.3555,-3.3555,-3.3761,-3.4101,-3.4349,-3.4497,-3.4546,-3.4994,-3.5245,-3.5291,-3.5503,-3.5577,-3.5532,-3.5577,-3.5577,-3.5532,-3.5577,-3.5577,-3.5577,-3.2674,-3.2639,-3.2573,-3.2523,-3.2457,-3.2406,-3.2406,-3.2406,-3.2406,-3.2406,-3.2406,-3.2473,-3.2603,-3.2506,-3.2456,-3.2654,-3.2639,-3.2657,-3.2705,-3.2852,-3.2884,-3.2884,-3.2884,-3.2852,-3.2852,-3.2672,-3.2606,-3.2606,-3.2606,-3.2606,-3.2606,-3.269,-3.2773,-3.2773,-3.282,-3.2834,-3.2834,-3.2834,-3.2834,-3.2834,-3.2834,-3.2834,-3.2834,-3.2834,-3.2834,-3.282,-3.2773,-3.274,-3.2707,-3.2541,-3.2473,-3.2473,-3.2422,-3.2406,-3.2388,-3.2354,-3.2319,-3.2319,-3.2319,-3.2319,-3.2249,-3.2126,-3.2001,-3.1802,-3.1596,-3.1521,-3.1428,-3.1428,-3.1428,-3.1389,-3.1179,-3.0845,-3.046,-3.0166,-2.987,-2.9592,-2.9518,-2.9518,-2.9518,-2.9518,-2.9518,-2.9518,-2.9486,-2.9576,-2.9621,-2.9576,-2.9621,-2.9621,-2.9621,-3.0151,-3.0475,-3.0681,-3.1228,-3.1999,-3.2967,-3.2967,-3.3322,-3.3949,-3.3949,-3.4,-3.4101,-3.4151,-3.43,-3.4497,-3.4594,-3.4787,-3.4994,-3.5245,-3.5228,-3.5071,-3.5441,-3.5396,-3.5071,-3.5487,-3.5503,-3.5367,-3.269,-3.2639,-3.2573,-3.2473,-3.2422,-3.2406,-3.2406,-3.2406,-3.2422,-3.2523,-3.2557,-3.2639,-3.288,-3.2802,-3.2755,-3.2737,-3.2816,-3.2816,-3.2722,-3.2884,-3.2979,-3.2916,-3.2916,-3.2916,-3.2916,-3.282,-3.2737,-3.2737,-3.2737,-3.2737,-3.2737,-3.282,-3.2838,-3.287,-3.2884,-3.2916,-3.2916,-3.2916,-3.2916,-3.2916,-3.2916,-3.2916,-3.2916,-3.2916,-3.2916,-3.2884,-3.2805,-3.2773,-3.269,-3.2541,-3.2507,-3.2507,-3.2422,-3.2406,-3.2406,-3.2406,-3.2406,-3.2406,-3.2406,-3.2406,-3.2354,-3.2284,-3.2232,-3.2161,-3.1873,-3.18,-3.18,-3.18,-3.18,-3.18,-3.1691,-3.147,-3.1223,-3.0931,-3.069,-3.046,-3.0284,-3.0284,-3.0199,-3.0,-3.0,-2.993,-2.983,-2.9874,-2.9918,-2.9918,-3.0182,-3.0376,-3.0376,-3.1056,-3.1607,-3.1947,-3.2319,-3.2854,-3.3566,-3.3566,-3.3744,-3.4101,-3.4101,-3.4101,-3.4101,-3.4101,-3.4201,-3.43,-3.4448,-3.4594,-3.4756,-3.4994,-3.5041,-3.4947,-3.5165,-3.5118,-3.4947,-3.5165,-3.5182,-3.5135,-3.2639,-3.2606,-3.2539,-3.2457,-3.2406,-3.2406,-3.2406,-3.2406,-3.2473,-3.2669,-3.2669,-3.2784,-3.3117,-3.3178,-3.3055,-3.2719,-3.2876,-3.2844,-3.2623,-3.2948,-3.3104,-3.2948,-3.2979,-3.2979,-3.2979,-3.2948,-3.2916,-3.2916,-3.2916,-3.2916,-3.2916,-3.2916,-3.2916,-3.2916,-3.2916,-3.2916,-3.2916,-3.2916,-3.2916,-3.2916,-3.2916,-3.2916,-3.2916,-3.2916,-3.2916,-3.2884,-3.2838,-3.2755,-3.2639,-3.2557,-3.2523,-3.2489,-3.2422,-3.2406,-3.2406,-3.2406,-3.2406,-3.2406,-3.2406,-3.2406,-3.2406,-3.2406,-3.2406,-3.2319,-3.1982,-3.191,-3.191,-3.191,-3.191,-3.1946,-3.2126,-3.2073,-3.1948,-3.1731,-3.164,-3.149,-3.1162,-3.1044,-3.0868,-3.0559,-3.0435,-3.0258,-2.9946,-3.0016,-3.0053,-3.0053,-3.07,-3.1059,-3.1059,-3.1801,-3.2465,-3.3064,-3.3194,-3.3534,-3.4101,-3.4101,-3.4101,-3.4101,-3.4101,-3.4101,-3.4101,-3.4101,-3.4101,-3.4101,-3.4349,-3.4448,-3.4448,-3.4691,-3.4787,-3.4787,-3.4835,-3.4835,-3.4756,-3.4787,-3.4851,-3.4851,-3.274,-3.269,-3.2573,-3.2507,-3.2457,-3.2406,-3.2406,-3.2406,-3.2473,-3.2669,-3.2557,-3.2707,-3.3375,-3.3433,-3.3375,-3.3129,-3.3142,-3.3129,-3.3024,-3.3226,-3.3256,-3.3086,-3.3226,-3.3334,-3.3334,-3.3165,-3.3042,-3.2916,-3.2916,-3.2916,-3.2916,-3.2916,-3.2916,-3.2916,-3.2916,-3.2916,-3.2916,-3.2916,-3.2916,-3.2916,-3.2916,-3.2916,-3.2916,-3.2916,-3.2916,-3.2916,-3.2884,-3.2884,-3.2852,-3.2639,-3.2606,-3.2573,-3.2457,-3.2406,-3.2406,-3.2406,-3.2406,-3.2406,-3.2406,-3.2406,-3.2406,-3.2406,-3.2406,-3.2406,-3.2319,-3.2319,-3.2319,-3.2319,-3.2319,-3.2319,-3.2354,-3.202,-3.1731,-3.1714,-3.1414,-3.1162,-3.1123,-3.0804,-3.0559,-3.0518,-3.0172,-2.9946,-2.9918,-3.0425,-3.0781,-3.0781,-3.1445,-3.1866,-3.1866,-3.2546,-3.2983,-3.308,-3.3647,-3.4003,-3.4101,-3.4101,-3.4101,-3.4101,-3.4101,-3.4101,-3.4101,-3.4101,-3.4101,-3.4101,-3.4151,-3.4151,-3.4151,-3.4448,-3.4399,-3.425,-3.4691,-3.4611,-3.425,-3.4448,-3.4546,-3.4594,-3.269,-3.2623,-3.2523,-3.2457,-3.2422,-3.2406,-3.2406,-3.2406,-3.2473,-3.2669,-3.277,-3.2916,-3.3256,-3.3404,-3.3433,-3.322,-3.3397,-3.3455,-3.3286,-3.3404,-3.3433,-3.3256,-3.3364,-3.3393,-3.3393,-3.3304,-3.3196,-3.2993,-3.2948,-3.2916,-3.2916,-3.2916,-3.2916,-3.2916,-3.2916,-3.2916,-3.2916,-3.2916,-3.2916,-3.2916,-3.2916,-3.2916,-3.2916,-3.2916,-3.2916,-3.2916,-3.2916,-3.2916,-3.2884,-3.2755,-3.2722,-3.269,-3.2557,-3.2507,-3.2457,-3.2457,-3.2422,-3.2406,-3.2406,-3.2406,-3.2406,-3.2406,-3.2406,-3.2406,-3.2406,-3.2406,-3.2406,-3.2406,-3.2406,-3.2406,-3.2406,-3.2232,-3.2108,-3.2108,-3.1948,-3.1839,-3.1839,-3.147,-3.1122,-3.1065,-3.0691,-3.0619,-3.1024,-3.1348,-3.1526,-3.1526,-3.2206,-3.2611,-3.2611,-3.3275,-3.3647,-3.3647,-3.3939,-3.4101,-3.4101,-3.4101,-3.4101,-3.4101,-3.4101,-3.4101,-3.4101,-3.4101,-3.4101,-3.4101,-3.4101,-3.4101,-3.4101,-3.425,-3.4201,-3.4151,-3.4349,-3.43,-3.4101,-3.425,-3.43,-3.43]},{"header":{"parameterUnit":"m.s-1","parameterCategory":1,"la1":30.6,"la2":28.766,"lo1":-90.7593,"lo2":-88.6598,"dy":0.0162,"dx":0.0183,"nx":116,"ny":114,"refTime":"2023-08-25T12:00:00:Z","depth":0,"parameterNumber":3,"parameterNumberName":"V-component_of_WINDS"},"data":[0.0,0.0,0.0,0.0,0.0,0.0,0.0,0.0,0.0,0.0,0.0,0.0,0.0,0.0,0.0,0.0,0.0,0.0,0.0,0.0,0.0,0.0,0.0,0.0,0.0,0.0,0.0,0.0,0.0,0.0,0.0,0.0,0.0,0.0,0.0,0.0,0.0,0.0,0.0,0.0,0.0,0.0,0.0,0.0,0.0,0.0,0.0,0.0,0.0,0.0,0.0,0.0,0.0,0.0,0.0,0.0,0.0,0.0,0.0,0.0,0.0,0.0,0.0,0.0,0.0,0.0,0.0,0.0,0.0,0.0,0.0,0.0,0.0,0.0,0.0,0.0,0.0,0.0,0.0,0.0,0.0,0.0,0.0,0.0,0.0,0.0,0.0,0.0,0.0,0.0,0.0,0.0,0.0,0.0,0.0,0.0,0.0,0.0,0.0,0.0,0.0,0.0,0.0,0.0,0.0,0.0,0.0,0.0,0.0,0.0,0.0,0.0,0.0,0.0,0.0,0.0,0.0,0.0,0.0,0.0,0.0,0.0,0.0,0.0,0.0,0.0,0.0,0.0,0.0,0.0,0.0,0.0,0.0,0.0,0.0,0.0,0.0,0.0,0.0,0.0,0.0,0.0,0.0,0.0,0.0,0.0,0.0,0.0,0.0,0.0,0.0,0.0,0.0,0.0,0.0,0.0,0.0,0.0,0.0,0.0,0.0,0.0,0.0,0.0,0.0,0.0,0.0,0.0,0.0,0.0,0.0,0.0,0.0,0.0,0.0,0.0,0.0,0.0,0.0,0.0,0.0,0.0,0.0,0.0,0.0,0.0,0.0,0.0,0.0,0.0,0.0,0.0,0.0,0.0,0.0,0.0,0.0,0.0,0.0,0.0,0.0,0.0,0.0,0.0,0.0,0.0,0.0,0.0,0.0,0.0,0.0,0.0,0.0,0.0,0.0,0.0,0.0,0.0,0.0,0.0,0.0,0.0,0.0,0.0,0.0,0.0,0.0,0.0,0.0,0.0,0.0,0.0,0.0,0.0,0.0,0.0,0.0,0.0,0.0,0.0,0.0,0.0,0.0,0.0,0.0,0.0,0.0,0.0,0.0,0.0,0.0,0.0,0.0,0.0,0.0,0.0,0.0,0.0,0.0,0.0,0.0,0.0,0.0,0.0,0.0,0.0,0.0,0.0,0.0,0.0,0.0,0.0,0.0,0.0,0.0,0.0,0.0,0.0,0.0,0.0,0.0,0.0,0.0,0.0,0.0,0.0,0.0,0.0,0.0,0.0,0.0,0.0,0.0,0.0,0.0,0.0,0.0,0.0,0.0,0.0,0.0,0.0,0.0,0.0,0.0,0.0,0.0,0.0,0.0,0.0,0.0,0.0,0.0,0.0,0.0,0.0,0.0,0.0,0.0,0.0,0.0,0.0,0.0,0.0,0.0,0.0,0.0,0.0,0.0,0.0,0.0,0.0,0.0,0.0,0.0,0.0,0.0,0.0,0.0,0.0,0.0,0.0,0.0,0.0,0.0,0.0,0.0,0.0,0.0,0.0,0.0,0.0,0.0,0.0,0.0,0.0,0.0,0.0,0.0,0.0,0.0,0.0,0.0,0.0,0.0,0.0,0.0,0.0,0.0,0.0,0.0,0.0,0.0,0.0,0.0,0.0,0.0,0.0,0.0,0.0,0.0,0.0,0.0,0.0,0.0,0.0,0.0,0.0,0.0,0.0,0.0,0.0,0.0,0.0,0.0,0.0,0.0,0.0,0.0,0.0,0.0,0.0,0.0,0.0,0.0,0.0,0.0,0.0,0.0,0.0,0.0,0.0,0.0,0.0,0.0,0.0,0.0,0.0,0.0,0.0,0.0,0.0,0.0,0.0,0.0,0.0,0.0,0.0,0.0,0.0,0.0,0.0,0.0,0.0,0.0,0.0,0.0,0.0,0.0,0.0,0.0,0.0,0.0,0.0,0.0,0.0,0.0,0.0,0.0,0.0,0.0,0.0,0.0,0.0,0.0,0.0,0.0,0.0,0.0,0.0,0.0,0.0,0.0,0.0,0.0,0.0,0.0,0.0,0.0,0.0,0.0,0.0,0.0,0.0,0.0,0.0,0.0,0.0,0.0,0.0,0.0,0.0,0.0,0.0,0.0,0.0,0.0,0.0,0.0,0.0,0.0,0.0,0.0,0.0,0.0,0.0,0.0,0.0,0.0,0.0,0.0,0.0,0.0,0.0,0.0,0.0,0.0,0.0,0.0,0.0,0.0,0.0,0.0,0.0,0.0,0.0,0.0,0.0,0.0,0.0,0.0,0.0,0.0,0.0,0.0,0.0,0.0,0.0,0.0,0.0,0.0,0.0,0.0,0.0,0.0,0.0,0.0,0.0,0.0,0.0,0.0,0.0,0.0,0.0,0.0,0.0,0.0,0.0,0.0,0.0,0.0,0.0,0.0,0.0,0.0,0.0,0.0,0.0,0.0,0.0,0.0,0.0,0.0,0.0,0.0,0.0,0.0,0.0,0.0,0.0,0.0,0.0,0.0,0.0,0.0,0.0,0.0,0.0,0.0,0.0,0.0,0.0,0.0,0.0,0.0,0.0,0.0,0.0,0.0,0.0,0.0,0.0,0.0,0.0,0.0,0.0,0.0,0.0,0.0,0.0,0.0,0.0,0.0,0.0,0.0,0.0,0.0,0.0,0.0,0.0,0.0,0.0,0.0,0.0,0.0,0.0,0.0,0.0,0.0,0.0,0.0,0.0,0.0,0.0,0.0,0.0,0.0,0.0,0.0,0.0,0.0,0.0,0.0,0.0,0.0,0.0,0.0,0.0,0.0,0.0,0.0,0.0,0.0,0.0,0.0,0.0,0.0,0.0,0.0,0.0,0.0,0.0,0.0,0.0,0.0,0.0,0.0,0.0,0.0,0.0,0.0,0.0,0.0,0.0,0.0,0.0,0.0,0.0,0.0,0.0,0.0,0.0,0.0,0.0,0.0,0.0,0.0,0.0,0.0,0.0,0.0,0.0,0.0,0.0,0.0,0.0,0.0,0.0,0.0,0.0,0.0,0.0,0.0,0.0,0.0,0.0,0.0,0.0,0.0,0.0,0.0,0.0,0.0,0.0,0.0,0.0,0.0,0.0,0.0,0.0,0.0,0.0,0.0,0.0,0.0,0.0,0.0,0.0,0.0,0.0,0.0,0.0,0.0,0.0,0.0,0.0,0.0,0.0,0.0,0.0,0.0,0.0,0.0,0.0,0.0,0.0,0.0,0.0,0.0,0.0,0.0,0.0,0.0,0.0,0.0,0.0,0.0,0.0,0.0,0.0,0.0,0.0,0.0,0.0,0.0,0.0,0.0,0.0,0.0,0.0,0.0,0.0,0.0,0.0,0.0,0.0,0.0,0.0,0.0,0.0,0.0,0.0,0.0,0.0,0.0,0.0,0.0,0.0,0.0,0.0,0.0,0.0,0.0,0.0,0.0,0.0,0.0,0.0,0.0,0.0,0.0,0.0,0.0,0.0,0.0,0.0,0.0,0.0,0.0,0.0,0.0,0.0,0.0,0.0,0.0,0.0,0.0,0.0,0.0,0.0,0.0,0.0,0.0,0.0,0.0,0.0,0.0,0.0,0.0,0.0,0.0,0.0,0.0,0.0,0.0,0.0,0.0,0.0,0.0,0.0,0.0,0.0,0.0,0.0,0.0,0.0,0.0,0.0,0.0,0.0,0.0,0.0,0.0,0.0,0.0,0.0,0.0,0.0,0.0,0.0,0.0,0.0,0.0,0.0,0.0,0.0,0.0,0.0,0.0,0.0,0.0,0.0,0.0,0.0,0.0,0.0,0.0,0.0,0.0,0.0,0.0,0.0,0.0,0.0,0.0,0.0,0.0,0.0,0.0,0.0,0.0,0.0,0.0,0.0,0.0,0.0,0.0,0.0,0.0,0.0,0.0,0.0,0.0,0.0,0.0,0.0,0.0,0.0,0.0,0.0,0.0,0.0,0.0,0.0,0.0,0.0,0.0,0.0,0.0,0.0,0.0,0.0,0.0,0.0,0.0,0.0,0.0,0.0,0.0,0.0,0.0,0.0,0.0,0.0,0.0,0.0,0.0,0.0,0.0,0.0,0.0,0.0,0.0,0.0,0.0,0.0,0.0,0.0,0.0,0.0,0.0,0.0,0.0,0.0,0.0,0.0,0.0,0.0,0.0,0.0,0.0,0.0,0.0,0.0,0.0,0.0,0.0,0.0,0.0,0.0,0.0,0.0,0.0,0.0,0.0,0.0,0.0,0.0,0.0,0.0,0.0,0.0,0.0,0.0,0.0,0.0,0.0,0.0,0.0,0.0,0.0,0.0,0.0,0.0,0.0,0.0,0.0,0.0,0.0,0.0,0.0,0.0,0.0,0.0,0.0,0.0,0.0,0.0,0.0,0.0,0.0,0.0,0.0,0.0,0.0,0.0,0.0,0.0,0.0,0.0,0.0,0.0,0.0,0.0,0.0,0.0,0.0,0.0,0.0,0.0,0.0,0.0,0.0,0.0,0.0,0.0,0.0,0.0,0.0,0.0,0.0,0.0,0.0,0.0,0.0,0.0,0.0,0.0,0.0,0.0,0.0,0.0,0.0,0.0,0.0,0.0,0.0,0.0,0.0,0.0,0.0,0.0,0.0,0.0,0.0,0.0,0.0,0.0,0.0,0.0,0.0,0.0,0.0,0.0,0.0,0.0,0.0,0.0,0.0,0.0,0.0,0.0,0.0,0.0,0.0,0.0,0.0,0.0,0.0,0.0,0.0,0.0,0.0,0.0,0.0,0.0,0.0,0.0,0.0,0.0,0.0,0.0,0.0,0.0,0.0,0.0,0.0,0.0,0.0,0.0,0.0,0.0,0.0,0.0,0.0,0.0,0.0,0.0,0.0,0.0,0.0,0.0,0.0,0.0,0.0,0.0,0.0,0.0,0.0,0.0,0.0,0.0,0.0,0.0,0.0,0.0,0.0,0.0,0.0,0.0,0.0,0.0,0.0,0.0,0.0,0.0,0.0,0.0,0.0,0.0,0.0,0.0,0.0,0.0,0.0,0.0,0.0,0.0,0.0,0.0,0.0,0.0,0.0,0.0,0.0,0.0,0.0,0.0,0.0,0.0,0.0,0.0,0.0,0.0,0.0,0.0,0.0,0.0,0.0,0.0,0.0,0.0,0.0,0.0,0.0,0.0,0.0,0.0,0.0,0.0,0.0,0.0,0.0,0.0,0.0,0.0,0.0,0.0,0.0,0.0,0.0,0.0,0.0,0.0,0.0,0.0,0.0,0.0,0.0,0.0,0.0,0.0,0.0,0.0,0.0,0.0,0.0,0.0,0.0,0.0,0.0,0.0,0.0,0.0,0.0,0.0,0.0,0.0,0.0,0.0,0.0,0.0,0.0,0.0,0.0,0.0,0.0,0.0,0.0,0.0,0.0,0.0,0.0,0.0,0.0,0.0,0.0,0.0,0.0,0.0,0.0,0.0,0.0,0.0,0.0,0.0,0.0,0.0,0.0,0.0,0.0,0.0,0.0,0.0,0.0,0.0,0.0,0.0,0.0,0.0,0.0,0.0,0.0,0.0,0.0,0.0,0.0,0.0,0.0,0.0,0.0,0.0,0.0,0.0,0.0,0.0,0.0,0.0,0.0,0.0,0.0,0.0,0.0,0.0,0.0,0.0,0.0,0.0,0.0,0.0,0.0,0.0,0.0,0.0,0.0,0.0,0.0,0.0,0.0,0.0,0.0,0.0,0.0,0.0,0.0,0.0,0.0,0.0,0.0,0.0,0.0,0.0,0.0,0.0,0.0,0.0,0.0,0.0,0.0,0.0,0.0,0.0,0.0,0.0,0.0,0.0,0.0,0.0,0.0,0.0,0.0,0.0,0.0,0.0,0.0,0.0,0.0,0.0,0.0,0.0,0.0,0.0,0.0,0.0,0.0,0.0,0.0,0.0,0.0,0.0,0.0,0.0,0.0,0.0,0.0,0.0,0.0,0.0,0.0,0.0,0.0,0.0,0.0,0.0,0.0,0.0,0.0,0.0,0.0,0.0,0.0,0.0,0.0,0.0,0.0,0.0,0.0,0.0,0.0,0.0,2.6814,0.0,0.0,0.0,0.0,0.0,0.0,0.0,0.0,0.0,0.0,0.0,0.0,0.0,0.0,0.0,0.0,0.0,0.0,0.0,0.0,0.0,0.0,0.0,0.0,0.0,0.0,0.0,0.0,0.0,0.0,0.0,0.0,0.0,0.0,0.0,0.0,0.0,0.0,0.0,3.3063,3.3262,3.3379,3.2693,3.2287,3.2181,0.0,0.0,0.0,0.0,0.0,0.0,0.0,0.0,0.0,0.0,0.0,0.0,0.0,0.0,0.0,0.0,0.0,0.0,0.0,0.0,0.0,0.0,0.0,0.0,0.0,0.0,0.0,0.0,0.0,0.0,0.0,0.0,0.0,0.0,0.0,0.0,0.0,0.0,0.0,0.0,0.0,0.0,0.0,0.0,0.0,0.0,0.0,0.0,0.0,0.0,0.0,0.0,0.0,0.0,0.0,0.0,0.0,0.0,0.0,0.0,0.0,0.0,0.0,0.0,0.0,0.0,0.0,0.0,0.0,0.0,0.0,2.5328,0.0,0.0,0.0,0.0,0.0,0.0,0.0,0.0,0.0,0.0,0.0,0.0,0.0,0.0,0.0,0.0,0.0,0.0,0.0,0.0,0.0,0.0,0.0,0.0,2.6987,2.6809,2.7314,2.775,0.0,0.0,0.0,0.0,0.0,0.0,0.0,3.2109,3.2281,3.2535,3.2844,3.3129,3.3393,3.3393,3.3174,3.2719,3.2111,0.0,0.0,0.0,0.0,0.0,0.0,0.0,0.0,0.0,0.0,0.0,0.0,0.0,0.0,0.0,0.0,0.0,0.0,0.0,0.0,0.0,0.0,0.0,0.0,0.0,0.0,0.0,0.0,0.0,0.0,0.0,0.0,0.0,0.0,0.0,0.0,0.0,0.0,0.0,0.0,0.0,0.0,0.0,0.0,0.0,0.0,0.0,0.0,0.0,0.0,0.0,0.0,0.0,0.0,0.0,0.0,0.0,0.0,0.0,0.0,0.0,0.0,0.0,2.7835,2.6981,2.6273,2.5357,2.4396,2.3404,2.3664,2.3798,2.3853,0.0,0.0,0.0,0.0,0.0,0.0,0.0,0.0,0.0,0.0,0.0,0.0,0.0,0.0,0.0,0.0,0.0,0.0,0.0,0.0,0.0,0.0,2.6454,2.6669,2.7028,2.7328,2.8059,0.0,0.0,0.0,0.0,0.0,0.0,3.0993,3.13,3.1432,3.1389,3.2196,3.2844,3.3393,3.3452,3.3426,3.3288,3.3179,3.3239,3.3378,0.0,0.0,0.0,0.0,0.0,0.0,0.0,0.0,0.0,0.0,0.0,0.0,0.0,0.0,0.0,0.0,0.0,0.0,0.0,0.0,0.0,0.0,0.0,0.0,0.0,0.0,0.0,0.0,0.0,0.0,0.0,0.0,0.0,0.0,0.0,0.0,0.0,0.0,0.0,0.0,0.0,3.3137,3.3061,0.0,0.0,0.0,0.0,0.0,0.0,0.0,0.0,0.0,0.0,0.0,0.0,0.0,3.1358,3.0791,3.0376,3.0013,2.9646,2.8419,2.7433,2.6703,2.538,2.4356,2.3683,2.3124,0.0,2.2896,2.1626,0.0,0.0,0.0,0.0,0.0,0.0,0.0,0.0,0.0,0.0,0.0,0.0,0.0,0.0,0.0,0.0,0.0,0.0,0.0,0.0,0.0,2.6229,2.6809,2.7043,2.7822,2.8603,2.9327,2.9452,0.0,0.0,0.0,3.0225,3.0804,3.0891,3.1283,3.2002,3.2369,3.2752,3.3104,3.3135,3.3135,3.3104,3.3104,3.3357,3.3734,3.3448,0.0,0.0,0.0,0.0,0.0,0.0,0.0,0.0,0.0,0.0,0.0,0.0,0.0,0.0,0.0,0.0,0.0,0.0,0.0,0.0,0.0,0.0,0.0,0.0,0.0,0.0,0.0,0.0,0.0,0.0,0.0,0.0,0.0,0.0,0.0,0.0,0.0,0.0,0.0,3.3806,3.3197,3.284,3.2235,3.2019,0.0,0.0,0.0,0.0,0.0,0.0,0.0,0.0,0.0,3.2004,3.2149,3.1756,3.0905,3.0807,3.0464,2.9728,2.8925,2.7817,2.6537,2.5383,2.4497,2.3882,2.3045,2.2491,2.2076,2.1433,2.0997,2.0758,0.0,0.0,0.0,0.0,1.7742,1.672,0.0,0.0,0.0,0.0,0.0,0.0,0.0,0.0,0.0,0.0,0.0,0.0,2.5131,2.6301,2.7173,2.7352,2.8208,2.8906,2.9244,2.9419,0.0,2.9874,2.9531,2.9661,3.046,3.0526,3.1189,3.2404,3.2318,3.2386,3.2588,3.2654,3.2687,3.2687,3.2802,3.3178,3.3652,3.3716,3.3868,3.3972,0.0,0.0,0.0,0.0,0.0,0.0,0.0,0.0,0.0,0.0,0.0,0.0,0.0,0.0,0.0,0.0,0.0,0.0,0.0,0.0,0.0,0.0,0.0,0.0,0.0,0.0,0.0,0.0,0.0,0.0,0.0,0.0,0.0,0.0,0.0,0.0,0.0,3.3959,3.3576,3.2883,3.2713,3.2732,0.0,0.0,0.0,0.0,0.0,0.0,3.3412,3.4365,3.4191,3.2655,3.2774,3.2409,3.1422,3.1641,3.1254,3.0271,2.957,2.8383,2.6823,2.5739,2.4877,2.4293,2.3108,2.2217,2.1527,2.1249,2.0369,1.9243,1.9028,1.8231,1.7055,1.6327,1.5652,1.4749,0.0,0.0,0.0,0.0,0.0,0.0,0.0,0.0,0.0,0.0,0.0,2.5748,2.5748,2.6745,2.7656,2.8281,2.841,2.879,2.9645,2.9227,2.9243,2.9874,2.9167,2.9013,2.956,3.0,3.0757,3.1819,3.1524,3.1507,3.175,3.1967,3.2092,3.2179,3.2606,3.2979,3.322,3.3178,3.3455,3.3895,3.378,0.0,0.0,0.0,0.0,0.0,0.0,0.0,0.0,0.0,0.0,0.0,0.0,0.0,0.0,0.0,0.0,0.0,0.0,0.0,0.0,0.0,0.0,0.0,0.0,0.0,0.0,0.0,0.0,0.0,0.0,0.0,0.0,0.0,0.0,0.0,0.0,0.0,0.0,3.3968,3.3736,0.0,0.0,0.0,0.0,3.4718,3.4925,3.4773,3.4283,3.4114,3.3912,3.3661,3.3648,3.3566,3.3344,3.3235,3.2741,3.1758,3.0517,2.929,2.8091,2.6459,2.5584,2.5167,2.3228,2.202,2.135,2.0362,1.9734,1.9149,1.7649,1.6939,1.6615,1.4786,1.4128,1.3761,0.0,0.0,0.0,0.0,0.0,0.0,0.0,0.0,2.4284,2.4883,2.5188,2.5656,2.6424,2.7588,2.8388,2.863,2.8962,2.9315,2.9722,2.909,2.8811,2.912,2.8606,2.9061,3.0631,3.135,3.215,3.3158,3.2849,3.2832,3.3124,3.3012,3.3051,3.3277,3.3647,3.3864,3.3952,3.3538,3.3494,3.3726,3.3884,3.391,0.0,0.0,0.0,0.0,0.0,0.0,0.0,0.0,0.0,0.0,0.0,0.0,0.0,0.0,0.0,0.0,0.0,0.0,0.0,0.0,0.0,0.0,0.0,0.0,0.0,0.0,0.0,0.0,0.0,0.0,0.0,0.0,0.0,0.0,0.0,0.0,0.0,3.4819,3.4637,0.0,3.458,3.4438,3.4368,3.4447,3.462,3.4536,3.4083,3.4499,3.4542,3.3941,3.3889,3.3745,3.3642,3.3503,3.2765,3.142,3.0878,2.976,2.8207,2.6942,2.6181,2.5767,2.3718,2.229,2.1296,2.0236,1.8802,1.7316,1.662,1.5521,1.4188,1.3509,1.2456,1.1131,0.0,0.0,0.0,0.0,0.0,0.0,0.0,0.0,2.4551,2.4965,2.5584,2.6311,2.7058,2.8176,2.8886,2.8886,2.9154,2.9364,2.9544,2.8764,2.8431,2.8811,2.8872,2.98,3.1616,3.2168,3.2773,3.3505,3.322,3.3178,3.3347,3.3246,3.3288,3.3512,3.3973,3.4262,3.4306,3.4059,3.4087,3.4331,3.4504,3.4412,3.4156,0.0,0.0,0.0,0.0,0.0,0.0,0.0,0.0,0.0,0.0,0.0,0.0,0.0,0.0,0.0,0.0,0.0,0.0,0.0,0.0,0.0,0.0,0.0,0.0,0.0,0.0,0.0,0.0,0.0,0.0,0.0,0.0,0.0,0.0,0.0,3.4661,3.525,3.5148,3.4977,3.4779,3.4705,3.4544,3.4326,3.4506,3.4471,3.4101,3.4551,3.461,3.4101,3.3949,3.3797,3.3555,3.333,3.2461,3.1087,3.0763,2.986,2.8417,2.7458,2.6843,2.6475,2.4058,2.2605,2.1812,2.0216,1.844,1.6679,1.599,1.4736,1.3295,1.2718,1.1471,0.9852,0.0,0.0,0.0,0.0,0.0,0.0,0.0,2.534,2.5644,2.4717,2.6488,2.7779,2.7673,2.8527,2.9075,2.9075,2.8889,2.8826,2.9075,2.8268,2.8171,2.906,3.0098,3.1205,3.2331,3.2348,3.2488,3.2751,3.2492,3.2384,3.2384,3.255,3.2713,3.2796,3.3532,3.398,3.4258,3.4649,3.5189,3.5738,3.5591,3.5307,3.4999,0.0,0.0,0.0,0.0,0.0,0.0,0.0,0.0,0.0,0.0,0.0,0.0,0.0,0.0,0.0,0.0,0.0,0.0,0.0,0.0,0.0,0.0,0.0,0.0,0.0,0.0,0.0,0.0,0.0,0.0,0.0,0.0,0.0,3.4428,3.492,3.5217,3.5196,3.5236,3.5157,3.4919,3.5018,3.4925,3.4529,3.4706,3.4706,3.4497,3.425,3.4101,3.4101,3.3949,3.3694,3.3309,3.2834,3.2018,3.0837,3.0269,2.9608,2.878,2.7921,2.7523,2.7351,2.4213,2.2891,2.2693,2.0328,1.8627,1.7424,1.5838,1.4832,1.4049,1.2385,1.1061,0.9894,0.0,0.0,0.0,0.0,0.0,0.0,0.0,2.569,2.5843,2.6836,2.7469,2.8042,2.8774,2.9011,2.9075,2.9075,2.9029,2.8873,2.8559,2.7929,2.8026,2.8996,3.0751,3.2131,3.3086,3.3425,3.3769,3.4019,3.3955,3.3907,3.3891,3.3746,3.3778,3.4018,3.4497,3.469,3.4823,3.536,3.5936,3.6392,3.587,3.5525,3.539,0.0,0.0,0.0,0.0,0.0,0.0,0.0,0.0,0.0,0.0,0.0,0.0,0.0,0.0,0.0,0.0,0.0,0.0,0.0,0.0,0.0,0.0,0.0,0.0,0.0,0.0,0.0,0.0,0.0,0.0,0.0,0.0,3.4094,3.4815,3.4559,3.4447,3.4847,3.4914,3.4856,3.4642,3.4781,3.4881,3.4771,3.4835,3.4787,3.4497,3.4594,3.4497,3.4101,3.405,3.3949,3.3745,3.3087,3.2296,3.1465,3.0495,2.967,2.8972,2.7987,2.7523,2.731,2.4519,2.3194,2.2726,2.0581,1.8798,1.7375,1.6312,1.5114,1.3844,1.2791,1.1134,0.9303,0.0,0.0,0.0,0.0,0.0,0.0,0.0,2.6885,2.7028,2.7758,2.8241,2.8679,2.9166,2.9167,2.9075,2.9075,2.8779,2.8511,2.8207,2.8187,2.8748,3.0211,3.1597,3.2772,3.3664,3.3809,3.3925,3.4,3.3866,3.3866,3.4101,3.3899,3.4,3.4349,3.4642,3.4816,3.4941,3.5448,3.5916,3.6253,3.6015,3.5953,3.6011,3.6172,3.5987,3.5684,3.5836,3.5939,3.5919,3.5502,0.0,0.0,0.0,0.0,0.0,0.0,0.0,0.0,0.0,0.0,0.0,0.0,0.0,0.0,0.0,0.0,0.0,0.0,0.0,0.0,0.0,0.0,0.0,0.0,3.4235,3.3968,3.4614,3.4301,3.4225,3.4797,3.4738,3.4706,3.4706,3.4706,3.4675,3.4739,3.502,3.5152,3.4955,3.5087,3.4988,3.4554,3.4111,3.3745,3.3455,3.2571,3.1792,3.1116,3.0086,2.9387,2.8908,2.7921,2.7523,0.0,2.466,2.3358,2.3028,2.0988,1.9258,0.0,0.0,0.0,0.0,0.0,1.0502,0.9105,0.0,0.0,0.0,0.0,0.0,0.0,0.0,2.8461,2.8678,2.8099,2.8939,2.9457,2.9167,2.9167,2.9121,2.9075,2.8367,2.7993,2.8134,2.89,3.014,3.1907,3.257,3.3255,3.4034,3.3799,3.3507,3.324,3.298,3.3018,3.3435,3.3503,3.3694,3.405,3.4349,3.4578,3.4738,3.5098,3.5402,3.5698,3.5959,3.6265,3.6594,3.663,3.6235,3.5626,3.5626,3.5738,3.5828,3.5397,0.0,0.0,0.0,0.0,0.0,0.0,0.0,0.0,0.0,0.0,0.0,0.0,0.0,0.0,0.0,0.0,0.0,0.0,0.0,0.0,0.0,0.0,0.0,0.0,3.3931,3.36,3.407,3.4165,3.4365,3.4864,3.4658,3.4594,3.4963,3.4773,3.4644,3.4792,3.5416,3.5827,3.581,0.0,0.0,0.0,0.0,3.3414,3.2912,3.1841,3.1014,3.0372,2.9526,2.9035,2.878,2.7921,2.7523,2.739,2.466,2.3514,2.3379,2.1385,1.9678,1.824,1.6677,1.5126,1.3426,1.0665,0.9571,0.9146,0.0,0.0,0.0,0.0,0.0,0.0,0.0,2.9341,2.9263,2.9551,2.9761,2.9798,2.9544,2.9499,2.9319,2.8826,2.8463,2.829,2.8484,3.033,3.1601,3.2006,3.3385,3.3989,3.3697,3.3834,3.3578,3.2911,3.3055,3.3055,3.2964,3.3314,3.3555,3.3642,3.4,3.4201,3.4234,3.4333,3.4785,3.5448,3.5295,3.5552,3.6049,3.6214,3.6128,3.5825,3.5825,3.611,3.6282,3.5243,3.5594,3.6447,3.6141,3.6617,0.0,0.0,0.0,0.0,0.0,0.0,0.0,0.0,0.0,0.0,0.0,0.0,0.0,0.0,0.0,0.0,0.0,0.0,0.0,3.5099,3.4394,3.3838,3.4084,3.4603,3.4799,3.4349,3.425,3.4428,3.5098,3.5298,3.5695,3.6538,3.6937,3.7119,3.7119,3.6534,0.0,3.5835,3.4999,3.4223,3.3606,3.2536,3.1694,3.0999,0.0,0.0,2.9035,2.7987,2.7523,2.739,2.466,2.3514,2.3368,2.1231,1.9116,1.7147,1.5792,1.4103,1.2199,1.074,0.9574,0.8578,0.0,0.0,0.0,0.0,0.0,0.0,0.0,3.0132,2.9872,3.0054,2.9842,2.9432,2.8901,2.8854,2.8568,2.7968,2.8232,2.8652,2.9057,3.0751,3.2003,3.2641,3.3435,3.3745,3.3471,3.3282,3.3002,3.2586,3.2422,3.2422,3.2492,3.2926,3.314,3.3193,3.3832,3.4,3.3797,3.4,3.4366,3.4738,3.4738,3.4864,3.5098,3.5786,3.5933,3.5803,3.5803,3.5933,3.6053,3.5675,3.5931,3.6476,3.6645,3.704,3.7359,0.0,0.0,0.0,0.0,0.0,0.0,0.0,0.0,0.0,0.0,0.0,0.0,0.0,0.0,3.6069,0.0,0.0,3.5102,3.5328,3.4905,3.4713,3.5153,3.5267,3.5166,3.4732,3.4975,3.5399,3.5896,3.6067,3.6419,3.7018,3.7349,3.748,3.7513,3.6745,3.6254,3.6206,3.5034,3.4287,3.3948,3.2617,3.1703,3.138,2.9854,2.9099,2.9035,2.7987,2.7523,2.739,2.511,2.3891,2.3294,2.0585,1.847,1.6919,1.5703,1.4216,1.2528,1.0702,0.9753,0.8973,0.0,0.0,0.0,0.0,0.0,0.0,0.0,3.0868,3.0435,3.0316,2.9826,2.9154,2.8291,2.8167,2.7839,2.7116,2.8213,2.9184,2.9659,3.0983,3.2242,3.3277,3.3309,3.3256,3.3203,3.2742,3.2453,3.2342,3.1868,3.1811,3.2287,3.2547,3.2734,3.2895,3.3662,3.3797,3.3555,3.3949,3.4151,3.4201,3.4349,3.4349,3.4284,3.5174,3.5493,3.5386,3.5386,3.5363,3.5385,3.5759,3.5925,3.6052,3.6643,3.6856,3.6819,3.6346,3.6613,0.0,0.0,0.0,0.0,0.0,0.0,0.0,0.0,0.0,3.5226,3.4541,3.5036,3.5487,3.5185,3.5129,3.5202,3.5524,3.538,3.5432,3.6045,3.5808,3.5538,3.5391,3.5728,3.6174,3.6662,3.6662,3.6816,3.7242,3.7453,3.7617,3.7737,3.6949,3.649,3.6537,3.5135,3.4303,3.4166,3.2697,3.1835,3.1573,3.0073,2.9273,2.9035,2.8052,2.7523,2.739,2.5334,2.3963,2.2925,2.0032,1.823,1.7163,1.6041,1.4803,1.3379,1.0956,0.9923,0.9488,0.0,0.0,0.0,0.0,0.0,0.0,0.0,0.0,3.1061,3.0692,3.0368,2.9776,2.8651,2.8371,2.7913,2.7006,2.9039,3.0325,3.0127,3.2008,3.3161,3.3293,3.3309,3.3203,3.2951,3.2897,3.2554,3.2038,3.1996,3.2135,3.2547,3.2342,3.2586,3.3145,3.3419,3.3555,3.3555,3.3949,3.425,3.4448,3.425,3.425,3.4448,3.4333,3.4284,3.4284,3.4284,3.4277,3.4292,3.4348,3.4526,3.4805,3.5019,3.5307,3.5471,3.477,3.4742,3.4748,3.3836,3.3618,3.3759,3.3946,3.3733,3.3618,0.0,0.0,3.396,3.4137,3.4707,3.5212,3.5346,3.5662,3.5958,3.6251,3.5716,3.5348,3.5538,3.5754,3.5841,3.5806,3.5336,3.5414,3.6485,3.6444,3.6756,3.7712,3.8036,3.8349,3.8635,3.761,3.7006,3.7021,3.5965,3.5045,3.4493,3.3657,3.2736,3.1587,3.0637,2.9817,2.9099,2.8183,2.7656,2.739,2.4732,2.2936,2.1603,2.0313,1.9116,1.806,1.6764,1.5613,1.4196,1.1547,0.9923,0.8803,0.0,0.0,0.0,0.0,0.0,0.0,0.0,0.0,0.0,3.11,3.0601,2.9697,2.8156,2.73,2.6842,2.7006,2.9249,3.0576,3.0247,3.2368,3.3555,3.3293,3.3309,3.3256,3.3165,3.3005,3.2788,3.2499,3.2318,3.2342,3.2492,3.2633,3.2834,3.3093,3.3713,3.3933,3.3968,3.4382,3.4643,3.4691,3.4594,3.4643,3.4691,3.4448,3.4349,3.4301,3.3844,3.3678,0.0,3.4027,3.4172,3.4398,3.4923,3.5226,3.5218,3.4411,3.4361,3.4419,3.3908,3.3717,0.0,0.0,3.4176,3.4353,3.4359,3.457,3.4808,3.4872,3.5058,3.532,3.5482,3.5489,3.5697,0.0,3.6004,3.5786,3.6221,3.6193,3.6198,3.6424,3.5723,3.5722,3.6911,3.7001,3.7229,3.7854,3.7722,3.778,3.8132,3.7238,3.6754,3.6754,3.6163,3.5533,3.5085,3.4038,3.326,3.2707,3.1061,3.0067,2.961,2.8331,2.739,2.6508,2.4909,2.3452,2.2048,2.0991,1.965,1.8221,1.7009,1.5951,1.4796,1.2163,1.0448,0.9318,0.0,0.0,0.0,0.0,0.0,0.0,0.0,0.0,0.0,0.0,3.0828,2.9732,2.7943,2.6923,2.6596,2.7131,2.9208,3.0491,3.0525,3.245,3.3604,3.3642,3.3503,3.345,3.345,3.315,3.2951,3.2897,3.2648,3.2578,3.2656,3.285,3.3049,3.3303,3.3866,3.4168,3.4235,3.4675,3.4899,3.4899,3.4899,3.4899,3.4899,3.4691,3.4528,3.4264,3.3629,3.3317,3.3247,3.3611,3.3595,3.359,3.4337,3.4566,3.4391,3.3739,3.3838,3.4085,3.3982,0.0,0.0,3.4421,3.4847,3.512,3.4889,3.5212,3.5542,3.5435,3.5552,3.5663,3.5591,3.5618,3.5844,3.633,3.6188,3.6119,3.6661,3.6321,3.6148,3.6492,3.591,3.591,3.6906,3.7011,3.7147,3.7476,3.7222,3.7238,3.7642,3.6923,3.6492,3.6492,3.6115,3.5748,3.5504,3.4361,3.363,3.3456,3.1735,3.0592,2.9983,2.8451,2.7108,2.6037,2.4862,2.3745,2.2627,2.1278,1.9972,1.863,1.7504,1.6445,1.5296,1.3275,1.1655,1.0269,0.0,0.0,0.0,0.0,0.0,0.0,0.0,0.0,0.0,0.0,0.0,0.0,0.0,2.806,2.7868,2.7442,2.8788,3.0139,3.1308,3.2221,3.324,3.4415,3.4101,3.3899,3.3899,3.3503,3.315,3.2897,3.2897,3.3027,3.3387,3.2711,3.2964,3.3986,3.3732,3.3834,3.4235,3.4675,3.4899,3.4899,3.4899,3.4899,3.4899,3.4899,3.4482,3.3852,3.3526,3.3099,3.2718,3.2718,3.2326,3.1888,3.2564,3.2566,3.2307,3.2286,3.2676,3.3234,3.3635,3.4286,3.5021,3.5771,3.5662,3.5483,3.5851,3.5664,3.5419,3.5379,3.5932,3.62,3.5683,3.6406,3.6995,3.6477,3.6259,3.618,3.6196,3.5797,3.5504,3.5569,3.5504,3.5619,0.0,3.6037,3.6163,3.6492,3.6816,3.7121,3.748,3.6862,3.6492,3.6492,3.5876,3.5504,3.5504,3.4735,3.408,3.347,3.2695,3.1509,2.9904,2.8253,2.7188,2.6577,2.4469,2.3368,2.2999,2.0837,1.9942,1.9696,1.8479,1.7163,1.5838,1.4942,1.3438,1.158,0.0,0.0,0.0,0.0,0.0,0.0,0.0,0.0,0.0,0.0,0.0,0.0,0.0,0.0,0.0,0.0,2.9247,3.0147,3.0448,3.2063,3.3161,3.347,3.399,3.4151,3.3899,3.3745,3.3503,3.315,3.345,3.3642,3.3729,3.3764,3.4118,3.4723,3.4626,3.4802,3.5131,3.5287,3.535,3.535,3.535,3.535,3.535,3.5258,3.4651,3.3769,0.0,3.2877,3.2259,3.1836,3.1758,3.1907,3.2359,3.2735,3.3,3.31,3.3624,3.4179,3.4051,3.4622,3.5284,3.5517,3.5505,3.5561,3.6133,3.6229,3.6356,3.6848,3.6908,3.6942,3.6886,3.6416,3.6129,3.6232,3.5546,3.5198,3.5668,3.5344,3.5213,3.5439,3.5683,0.0,0.0,0.0,0.0,3.6816,3.6954,3.7136,3.748,3.706,3.6816,3.6816,3.6178,3.5797,3.5797,3.5067,3.4499,3.408,3.2704,3.1392,3.0241,2.8769,2.7593,2.6623,2.498,2.3599,2.2349,2.1211,2.0313,1.9557,1.8487,1.7253,1.6101,1.5115,1.3873,1.2443,0.0,0.0,0.0,0.0,0.0,0.0,0.0,0.0,0.0,0.0,0.0,0.0,0.0,0.0,0.0,0.0,0.0,2.9958,3.0323,3.1438,3.2288,3.2611,3.3226,3.3437,3.3142,3.3333,3.3326,3.3018,3.3668,3.3949,3.4,3.4349,3.4691,3.5088,3.5088,3.5274,3.5622,3.5622,3.5622,3.5667,3.5549,3.5487,3.5498,3.5002,3.4509,0.0,3.3228,3.2789,3.2496,3.1798,3.18,3.2119,3.2623,3.3014,3.3423,3.3601,3.4175,3.4774,3.4756,3.5315,3.6011,3.6102,3.6137,3.6263,3.6764,3.6959,3.7128,3.7663,3.7439,3.7148,3.7053,3.6105,3.5397,3.5729,3.5049,3.4658,3.5389,3.5277,3.5239,3.5474,3.5812,3.6037,0.0,0.0,0.0,3.6954,3.7121,3.7241,3.748,3.7181,3.7015,3.7015,3.6492,3.61,3.5973,3.5379,3.4787,3.4196,3.2651,3.1378,3.0414,2.9061,2.7761,2.6467,2.4888,2.3472,2.2209,2.1145,2.0313,1.9557,1.8487,1.7253,1.6101,1.5115,1.3957,1.2619,0.0,0.0,0.0,0.0,0.0,0.0,0.0,0.0,0.0,0.0,0.0,0.0,0.0,0.0,0.0,0.0,0.0,0.0,3.0778,3.0462,3.0751,3.1927,3.1884,3.1821,3.1821,3.2368,3.2638,3.2588,3.3595,3.4101,3.4101,3.4399,3.4739,3.5088,3.5088,3.5274,3.5577,3.5577,3.5667,3.5728,3.5429,3.5321,3.5266,3.4289,3.4141,3.4307,3.3145,3.2994,3.3288,3.2577,3.2357,3.2527,3.328,3.3465,3.346,3.374,3.4358,3.5038,3.5578,3.6366,3.707,3.7424,3.748,3.7539,3.7642,3.77,3.7743,3.7886,3.7504,3.6957,0.0,0.0,3.4971,3.5021,3.4701,3.466,3.5337,3.543,3.5462,0.0,0.0,0.0,0.0,0.0,0.0,3.7015,0.0,3.748,3.748,3.7181,3.7015,3.7015,3.6677,3.6352,3.5973,3.5544,3.4743,3.377,3.261,3.1527,3.0538,2.9256,2.7783,2.6226,2.4245,2.3134,2.2467,2.0654,1.9882,1.9784,1.8487,1.7163,1.5921,1.5025,1.3873,1.2443,0.0,0.0,0.0,0.0,0.0,0.0,0.0,0.0,0.0,0.0,0.0,0.0,0.0,0.0,0.0,0.0,0.0,0.0,3.0348,3.0599,3.0927,3.1455,3.1994,3.2104,3.1821,3.2611,3.2918,3.2588,3.3695,3.425,3.425,3.4643,3.4851,3.4947,3.5211,3.5304,3.5228,3.5487,3.5503,3.5274,3.5198,3.5088,3.5055,3.5132,3.4729,3.4136,3.4406,3.399,3.3355,3.3026,3.3184,3.3723,3.4669,3.4938,3.4972,3.556,3.6072,3.6454,3.6644,3.7004,3.7361,3.7492,3.748,3.7539,3.7642,3.7759,3.7774,3.764,3.6983,3.6393,0.0,0.0,0.0,3.4892,3.422,0.0,3.4887,3.4851,0.0,3.5409,0.0,3.6429,3.6492,3.7044,0.0,0.0,3.748,3.748,3.748,3.7181,3.7121,3.7361,3.68,3.6211,3.5721,3.4461,3.3534,3.2974,3.2266,3.1449,3.0585,2.9361,2.7951,2.6256,2.4726,2.3228,2.1716,2.0796,2.0146,1.9557,1.8407,1.7163,1.5921,1.5025,1.3873,1.2443,0.0,0.0,0.0,0.0,0.0,0.0,0.0,0.0,0.0,0.0,0.0,0.0,0.0,0.0,0.0,0.0,0.0,0.0,0.0,3.0593,3.0684,3.1116,3.1407,3.1413,3.1144,3.2118,3.2672,3.2798,3.3834,3.4551,3.4866,3.5195,3.5304,3.5118,3.5515,3.5515,3.5258,3.5622,3.5756,0.0,0.0,3.535,3.5374,3.5116,3.4886,3.4813,3.4883,3.4917,3.4922,3.5049,3.5161,3.5378,3.6158,3.6156,3.5997,3.6481,0.0,3.7038,3.7189,3.734,3.748,3.748,3.748,3.7504,3.746,3.7511,3.7432,3.6912,3.6291,0.0,3.5544,3.4384,0.0,0.0,0.0,0.0,3.4807,3.4916,3.5051,0.0,3.6115,0.0,3.6492,3.7105,3.7345,0.0,3.7013,3.7013,3.7013,3.6585,3.6383,3.6569,3.6196,3.5737,3.5175,3.4002,3.3199,3.2704,3.22,3.1368,3.0291,2.9365,2.8004,2.637,0.0,2.3496,2.213,2.125,2.0514,1.9906,1.8327,1.6974,1.5838,1.4622,1.3542,1.2443,0.0,0.0,0.0,0.0,0.0,0.0,0.0,0.0,0.0,0.0,0.0,0.0,0.0,0.0,0.0,0.0,0.0,0.0,0.0,0.0,3.0435,3.1124,3.082,3.0567,3.0483,3.1408,3.2211,3.2847,3.391,3.4756,3.5425,3.5749,3.5694,3.5379,3.5827,3.5783,3.5453,3.5871,3.6191,3.6402,3.5827,3.5766,3.5899,0.0,3.503,3.5742,3.5121,3.5742,3.6898,3.7486,3.7336,3.7014,3.7586,3.7301,3.6755,3.7021,3.7118,3.719,3.7424,3.7539,3.7539,3.7539,3.7539,3.751,3.727,3.718,3.697,3.6168,0.0,3.5072,3.4627,3.3763,3.3378,3.4085,0.0,3.4167,3.4802,3.514,3.5384,3.5494,3.5988,3.6352,3.6492,3.6984,3.7013,3.643,3.6228,3.6165,3.6228,3.5721,3.54,3.54,3.527,3.4993,3.4528,3.3811,3.3129,3.2561,3.2128,3.122,2.9909,2.9291,2.804,2.6394,0.0,0.0,2.3114,2.1675,2.0846,2.0235,1.8037,1.666,1.5808,1.4083,1.3243,1.2549,0.0,0.0,0.0,0.0,0.0,0.0,0.0,0.0,0.0,0.0,3.3968,3.3514,0.0,0.0,0.0,0.0,0.0,0.0,0.0,0.0,0.0,3.2519,3.1692,3.1295,3.1397,3.1716,3.1976,3.2093,3.3483,3.422,3.4354,3.5031,3.5316,3.527,3.5837,3.5907,3.5671,3.6071,3.6216,3.6156,3.582,3.5654,3.5637,3.5925,0.0,0.0,3.5976,3.6361,3.6944,3.7802,3.7802,3.7609,3.8467,3.8231,3.7623,3.7594,3.7626,3.7716,3.7669,3.7759,3.7817,3.7817,3.7817,3.7742,3.7524,3.7416,0.0,0.0,3.5459,3.4771,3.4726,3.3637,3.2942,3.3693,3.3722,3.3847,3.4405,3.4382,3.4626,0.0,0.0,0.0,0.0,0.0,0.0,0.0,0.0,3.4912,3.5529,3.5464,3.54,3.54,3.4677,3.4274,3.4206,3.3115,3.2417,3.1909,3.1408,3.0722,2.9704,2.8949,2.7787,2.6405,2.5492,0.0,2.3076,2.1247,2.0314,1.9609,1.7384,1.6221,1.5812,1.451,1.3906,1.3375,0.0,0.0,0.0,0.0,0.0,0.0,0.0,3.5216,3.4944,3.4641,3.447,3.3956,3.2903,3.2666,3.2435,0.0,0.0,0.0,0.0,0.0,0.0,0.0,3.334,3.3031,3.3128,3.2667,3.2604,3.3053,0.0,3.3709,3.4117,3.4976,3.5258,3.5162,3.6266,3.6586,3.6329,3.6829,3.6981,3.69,3.6666,3.6522,3.6457,0.0,0.0,0.0,3.6461,3.6612,3.6939,3.7693,3.7846,3.7875,3.876,3.8511,3.7876,3.7817,3.7817,3.7759,3.77,3.7759,3.7817,3.7817,3.7876,3.776,3.7269,0.0,0.0,0.0,3.4756,3.4226,3.4365,3.3737,0.0,3.4136,3.4169,3.4273,3.4743,3.4639,0.0,0.0,0.0,0.0,0.0,0.0,0.0,0.0,0.0,3.4447,3.4795,3.4476,3.4303,3.4303,3.3894,3.3618,3.3534,3.2903,3.2273,3.1776,3.1482,3.0885,3.0037,2.9184,2.8315,2.7348,2.6102,0.0,2.3944,2.1907,2.0709,1.9843,1.7559,1.6224,1.5548,1.4571,1.3586,1.2677,0.0,0.0,0.0,0.0,0.0,0.0,0.0,3.5399,3.5193,3.4931,3.4812,3.433,3.3263,3.2991,3.2795,0.0,0.0,0.0,0.0,0.0,0.0,0.0,0.0,0.0,0.0,0.0,0.0,0.0,3.3706,0.0,0.0,0.0,0.0,0.0,3.641,3.6825,3.6569,3.7058,3.7376,0.0,0.0,3.7344,0.0,0.0,0.0,0.0,0.0,3.6715,3.6864,3.7335,3.7594,3.7781,3.8405,3.8264,3.7866,3.7866,3.7751,3.7742,3.7786,3.7817,3.7817,3.7817,3.7934,3.7778,3.6881,3.6721,0.0,3.4972,3.4426,3.4181,3.4274,3.4029,3.4046,0.0,3.4846,3.4976,3.532,3.5169,3.5133,0.0,0.0,0.0,0.0,0.0,0.0,0.0,0.0,0.0,3.4056,3.3563,3.3326,3.3326,3.3326,3.3241,3.3072,3.2846,3.2561,3.2055,3.1776,3.1259,3.0508,2.9639,2.8858,2.8087,2.6423,0.0,0.0,2.2189,2.0766,1.9795,1.7644,1.6323,1.5486,1.467,1.3481,1.209,0.0,0.0,0.0,0.0,0.0,0.0,0.0,3.5504,3.5399,3.4961,3.4878,3.4717,3.4298,3.3595,3.3112,0.0,0.0,0.0,0.0,0.0,0.0,0.0,0.0,0.0,0.0,0.0,0.0,0.0,0.0,0.0,0.0,0.0,0.0,0.0,0.0,0.0,3.5714,3.5764,0.0,0.0,0.0,0.0,0.0,0.0,0.0,0.0,0.0,3.6696,3.6728,3.6847,3.6881,3.6979,3.7253,3.7508,3.7731,3.7644,0.0,0.0,3.8044,3.8221,3.8351,3.8351,3.8335,3.8019,3.6583,0.0,3.7392,3.5354,3.5372,3.5604,3.5261,3.4601,3.4451,3.538,3.5581,3.5676,3.5965,3.5627,3.5365,3.5504,0.0,0.0,0.0,0.0,0.0,0.0,0.0,0.0,3.3382,3.3312,3.3326,3.3326,3.3326,3.3326,3.3241,3.3072,3.2917,3.2917,3.2128,3.1542,3.1071,3.0088,2.9094,2.8087,2.6058,0.0,0.0,2.0863,1.9231,1.8472,1.7181,1.6236,1.5745,1.519,1.4321,1.3154,0.0,0.0,0.0,0.0,0.0,0.0,3.5639,3.554,3.5437,3.5335,3.5225,3.5063,3.4854,3.4491,3.4158,3.3792,0.0,0.0,0.0,0.0,0.0,0.0,0.0,0.0,0.0,0.0,0.0,3.6406,0.0,0.0,0.0,0.0,0.0,0.0,0.0,0.0,0.0,3.637,0.0,0.0,0.0,0.0,0.0,0.0,0.0,0.0,0.0,0.0,3.7147,3.6671,3.6791,3.7117,3.6718,3.6774,3.7053,3.7515,3.767,3.7709,3.8084,3.8237,3.8294,3.8294,3.7915,3.7431,3.7253,0.0,3.6767,3.6059,3.5856,3.5815,3.5723,3.5326,3.5216,3.5999,3.6045,3.6076,3.6446,3.5798,3.5457,0.0,0.0,0.0,0.0,0.0,0.0,0.0,0.0,0.0,3.3326,3.3326,3.3326,3.3326,3.3521,3.3521,3.3326,3.3353,3.3269,3.2988,3.2417,3.1982,3.1542,3.0545,2.9471,2.8486,2.6741,0.0,0.0,2.1382,1.9877,1.8888,1.7232,1.6393,1.5913,1.458,1.3414,1.2145,0.0,0.0,0.0,0.0,0.0,3.585,3.5807,3.5676,3.5581,3.5588,3.5492,3.5361,3.5232,3.5185,3.5021,3.468,3.448,0.0,0.0,0.0,0.0,0.0,0.0,0.0,0.0,0.0,3.7503,3.7896,3.6743,3.5948,0.0,0.0,0.0,0.0,0.0,0.0,0.0,0.0,0.0,0.0,0.0,0.0,0.0,0.0,0.0,0.0,0.0,0.0,0.0,0.0,0.0,3.7175,3.6665,3.6448,3.6561,3.7202,3.7442,3.7527,3.7968,3.8213,3.8391,3.8391,3.7947,3.7566,0.0,0.0,3.7041,3.6706,3.6496,3.6398,3.6373,3.598,3.5983,3.6859,3.686,3.686,3.7163,3.646,3.5957,0.0,0.0,0.0,0.0,0.0,0.0,0.0,0.0,0.0,0.0,3.3326,3.3326,3.3452,3.3716,3.3716,3.3452,3.3577,3.3493,3.3072,3.2561,3.2042,3.1529,3.0545,2.9471,2.8315,0.0,0.0,0.0,2.1836,2.0413,1.9255,1.7598,1.6574,1.5812,1.428,1.2732,1.1175,0.0,0.0,0.0,0.0,0.0,0.0,3.582,3.5914,3.5897,3.562,3.566,3.563,3.5516,3.5504,3.5485,3.5492,3.5066,0.0,0.0,0.0,0.0,0.0,0.0,0.0,0.0,0.0,3.9483,3.9483,3.8798,3.8401,3.8249,3.7662,0.0,0.0,0.0,0.0,0.0,0.0,0.0,0.0,0.0,0.0,0.0,0.0,0.0,0.0,0.0,0.0,0.0,0.0,0.0,0.0,0.0,3.6719,3.6251,3.6598,3.6833,3.7151,3.7738,3.8356,3.8805,3.8805,3.8914,3.8701,3.7731,3.8426,3.8809,3.7254,3.7342,3.7632,3.7282,3.6616,3.6662,3.8051,3.8197,3.8141,3.8446,3.7718,0.0,0.0,0.0,0.0,0.0,0.0,0.0,0.0,0.0,0.0,0.0,3.3326,3.3452,3.377,3.377,3.377,3.377,3.377,3.3646,3.3326,3.2503,3.1663,3.0895,3.0075,2.8924,0.0,0.0,0.0,0.0,2.1943,2.043,1.9063,1.8056,1.6749,1.5343,1.458,1.2829,1.0783,0.0,0.0,0.0,0.0,0.0,0.0,0.0,3.5846,3.5794,3.5621,3.565,3.5685,3.565,3.5721,3.5779,3.5779,3.5461,0.0,0.0,0.0,0.0,0.0,0.0,0.0,0.0,0.0,3.9948,4.0329,3.9736,3.926,3.8848,3.8501,3.8139,3.7704,0.0,0.0,0.0,0.0,0.0,0.0,0.0,0.0,0.0,0.0,0.0,0.0,0.0,0.0,0.0,0.0,0.0,0.0,0.0,0.0,0.0,3.6474,3.6559,3.6751,3.7185,3.7395,3.7692,3.8203,3.7781,3.7511,3.8496,3.8426,3.8079,3.7922,3.8092,3.8197,3.7722,3.7222,3.7207,3.8294,3.8254,3.8214,0.0,0.0,0.0,0.0,0.0,0.0,0.0,0.0,0.0,0.0,0.0,0.0,0.0,3.3799,3.3991,3.377,3.4059,3.4059,3.377,3.4059,3.3922,3.3326,3.2931,3.2475,3.2101,3.0908,0.0,0.0,0.0,0.0,0.0,2.2306,2.106,1.982,1.8611,1.7217,1.5812,1.4268,1.2721,1.117,0.0,0.0,0.0,0.0,0.0,0.0,0.0,3.5875,3.584,3.5687,3.5737,3.576,3.5702,3.5807,3.5908,3.5908,3.5737,0.0,0.0,0.0,0.0,0.0,0.0,0.0,3.8637,3.9358,4.0038,4.0694,4.0077,3.9774,3.9689,3.9341,3.9139,3.9021,3.8772,3.8646,0.0,0.0,0.0,0.0,0.0,0.0,3.9298,0.0,0.0,0.0,0.0,0.0,0.0,0.0,0.0,0.0,0.0,0.0,0.0,0.0,3.6423,3.6405,3.6669,3.6937,3.7285,3.7963,3.7642,0.0,3.906,3.8801,3.8318,3.8619,3.8678,3.8567,3.8254,3.7854,3.7895,3.8723,3.8739,3.8629,0.0,0.0,0.0,0.0,0.0,0.0,0.0,0.0,0.0,0.0,0.0,0.0,0.0,3.3868,3.4005,3.4059,3.4264,3.4196,3.377,3.4059,3.3854,3.3326,3.2931,3.2618,3.2187,3.082,0.0,0.0,0.0,0.0,0.0,2.3086,2.1863,2.0555,1.9347,1.7669,1.569,1.4351,1.2721,1.0886,0.0,0.0,0.0,0.0,0.0,0.0,0.0,3.6001,3.5958,3.5813,3.5858,3.5864,3.5718,3.5814,3.5889,3.5914,0.0,0.0,0.0,0.0,0.0,0.0,0.0,0.0,3.8109,3.898,3.9851,4.0734,3.9976,3.9956,4.0629,3.9991,4.0117,4.0796,4.0103,3.9766,3.9699,3.9626,3.9824,4.0168,4.0168,3.9825,0.0,0.0,0.0,0.0,0.0,0.0,0.0,0.0,0.0,0.0,0.0,0.0,0.0,0.0,0.0,0.0,0.0,3.6652,3.7303,3.8,3.8251,3.8519,3.9318,3.9395,0.0,3.9272,3.904,3.886,3.886,3.859,3.8613,3.9385,3.9542,0.0,0.0,0.0,0.0,0.0,0.0,0.0,0.0,0.0,0.0,0.0,0.0,0.0,0.0,3.373,3.373,3.4346,3.4414,3.4196,3.3839,3.3839,3.3646,3.3312,3.2717,3.2114,3.1429,3.0063,0.0,0.0,0.0,0.0,0.0,2.3973,2.2833,2.1266,1.9985,1.7825,1.538,1.4543,1.263,1.031,0.0,0.0,0.0,0.0,0.0,0.0,0.0,0.0,0.0,0.0,3.5899,3.5924,3.5801,3.5858,3.5929,0.0,0.0,0.0,0.0,0.0,0.0,0.0,0.0,0.0,3.8397,3.9253,4.0132,4.1013,4.0106,3.9795,3.999,3.9177,3.9257,4.0057,3.9883,4.0115,4.0672,4.0602,4.0636,4.0679,4.0287,4.0024,0.0,0.0,0.0,0.0,3.878,3.864,0.0,0.0,0.0,0.0,0.0,0.0,0.0,0.0,3.6603,3.6326,3.5597,0.0,3.6081,3.7368,3.7603,3.7902,0.0,3.9395,3.9272,3.9272,3.9325,3.9379,3.9468,3.9206,3.9242,4.0087,0.0,0.0,0.0,0.0,0.0,0.0,0.0,0.0,0.0,0.0,0.0,0.0,0.0,0.0,0.0,3.4317,3.4317,3.3977,3.4264,3.4346,3.4264,3.3977,3.377,3.3716,3.3297,3.2561,3.1442,3.0506,0.0,0.0,0.0,0.0,2.4765,2.4059,2.2833,2.1257,1.9596,1.7632,1.5576,1.4172,1.264,1.1096,0.0,0.0,0.0,0.0,0.0,0.0,0.0,0.0,0.0,0.0,0.0,0.0,0.0,0.0,0.0,0.0,0.0,0.0,0.0,0.0,0.0,0.0,0.0,3.7205,3.8476,3.8965,3.9824,4.1094,4.0195,3.9745,3.9744,3.8884,3.8942,3.9777,4.017,4.039,4.0472,4.0838,4.0967,4.0869,4.0524,0.0,0.0,0.0,0.0,0.0,3.8892,3.8683,0.0,3.8732,3.8465,3.8052,0.0,0.0,0.0,0.0,3.686,3.6661,3.5837,3.5424,3.5549,3.6969,3.7253,3.7601,3.9046,3.9325,3.9272,3.9272,3.9484,3.9642,3.9798,3.9487,3.9523,0.0,0.0,0.0,0.0,0.0,0.0,0.0,0.0,0.0,0.0,0.0,0.0,0.0,0.0,0.0,0.0,3.4196,3.4128,3.4059,3.3937,3.3868,3.3868,3.3839,3.3701,3.3577,3.3297,3.2704,3.175,3.043,2.9369,0.0,0.0,0.0,2.5115,2.4413,2.3357,2.1961,2.0133,1.8187,1.6129,1.4644,1.2732,1.0592,0.0,0.0,0.0,0.0,0.0,0.0,0.0,0.0,0.0,0.0,0.0,0.0,0.0,0.0,0.0,0.0,0.0,0.0,0.0,0.0,0.0,0.0,3.5898,3.6716,3.8455,3.8492,3.9351,4.1072,4.0094,3.9566,3.9507,3.8685,3.8801,3.9735,4.0619,4.0625,4.002,4.0779,4.1022,4.0917,4.0776,0.0,0.0,0.0,0.0,0.0,0.0,0.0,0.0,3.8773,3.859,3.8223,3.8119,0.0,0.0,0.0,0.0,0.0,3.6357,3.5684,3.5476,3.6854,3.7203,3.7568,3.8994,3.9272,3.9325,3.9325,3.9537,3.9729,3.9713,3.954,0.0,0.0,0.0,0.0,0.0,0.0,0.0,0.0,0.0,0.0,0.0,0.0,0.0,0.0,0.0,0.0,0.0,3.3991,3.373,3.4414,3.373,3.3312,3.3326,3.3577,3.3646,3.3452,3.3143,3.2632,3.1896,3.0279,2.9238,0.0,0.0,0.0,2.5527,2.4925,2.4059,2.2911,2.0845,1.8824,1.6771,1.5026,1.2624,0.9797,0.0,0.0,0.0,0.0,0.0,0.0,0.0,0.0,0.0,0.0,0.0,0.0,0.0,0.0,0.0,0.0,0.0,0.0,0.0,0.0,0.0,3.5897,3.5908,3.6723,3.8453,3.8497,3.9335,4.1025,3.9466,3.8686,3.8667,3.7804,3.8213,3.9733,4.0668,4.0988,4.082,4.1023,4.1081,4.1064,4.0926,0.0,0.0,0.0,0.0,0.0,0.0,0.0,0.0,3.8646,3.841,3.8036,3.7951,0.0,0.0,0.0,0.0,0.0,3.6274,3.5886,3.5844,3.733,3.7694,3.7984,3.903,3.9272,3.9325,3.9448,3.959,3.954,3.8995,3.9645,4.0137,0.0,0.0,0.0,0.0,0.0,0.0,0.0,0.0,0.0,0.0,0.0,0.0,0.0,0.0,0.0,0.0,3.4346,3.4278,3.4414,3.3991,3.3577,3.3326,3.3312,3.366,3.421,3.3591,3.2475,3.1044,3.043,2.9381,0.0,0.0,2.6456,2.5768,2.5443,2.4488,2.2824,2.0425,1.8509,1.6872,1.4268,1.2058,0.9891,0.0,0.0,0.0,0.0,0.0,0.0,0.0,0.0,0.0,0.0,0.0,0.0,0.0,0.0,0.0,0.0,0.0,0.0,0.0,0.0,3.5891,3.5893,3.6325,3.713,3.8422,3.8461,3.9279,4.0991,3.9753,3.8882,3.838,3.7972,3.8237,3.9104,4.0446,4.0792,4.0371,4.0896,4.1081,4.1032,0.0,0.0,0.0,0.0,0.0,0.0,0.0,0.0,0.0,0.0,3.8423,3.8018,3.7792,0.0,0.0,0.0,0.0,0.0,3.6878,3.6765,3.6844,3.7479,3.7285,3.7285,3.8323,3.8511,3.8733,3.9437,3.9575,3.9406,3.8888,0.0,3.8891,0.0,0.0,0.0,0.0,0.0,0.0,0.0,0.0,0.0,0.0,0.0,0.0,0.0,0.0,0.0,0.0,0.0,3.437,3.4045,3.3716,3.3507,3.3577,3.3382,3.3452,3.3799,3.3368,3.2632,3.1649,3.0355,2.9369,2.8621,0.0,2.6715,2.6373,2.579,2.4935,2.379,2.1248,1.9356,1.7517,1.3171,1.0476,0.8502,0.0,0.0,0.0,0.0,0.0,0.0,0.0,0.0,0.0,0.0,0.0,0.0,0.0,0.0,0.0,0.0,0.0,0.0,0.0,3.6133,3.6202,3.6202,3.6982,3.7715,3.84,3.8599,3.9365,4.0696,3.9996,3.9265,3.8537,3.8588,3.8771,3.9116,4.0441,4.0676,4.0156,4.0801,4.1055,4.0986,0.0,0.0,0.0,0.0,0.0,0.0,0.0,0.0,0.0,0.0,0.0,0.0,0.0,0.0,0.0,3.7259,3.7279,3.7337,3.7392,3.7405,3.7431,3.7399,3.7202,3.7161,3.7776,3.81,3.8518,3.9318,3.9262,3.906,0.0,3.848,0.0,0.0,0.0,0.0,0.0,0.0,0.0,0.0,0.0,0.0,0.0,0.0,0.0,0.0,0.0,0.0,0.0,0.0,3.4528,3.4099,3.3577,3.3452,3.3701,3.3452,3.3312,3.3382,3.3143,3.2846,3.2345,3.0581,2.9601,2.9291,2.7753,2.7067,2.6809,2.6041,2.5454,2.468,2.2082,1.9728,1.7238,1.2281,0.9288,0.7515,0.0,0.0,0.0,0.0,0.0,0.0,0.0,0.0,0.0,0.0,0.0,0.0,0.0,0.0,0.0,0.0,0.0,0.0,0.0,3.6699,3.7104,3.7106,3.7888,3.8345,3.8397,3.919,3.9657,3.9785,3.9617,3.9425,3.9232,3.9421,3.9936,4.0742,4.0979,4.1055,4.1016,4.1015,4.101,4.1006,4.0996,0.0,0.0,0.0,0.0,0.0,0.0,0.0,0.0,0.0,0.0,0.0,0.0,0.0,3.7108,3.7108,3.7108,3.7147,3.7337,3.7178,3.6972,3.7092,3.807,3.8786,3.8082,3.8739,3.9348,3.8936,3.8511,3.8294,0.0,3.8443,0.0,0.0,0.0,0.0,0.0,0.0,0.0,0.0,0.0,0.0,0.0,0.0,0.0,0.0,0.0,0.0,0.0,0.0,0.0,3.4978,3.3894,3.3326,3.3326,3.3326,3.3452,3.377,3.3437,3.2945,3.2331,3.1267,3.0279,2.9369,2.8259,2.7476,2.6891,2.6644,2.5884,2.468,2.2406,1.8959,1.4835,1.1628,0.9686,0.8411,0.0,0.0,0.0,0.0,0.0,0.0,0.0,0.0,0.0,0.0,0.0,0.0,0.0,0.0,0.0,0.0,0.0,0.0,0.0,3.7051,3.7436,3.7975,3.878,3.9215,3.9216,3.9527,3.9954,4.0459,3.9727,3.9373,3.9373,3.9445,3.9994,4.0907,4.1038,4.1094,4.1094,4.1034,4.1003,4.0984,4.0859,4.0667,0.0,0.0,0.0,0.0,0.0,0.0,0.0,0.0,3.8129,3.7632,3.7243,3.7069,3.7048,3.7048,3.7069,3.7147,3.7279,3.7132,3.6918,3.7084,3.7845,3.834,3.7525,3.7731,3.8517,3.989,3.9308,3.8606,0.0,0.0,0.0,0.0,0.0,0.0,0.0,0.0,0.0,0.0,0.0,0.0,0.0,0.0,0.0,0.0,0.0,0.0,0.0,0.0,0.0,3.478,3.4031,3.3521,3.3326,3.3326,3.3382,3.3521,3.3382,3.3171,3.2945,3.1955,3.1044,3.0279,2.8978,2.8063,2.7476,2.6974,2.6302,2.5253,2.2328,1.87,1.5007,1.2684,1.0649,0.8601,0.0,0.0,0.0,0.0,0.0,0.0,0.0,0.0,0.0,0.0,0.0,0.0,0.0,0.0,0.0,0.0,0.0,0.0,3.7628,3.7909,3.8317,3.8882,3.9708,4.0134,4.0107,4.0107,4.0254,4.0519,3.9707,3.9436,3.9644,3.9767,4.0192,4.0849,4.1013,4.1088,4.1074,4.1029,4.0955,4.0897,4.0757,4.0496,0.0,0.0,0.0,0.0,0.0,0.0,0.0,0.0,3.7946,3.7559,3.7185,3.7048,3.6987,3.6987,3.6952,3.6895,3.6992,3.6911,3.6853,3.6962,3.748,3.7872,3.7314,3.7437,3.8206,3.9821,3.9884,3.9508,3.8957,0.0,0.0,0.0,0.0,0.0,0.0,0.0,0.0,0.0,0.0,0.0,0.0,0.0,0.0,0.0,0.0,0.0,0.0,0.0,0.0,0.0,3.4476,3.3825,3.3632,3.3382,3.3326,3.3326,3.3326,3.3326,3.3255,3.2403,3.1723,3.1119,2.9576,2.8597,2.8087,2.7208,2.6207,2.4988,2.2073,1.88,1.5461,1.3442,1.1234,0.8803,0.0,0.0,0.0,0.0,0.0,0.0,0.0,0.0,0.0,0.0,0.0,0.0,0.0,0.0,0.0,0.0,0.0,0.0,3.844,3.9366,3.9863,3.9797,4.0621,4.1055,4.0993,4.1007,4.0583,3.9723,3.9444,3.9631,4.0215,4.0545,4.0694,4.0718,4.0986,4.1068,4.0992,4.1,4.0867,4.0692,4.0687,4.0287,3.9743,0.0,0.0,0.0,0.0,0.0,0.0,0.0,3.7577,3.7259,3.7066,3.6987,3.6987,3.6987,3.6713,3.6433,3.6433,3.6539,3.6678,3.67,3.7144,3.7556,3.7527,3.8253,3.8807,3.8372,4.0057,4.1019,3.9094,3.9901,0.0,0.0,0.0,0.0,0.0,0.0,0.0,0.0,0.0,0.0,0.0,0.0,0.0,0.0,0.0,0.0,0.0,0.0,0.0,0.0,3.521,3.4298,3.4312,3.3618,3.3326,3.3326,3.3326,3.3312,3.3255,3.2717,3.2187,3.1723,3.0126,2.9123,2.8639,2.7429,2.5684,2.3617,2.1649,1.909,1.6216,1.3634,1.1239,0.8916,0.0,0.0,0.0,0.0,0.0,0.0,0.0,0.0,0.0,0.0,0.0,0.0,0.0,0.0,0.0,0.0,0.0,0.0,3.8511,3.8826,3.9238,3.9774,4.0051,4.0433,4.0998,4.1006,4.0828,4.046,4.0397,4.0417,4.0559,4.0742,4.084,4.0852,4.1022,4.1053,4.0991,4.085,4.076,4.0648,4.0185,3.9889,3.9659,0.0,0.0,0.0,0.0,0.0,0.0,0.0,0.0,0.0,3.7066,3.6987,3.6987,3.6987,3.693,3.6834,3.6895,3.6644,3.6463,3.7045,3.7011,3.6987,3.7511,3.827,3.889,3.9166,4.0509,4.1171,3.983,0.0,0.0,0.0,0.0,0.0,0.0,0.0,0.0,0.0,0.0,0.0,0.0,0.0,0.0,0.0,0.0,0.0,0.0,0.0,0.0,0.0,3.5897,3.532,3.5059,3.4876,3.4743,3.4743,3.4743,3.4235,3.3326,3.3086,3.2717,3.2187,3.1415,3.0355,2.9045,2.7336,2.5852,2.4361,2.261,2.0631,1.8441,1.4968,1.2876,1.1258,0.0,0.0,0.0,0.0,0.0,0.0,0.0,0.0,0.0,0.0,3.5964,3.5957,0.0,0.0,0.0,0.0,0.0,0.0,0.0,3.857,3.8965,3.98,3.9841,4.021,4.1016,4.1003,4.096,4.0876,4.0829,4.0773,4.0706,4.084,4.0894,4.0916,4.1041,4.1029,4.0875,4.0754,4.0548,4.0268,3.985,3.9524,3.9226,0.0,0.0,0.0,0.0,0.0,0.0,0.0,0.0,0.0,3.7066,3.6987,3.697,3.6771,3.6591,3.6419,3.6345,3.6192,3.6205,3.6754,3.694,3.7209,3.8146,3.865,3.8955,0.0,4.0561,4.1289,4.007,0.0,0.0,0.0,0.0,0.0,0.0,0.0,0.0,0.0,0.0,0.0,0.0,0.0,0.0,0.0,0.0,0.0,0.0,0.0,0.0,0.0,3.643,3.5976,3.5785,3.5529,3.54,3.54,3.54,3.4942,3.4099,3.3825,3.3339,3.2717,3.1955,3.0895,2.9369,2.773,2.64,2.5262,2.3481,2.1444,1.9182,1.6195,1.3896,1.1968,0.0,0.0,0.0,0.0,0.0,0.0,0.0,0.0,0.0,0.0,3.589,3.5912,0.0,0.0,0.0,0.0,0.0,0.0,0.0,3.8465,3.8867,3.9746,3.9921,4.0351,4.1072,4.1042,4.1019,4.0998,4.0887,4.0787,4.0734,4.0859,4.0908,4.0925,4.1033,4.0925,4.0699,4.0643,4.0261,3.9702,3.9637,3.92,3.8615,3.867,0.0,0.0,0.0,0.0,0.0,0.0,0.0,0.0,3.7066,3.6987,3.693,3.6509,3.6062,3.5672,3.5449,3.5612,3.5904,3.614,3.6982,3.8011,3.9166,3.9206,3.9023,3.8952,0.0,4.1254,0.0,0.0,0.0,0.0,0.0,0.0,0.0,0.0,0.0,0.0,0.0,0.0,0.0,0.0,0.0,0.0,0.0,0.0,0.0,0.0,0.0,3.77,3.6937,3.6492,3.6492,3.5913,3.5593,0.0,3.5593,3.5529,3.54,3.4714,3.4016,3.3312,3.2101,3.0895,2.9756,2.8438,2.736,2.6322,2.4255,2.1887,1.9273,1.7345,1.4774,1.1964,0.0,0.0,0.0,0.0,0.0,0.0,0.0,0.0,0.0,0.0,0.0,0.0,0.0,0.0,0.0,0.0,0.0,0.0,0.0,3.7949,3.7968,3.8848,4.0136,4.0918,4.1103,4.1082,4.1042,4.1,4.0968,4.0957,4.0933,4.0955,4.1019,4.1051,4.092,4.0809,4.0662,4.0178,3.987,3.9659,3.9007,3.8681,3.8554,3.8117,3.7984,0.0,0.0,0.0,0.0,0.0,0.0,0.0,3.7066,3.6987,3.697,3.6952,3.6671,3.6457,3.6752,3.6521,3.6302,3.6876,3.744,3.8149,3.9193,3.9295,3.9365,4.0003,4.029,0.0,0.0,0.0,0.0,0.0,0.0,0.0,0.0,0.0,0.0,0.0,0.0,0.0,0.0,0.0,0.0,0.0,0.0,0.0,0.0,0.0,0.0,3.7539,3.7345,3.727,3.727,3.715,3.7029,0.0,3.7029,3.6631,3.5785,3.5059,3.4558,3.4074,3.2563,3.1756,3.1375,2.9369,2.8131,2.729,2.5009,2.3481,2.211,1.873,1.6498,1.4851,0.0,0.0,0.0,0.0,0.0,0.0,0.0,0.0,0.0,0.0,0.0,0.0,0.0,0.0,0.0,0.0,0.0,0.0,0.0,0.0,3.7693,3.8554,4.0234,4.1133,4.1092,4.1108,4.108,4.1058,4.1017,4.0998,4.0996,4.1027,4.1073,4.1088,4.0922,4.0683,4.0381,4.0024,3.9588,3.9122,3.8681,3.8428,3.8267,3.788,3.7739,3.781,3.7667,0.0,0.0,0.0,0.0,0.0,0.0,0.0,3.697,3.6816,3.6634,3.6529,3.6544,3.6498,3.675,3.7737,3.8131,3.8535,3.9473,3.9645,3.9714,4.0221,0.0,0.0,0.0,0.0,0.0,0.0,0.0,0.0,0.0,0.0,0.0,0.0,0.0,0.0,0.0,0.0,0.0,0.0,0.0,0.0,0.0,3.748,3.748,3.748,3.748,3.748,3.748,3.748,3.748,3.748,3.748,3.7029,3.6133,3.5103,3.4505,3.4249,3.3353,3.2975,3.2692,3.0917,2.9693,2.8736,2.664,2.5052,2.3565,2.1103,1.9026,1.7288,0.0,0.0,0.0,0.0,0.0,0.0,0.0,0.0,0.0,0.0,0.0,0.0,0.0,0.0,0.0,0.0,0.0,0.0,0.0,0.0,0.0,3.8787,4.0351,4.1172,4.1112,4.1111,4.1107,4.109,4.1041,4.1013,4.103,4.1054,4.1072,4.107,4.0921,4.0584,4.0111,3.9928,3.9395,3.8658,3.8554,3.8318,3.8002,3.7774,3.7703,3.7703,3.754,3.754,3.7577,3.7392,0.0,0.0,0.0,0.0,3.693,3.6638,3.6544,3.6388,3.6124,3.6427,3.7157,3.8395,3.8723,0.0,3.9783,4.0003,4.002,4.002,0.0,0.0,0.0,0.0,0.0,0.0,0.0,0.0,0.0,0.0,0.0,0.0,0.0,0.0,0.0,0.0,0.0,0.0,0.0,0.0,3.748,3.7583,3.7583,3.7583,3.77,3.77,3.77,3.7583,3.7583,3.7642,3.7524,3.7225,3.66,3.5365,3.4639,3.4356,3.4221,3.407,3.3851,3.2522,3.1309,3.0226,2.8706,2.6824,2.4923,2.3978,2.2093,1.9706,0.0,0.0,0.0,0.0,0.0,0.0,0.0,0.0,0.0,0.0,3.5727,3.5768,0.0,0.0,0.0,0.0,0.0,0.0,3.8194,0.0,0.0,3.9725,4.0664,4.1191,4.1191,4.1132,4.1093,4.1101,4.1093,4.1092,4.1093,4.1033,4.0976,4.091,4.0726,4.0501,4.0245,3.9816,3.9371,3.8915,3.8628,3.8368,3.814,3.7828,3.7757,3.7775,3.7206,3.7243,3.754,3.7052,3.7087,0.0,0.0,0.0,3.7066,3.7223,3.7039,3.684,3.7212,3.7381,3.7605,3.8477,3.8707,3.8941,0.0,0.0,3.9969,0.0,0.0,0.0,0.0,0.0,0.0,0.0,0.0,0.0,0.0,0.0,0.0,0.0,0.0,0.0,0.0,0.0,0.0,0.0,0.0,0.0,3.7539,3.7844,3.8001,3.8001,3.8399,3.8639,3.8639,3.7911,3.7796,3.8173,3.7653,3.7358,3.7238,3.6784,3.6117,3.5279,3.4758,3.4528,3.4394,3.3408,3.2379,3.1436,3.097,2.9475,2.7476,2.6775,2.5133,2.3075,0.0,0.0,0.0,0.0,0.0,0.0,0.0,0.0,0.0,0.0,0.0,3.5727,0.0,0.0,0.0,3.6434,3.7398,3.8346,3.9217,3.9676,3.9896,3.9896,4.0701,4.1132,4.1132,4.1111,4.1086,4.1041,4.1034,4.1035,4.1035,4.1013,4.0961,4.0885,4.0734,4.0438,4.0062,3.9576,3.9163,3.8799,3.8378,3.8113,3.7909,3.7498,3.7358,3.7283,3.7018,3.7017,3.7206,3.7261,3.7317,3.7354,3.7354,0.0,0.0,0.0,3.7246,3.7248,3.7688,3.7634,3.7756,3.8904,3.9209,3.9437,4.0286,0.0,0.0,0.0,0.0,0.0,0.0,0.0,0.0,0.0,0.0,0.0,0.0,0.0,0.0,0.0,0.0,0.0,0.0,0.0,0.0,0.0,0.0,3.8415,3.8246,3.8415,3.8511,3.8511,3.8678,3.8694,3.8511,3.8141,3.8042,3.8075,3.7786,3.761,3.7417,3.7222,3.686,3.6258,3.6024,3.5867,3.5804,3.516,3.466,3.4209,3.3603,3.2349,3.0909,3.035,2.8799,2.6724,0.0,0.0,0.0,0.0,0.0,0.0,0.0,0.0,0.0,0.0,0.0,0.0,0.0,0.0,0.0,0.0,3.7274,3.8623,3.9735,4.0057,4.0196,4.0171,4.0773,4.1089,4.1066,4.0884,4.0767,4.0713,4.0503,4.0488,4.0663,4.0662,4.0723,4.083,4.0699,4.0358,3.9848,3.9486,3.909,3.8688,3.8316,3.8039,3.7784,3.7311,3.7064,3.6891,3.6783,3.6821,3.6939,3.7281,3.7411,3.7429,3.7429,3.7392,0.0,0.0,0.0,3.7506,3.7713,3.7578,3.7734,3.8938,3.936,3.9682,0.0,0.0,0.0,0.0,0.0,0.0,0.0,0.0,0.0,0.0,0.0,0.0,0.0,0.0,0.0,0.0,0.0,0.0,0.0,0.0,0.0,0.0,0.0,3.8914,3.8805,3.8914,3.8952,3.8952,3.9061,3.9007,3.8662,3.8495,3.8286,3.8075,3.8189,3.8157,3.8067,3.8067,3.7921,3.7674,3.7263,3.7203,3.7322,3.7062,3.6939,3.6862,3.644,3.5439,3.4095,3.3993,3.2458,3.031,0.0,0.0,0.0,0.0,0.0,0.0,0.0,0.0,0.0,0.0,0.0,0.0,3.5495,3.564,3.5706,3.5715,3.6664,3.799,3.9696,4.0582,4.1007,4.0944,4.1033,0.0,4.1007,4.032,3.9958,3.9958,3.9121,3.9071,3.9774,3.9778,4.0071,4.0617,4.0535,4.0266,3.9785,3.9717,3.9294,3.8695,3.8685,3.8374,3.7953,3.7473,3.717,3.6918,3.6431,3.6522,3.69,3.6939,3.715,3.7429,3.754,3.7447,3.7334,0.0,0.0,0.0,3.7222,3.737,3.7696,3.807,3.8672,3.9287,0.0,0.0,0.0,0.0,0.0,0.0,0.0,0.0,0.0,0.0,0.0,0.0,0.0,0.0,0.0,0.0,0.0,0.0,0.0,0.0,0.0,0.0,0.0,3.9222,3.8805,3.9169,3.9365,3.9365,3.9799,3.9918,3.9609,3.9077,3.8662,3.8446,3.892,3.9401,3.9834,3.9834,3.9834,3.9783,3.8277,3.7947,3.8449,3.8934,3.8937,3.8679,3.9739,3.8727,3.6751,3.7358,3.6,3.3708,0.0,0.0,0.0,0.0,0.0,0.0,0.0,0.0,0.0,0.0,0.0,0.0,0.0,3.5463,3.5557,3.5499,3.691,3.8283,3.9474,4.0404,4.091,4.0874,4.0896,4.089,4.087,4.0064,3.9636,3.9636,3.8809,3.8522,3.873,3.8775,3.8869,3.902,3.9513,3.9785,3.9797,3.902,3.8723,3.8755,3.851,3.8262,3.7905,3.7137,3.6928,3.6966,0.0,0.0,3.6485,3.6792,3.678,3.6701,3.7034,3.7091,3.7129,3.7503,3.7577,3.7609,3.7673,3.7777,3.7955,3.8322,3.8802,3.9231,3.9682,0.0,0.0,0.0,0.0,0.0,0.0,0.0,0.0,0.0,0.0,0.0,0.0,0.0,0.0,0.0,0.0,0.0,0.0,0.0,0.0,0.0,0.0,0.0,3.9644,3.9747,3.9952,4.017,4.0336,4.0385,4.0269,3.9817,3.9542,3.9473,3.9645,3.98,4.0003,4.0003,4.0334,4.0814,4.0808,4.0458,3.9927,4.0045,4.0426,4.1079,4.1681,4.1268,4.036,4.0579,3.9343,3.743,0.0,0.0,0.0,0.0,0.0,0.0,0.0,0.0,0.0,3.5089,0.0,0.0,0.0,0.0,3.5457,3.5437,3.7065,3.836,3.8924,4.007,4.0729,4.0738,4.0791,4.0791,4.0772,3.9384,3.8792,3.9102,3.7741,3.7308,3.7808,3.7844,3.7947,3.811,3.8323,3.8776,3.9296,3.8456,3.8319,3.8683,3.8411,3.8335,3.8212,3.7254,3.7119,0.0,0.0,0.0,0.0,0.0,3.6911,3.6671,3.7015,3.715,3.7206,3.7503,3.7577,3.7647,3.7803,3.7849,3.7945,3.8285,3.8614,3.8952,3.9502,0.0,0.0,0.0,0.0,0.0,0.0,0.0,0.0,0.0,0.0,0.0,0.0,0.0,0.0,0.0,0.0,0.0,0.0,0.0,0.0,0.0,0.0,0.0,4.0254,4.0254,4.0402,4.0724,4.0676,4.0611,4.0528,4.0203,4.0103,4.0252,4.0383,4.0528,4.072,4.0844,4.1353,4.2184,4.2723,4.2485,4.1709,4.2056,4.2669,4.3389,4.3776,4.3553,4.3063,4.3046,4.2142,4.0718,0.0,0.0,0.0,0.0,0.0,0.0,0.0,0.0,3.4612,3.487,0.0,0.0,0.0,0.0,0.0,3.5483,3.7058,3.8067,3.809,3.9637,4.0572,4.059,4.0726,4.0768,4.0694,3.8307,3.7475,3.8291,3.5856,3.5458,3.6952,3.6957,3.7344,3.799,3.7068,3.7258,3.8221,3.8131,3.8236,3.8506,3.845,3.8634,3.8858,3.7895,0.0,0.0,3.7229,3.6956,0.0,3.7354,0.0,0.0,0.0,0.0,3.7577,3.7577,3.7594,3.7577,0.0,0.0,0.0,3.7928,0.0,0.0,0.0,0.0,0.0,0.0,0.0,0.0,0.0,0.0,0.0,0.0,0.0,0.0,0.0,0.0,0.0,0.0,0.0,0.0,0.0,0.0,0.0,0.0,0.0,4.0254,4.0628,4.0628,4.0724,4.1024,4.0802,4.0594,4.0449,4.0186,4.0351,4.0849,4.1185,4.1604,4.2181,4.2508,4.3098,4.3876,4.3895,4.3854,4.384,4.5106,4.5569,4.5521,4.5963,4.5594,4.4761,4.4761,4.4269,4.3558,0.0,0.0,0.0,0.0,0.0,3.5072,3.4908,3.4831,3.4831,0.0,0.0,0.0,3.4751,3.4927,3.507,3.519,3.6269,3.7179,3.7766,3.8873,3.9772,4.037,4.0504,4.0569,4.0558,3.9301,3.8491,3.8167,3.6927,3.6239,3.6055,3.6118,3.6184,3.6278,3.5965,3.6205,3.6881,3.7178,3.7865,3.8792,3.9095,3.8933,0.0,0.0,0.0,0.0,0.0,3.7068,3.7065,0.0,3.6781,3.6632,0.0,0.0,3.7577,3.7577,3.754,3.7466,3.7466,0.0,0.0,0.0,0.0,0.0,0.0,0.0,0.0,0.0,0.0,0.0,0.0,0.0,0.0,0.0,0.0,0.0,0.0,0.0,0.0,0.0,0.0,0.0,0.0,0.0,0.0,0.0,4.0645,4.0819,4.1007,4.1209,4.13,4.13,4.164,4.1813,4.177,4.1839,4.1966,4.211,4.2192,4.2619,4.3355,4.3679,4.4363,4.5352,4.6172,4.6607,4.6683,4.6186,4.6266,4.674,4.7265,4.7253,4.688,4.688,4.657,4.6063,0.0,0.0,0.0,0.0,0.0,3.487,3.463,3.4505,3.4483,0.0,0.0,0.0,3.4628,3.4771,3.4908,3.5001,3.5872,3.6781,3.7602,3.8551,3.9428,4.0269,4.0379,4.0449,4.0502,3.9327,3.8513,3.8098,3.7005,3.622,3.5788,3.5786,3.5762,3.5676,3.5543,3.5864,3.6504,3.6892,3.7598,0.0,3.9082,0.0,0.0,3.8645,3.8603,0.0,0.0,0.0,3.7724,3.7295,3.6992,0.0,0.0,0.0,0.0,0.0,3.7503,3.7392,3.7392,3.7354,3.7334,3.7392,0.0,0.0,3.7845,3.8067,0.0,0.0,0.0,0.0,0.0,0.0,0.0,0.0,0.0,0.0,0.0,0.0,0.0,0.0,0.0,0.0,0.0,0.0,0.0,4.0693,4.0853,4.1024,4.1255,4.1701,4.1874,4.1788,4.221,4.2472,4.2409,4.253,4.2771,4.3095,4.3335,4.3886,4.4669,4.518,4.5912,4.6843,4.7535,4.814,4.8577,4.7858,4.7665,4.7917,4.8218,4.8292,4.82,4.8218,4.8163,4.8087,0.0,0.0,3.2826,3.2556,3.3677,3.4529,3.4274,3.4023,3.3921,0.0,3.4173,3.4298,3.4632,3.471,3.4769,3.4831,3.5609,3.6445,3.7338,3.8252,3.9165,4.008,4.0213,4.0325,4.0466,3.8969,3.8195,3.8233,3.6735,3.5996,3.6025,3.5884,3.5811,3.5788,3.5609,3.592,3.6608,3.6995,0.0,3.7875,3.8738,3.9177,0.0,0.0,3.8956,3.8889,3.8352,3.8403,3.8622,3.8019,3.7724,0.0,0.0,0.0,0.0,0.0,3.752,3.7443,3.7372,3.7317,3.7297,3.7354,0.0,0.0,3.7462,3.7568,3.7804,0.0,0.0,0.0,0.0,0.0,0.0,0.0,0.0,0.0,0.0,0.0,0.0,0.0,0.0,0.0,0.0,4.0888,4.0871,4.0918,4.1012,4.118,4.1463,4.2092,4.2414,4.2328,4.2613,4.2765,4.2775,4.2814,4.3271,4.4126,4.4619,4.5321,4.6165,4.6806,4.7531,4.8303,4.8332,4.8881,4.974,4.9712,4.9412,4.8949,4.8949,4.9001,4.907,4.9052,4.9334,4.9651,0.0,3.1888,3.2872,3.2569,3.3805,3.4755,3.4486,3.4274,3.4148,3.4197,3.4074,3.4099,3.4431,3.4363,3.434,3.4409,3.457,3.509,3.5998,3.6848,3.7829,3.8972,3.9619,4.0101,4.0325,4.0123,3.9696,3.9065,3.821,3.7474,3.6845,3.6191,3.5857,3.5805,3.5704,3.5715,3.5881,3.702,0.0,3.7181,3.8992,0.0,3.9126,3.9727,3.9496,3.883,3.8559,3.8411,3.829,3.8286,3.8387,3.8478,0.0,0.0,0.0,0.0,0.0,0.0,0.0,0.0,0.0,0.0,0.0,0.0,3.7303,3.7396,3.7562,0.0,0.0,0.0,0.0,0.0,0.0,0.0,0.0,0.0,0.0,0.0,0.0,0.0,0.0,0.0,0.0,4.0631,4.0918,4.0995,4.1666,4.211,4.2103,4.2436,4.2613,4.253,4.2806,4.3248,4.3883,4.4163,4.4837,4.5888,4.6023,4.6629,4.7679,4.807,4.8708,4.9484,4.9733,4.9967,5.012,5.0249,5.0187,5.0005,4.9949,5.0016,5.0103,5.0099,5.0141,5.0164,3.0615,3.1799,3.276,3.2452,3.3677,3.4591,3.4302,3.4179,3.4099,3.4049,3.3998,3.4023,3.4173,3.4197,3.4221,3.4245,3.4321,3.4726,3.5595,3.6466,3.7427,3.8452,3.9267,3.9835,4.0101,4.0196,3.9931,3.9297,3.9034,3.8276,3.7094,3.6718,3.6235,3.5645,3.5693,3.5599,3.5512,0.0,3.7205,3.7643,3.8828,0.0,3.8868,3.9282,3.936,3.9295,3.9152,3.9044,3.9016,3.9396,3.9163,0.0,0.0,3.8599,3.8397,0.0,3.7812,3.7772,0.0,0.0,0.0,3.7069,0.0,0.0,0.0,3.7108,3.7234,0.0,0.0,0.0,0.0,0.0,0.0,0.0,0.0,0.0,0.0,0.0,0.0,0.0,0.0,0.0,0.0,4.0728,4.1041,4.1328,4.1899,4.2292,4.2333,4.2652,4.2948,4.3246,4.3518,4.4163,4.5205,4.5349,4.6015,4.7159,4.7317,4.7913,4.8909,4.934,4.9782,5.021,5.0448,5.0529,5.0509,5.0567,5.0604,5.0621,5.0452,5.051,5.0657,5.0621,5.0638,5.0711,3.0593,3.175,3.2661,3.2402,3.3559,3.4431,3.4148,3.4049,3.3972,3.386,3.3921,3.3947,3.3842,3.4127,3.4321,3.4321,3.4593,3.4987,3.5515,3.6545,3.7379,3.7971,3.8902,3.9556,3.9816,3.9922,3.9813,3.9432,3.9445,3.8808,3.7559,3.7296,3.6699,3.5818,3.5868,3.5715,3.5432,0.0,0.0,3.8075,0.0,3.8758,3.9147,3.9174,3.9512,3.9986,3.9783,3.9834,4.0069,4.0357,3.9761,3.8928,3.9003,3.8781,0.0,0.0,0.0,0.0,0.0,0.0,0.0,0.0,0.0,3.7036,0.0,0.0,0.0,3.7279,0.0,0.0,0.0,0.0,0.0,0.0,0.0,0.0,0.0,0.0,0.0,0.0,0.0,0.0,0.0,4.0585,4.0924,4.1735,4.1843,4.2083,4.2673,4.3003,4.3518,4.4198,4.4543,4.5314,4.6424,4.6511,4.7084,4.8241,4.8501,4.9041,4.9795,5.0249,5.0486,5.0625,5.0694,5.0778,5.079,5.079,5.0865,5.0998,5.0751,5.077,5.0965,5.0903,5.0992,5.1125,3.0519,3.178,3.282,3.2607,3.3696,3.4567,3.4454,3.4245,3.3972,3.3671,3.3807,3.3734,3.325,3.4178,3.4825,3.4835,3.5607,0.0,3.5369,0.0,3.7413,3.6894,3.8338,3.9272,3.9532,3.9791,3.9906,3.991,3.9518,3.929,3.9196,3.7779,3.7046,3.6913,3.6747,3.63,3.5747,0.0,3.7469,0.0,3.7548,3.8953,0.0,4.1086,4.0978,4.0642,4.0349,4.0414,4.0586,0.0,3.9901,3.9826,0.0,3.8953,3.9188,0.0,0.0,0.0,0.0,0.0,0.0,0.0,3.7009,0.0,0.0,0.0,3.7267,3.7298,0.0,0.0,0.0,0.0,0.0,0.0,0.0,0.0,0.0,0.0,0.0,0.0,0.0,0.0,0.0,0.0,4.0134,4.208,4.1393,4.1705,4.361,4.4028,4.458,4.5381,4.5791,4.6391,4.7257,4.7564,4.8278,4.9408,4.9437,4.9692,5.0139,5.0212,5.0377,5.0587,5.0606,5.0678,5.0805,5.0972,5.1062,5.1074,5.0907,5.0979,5.1161,5.1159,5.122,5.1269,3.0579,3.1696,3.2645,3.2556,3.3639,3.4476,3.4245,3.385,3.3522,3.3386,3.3368,3.3291,3.3086,0.0,0.0,0.0,0.0,3.5141,0.0,0.0,3.6567,3.5866,3.7342,3.8403,3.8915,3.9264,3.9599,3.9943,3.9859,3.9702,3.9481,3.8371,3.7528,3.6918,3.6851,0.0,3.6144,0.0,3.7426,0.0,0.0,0.0,0.0,3.9696,3.9931,4.0645,4.1181,4.1401,4.1445,0.0,4.0609,0.0,0.0,0.0,0.0,0.0,0.0,0.0,0.0,0.0,0.0,0.0,0.0,0.0,3.5925,0.0,3.6006,0.0,0.0,0.0,0.0,0.0,0.0,0.0,0.0,0.0,0.0,0.0,0.0,0.0,0.0,0.0,0.0,0.0,0.0,0.0,0.0,4.2196,4.4025,4.4722,4.5494,4.6431,4.6618,4.7344,4.8632,4.8759,4.9171,4.9887,5.0012,5.0159,5.038,5.0567,5.0745,5.0894,5.0959,5.1042,5.11,5.1181,5.122,5.1201,5.1152,5.1181,5.1258,5.1261,5.1252,5.1245,3.0881,3.1782,3.2534,3.249,3.3638,3.4454,3.4055,3.356,3.3202,3.3111,0.0,0.0,3.2784,3.3319,0.0,0.0,3.5387,3.552,0.0,0.0,3.6243,3.5519,3.6585,0.0,0.0,3.883,3.9186,3.9668,3.9986,4.0004,3.973,3.9035,3.8199,3.7269,0.0,3.692,3.6502,0.0,3.7553,3.8546,3.8442,3.8771,3.9275,3.8868,3.9381,4.0495,4.154,4.1843,4.1753,4.1813,4.1096,0.0,4.081,0.0,0.0,0.0,0.0,0.0,3.7422,0.0,0.0,0.0,0.0,0.0,0.0,0.0,0.0,0.0,0.0,0.0,0.0,0.0,3.7292,3.7381,0.0,0.0,0.0,0.0,0.0,0.0,0.0,0.0,0.0,0.0,0.0,4.2472,4.2069,4.2649,4.4774,4.5464,4.6275,4.7407,4.7537,4.8221,4.951,4.9617,4.9805,5.0108,5.0313,5.0425,5.0507,5.0793,5.0985,5.1097,5.1191,5.1284,5.1335,5.1308,5.1308,5.1335,5.133,5.1323,5.13,5.1308,5.1264,5.123,3.1504,3.2231,3.2626,3.2422,3.3715,3.4612,3.408,0.0,0.0,0.0,0.0,0.0,0.0,0.0,0.0,0.0,0.0,3.8089,3.6268,0.0,3.6953,3.6203,3.6338,3.725,0.0,0.0,3.8696,3.9125,3.9712,4.0133,4.0366,3.9742,3.9096,3.8436,3.8235,3.7611,3.6729,3.7384,3.7941,3.8407,3.8407,3.8072,3.7776,0.0,4.0329,4.0324,4.1115,0.0,0.0,4.126,4.1225,0.0,0.0,0.0,0.0,0.0,0.0,0.0,0.0,0.0,0.0,3.5223,0.0,0.0,0.0,0.0,3.5101,0.0,0.0,0.0,0.0,0.0,3.6522,3.6877,3.7325,0.0,0.0,0.0,0.0,0.0,0.0,0.0,0.0,0.0,0.0,4.3012,4.1992,4.275,4.6255,4.645,4.7037,4.8329,4.8672,4.9094,4.9598,4.9914,5.0082,5.0108,5.0313,5.0425,5.0507,5.064,5.0845,5.1092,5.1097,5.122,5.1394,5.1336,5.1343,5.1394,5.1394,5.1362,5.1297,5.1303,5.1294,5.1307,3.257,3.3128,3.3521,0.0,0.0,0.0,0.0,3.3361,0.0,0.0,0.0,0.0,0.0,0.0,3.4424,0.0,0.0,3.6504,3.5711,3.6023,0.0,0.0,0.0,3.6427,0.0,0.0,0.0,0.0,3.9476,3.9849,4.0185,3.9638,3.9343,3.9266,3.8437,3.8141,0.0,0.0,0.0,0.0,0.0,3.7723,3.7992,0.0,0.0,3.9028,4.0348,4.0669,0.0,4.1166,4.087,4.041,4.1067,4.0583,3.9841,4.0081,3.9703,0.0,0.0,0.0,3.7939,3.6057,0.0,0.0,0.0,0.0,0.0,0.0,0.0,0.0,0.0,3.589,3.6708,3.659,3.7358,3.7807,0.0,0.0,0.0,0.0,0.0,0.0,0.0,0.0,0.0,4.3084,4.2809,4.3707,4.6341,4.7011,4.77,4.864,4.8813,4.924,4.9914,5.0089,5.0259,5.0423,5.0586,5.0745,5.0908,5.1035,5.1152,5.1234,5.1226,5.1289,5.1394,5.1388,5.1388,5.1394,5.1405,5.138,5.1355,5.1316,5.1307,5.1313,3.3461,3.3775,0.0,0.0,0.0,0.0,0.0,0.0,0.0,0.0,3.2988,0.0,3.3154,0.0,3.4165,0.0,3.6103,3.6064,3.5439,3.5869,0.0,3.4942,3.5435,0.0,0.0,0.0,0.0,0.0,0.0,3.9702,4.0089,3.987,3.9751,3.9666,3.8924,3.8782,3.9065,0.0,3.8539,0.0,0.0,3.7442,0.0,0.0,3.8058,3.8297,0.0,4.0162,4.0059,4.0798,4.0538,4.0146,4.128,4.0855,4.0082,4.069,4.0377,3.9722,3.9283,3.9101,0.0,3.6746,3.6289,0.0,3.3969,0.0,0.0,0.0,0.0,0.0,0.0,0.0,3.653,3.6702,3.7624,3.8183,0.0,3.8249,0.0,0.0,0.0,0.0,0.0,0.0,4.0174,4.2485,4.2977,4.4071,0.0,0.0,4.8192,4.8832,4.9048,4.9472,5.0133,5.0188,5.0374,5.0587,5.0728,5.0918,5.1105,5.1248,5.1303,5.1343,5.1343,5.1355,5.1411,5.1405,5.1405,5.1391,5.1401,5.1396,5.1391,5.1346,5.131,5.131,0.0,0.0,0.0,0.0,3.4026,0.0,0.0,0.0,3.3055,0.0,3.3172,3.3184,3.3343,3.4196,3.5057,3.5715,3.6802,0.0,3.5508,3.6425,0.0,0.0,3.6302,3.7421,3.9165,0.0,0.0,0.0,0.0,0.0,4.0074,4.0429,4.0283,3.976,3.9721,0.0,3.9157,3.9189,3.9362,3.951,3.798,3.7279,3.7103,3.7099,3.7435,3.8126,3.9478,3.9748,3.9568,4.0182,4.0203,4.0101,4.0744,4.0707,4.0533,4.1156,4.1202,4.0706,3.9539,3.9025,3.8512,3.7318,0.0,0.0,0.0,0.0,3.4481,0.0,0.0,0.0,0.0,0.0,3.6139,3.7184,3.8058,3.8609,3.8609,3.8884,0.0,0.0,0.0,0.0,0.0,0.0,3.984,4.1487,4.2505,0.0,0.0,0.0,4.8403,4.8897,4.9352,4.9787,5.0188,5.0259,5.0399,5.0606,5.0745,5.0898,5.1117,5.1245,5.1343,5.1394,5.1394,5.1391,5.1394,5.1406,5.1406,5.1394,5.1394,5.1406,5.1401,5.1408,5.1357,5.1296,3.5297,3.5155,3.4852,0.0,3.4274,3.4123,0.0,0.0,0.0,0.0,3.3662,3.3716,3.4012,3.4215,3.4618,3.5293,3.6176,0.0,0.0,0.0,0.0,3.676,3.6856,3.7576,3.9008,3.8603,0.0,3.9101,0.0,0.0,3.9678,4.0255,4.0525,4.0498,0.0,0.0,4.0102,3.9481,3.909,3.8852,3.842,3.7917,0.0,0.0,3.8301,3.8647,3.9144,3.918,3.9093,3.9749,3.9758,3.9625,4.0103,4.0139,4.0157,4.0771,4.0709,4.0463,4.0761,4.0589,4.006,3.8841,3.85,3.8139,0.0,0.0,0.0,0.0,0.0,0.0,0.0,0.0,0.0,3.6673,3.775,3.867,3.8609,0.0,0.0,3.9101,0.0,0.0,0.0,0.0,4.0818,4.2842,4.2677,0.0,0.0,0.0,0.0,4.8795,4.934,4.9759,5.0133,5.0255,5.0445,5.0745,5.0786,5.0952,5.1253,5.1336,5.138,5.1391,5.1391,5.1401,5.1394,5.139,5.139,5.1394,5.1394,5.1401,5.138,5.1341,5.1308,5.1221,3.5709,0.0,0.0,3.4614,0.0,0.0,3.3902,0.0,0.0,3.3972,3.3921,0.0,3.4197,3.4197,3.4501,3.5235,3.568,0.0,0.0,0.0,0.0,3.7323,3.7839,3.8442,3.9197,3.898,0.0,3.9272,0.0,0.0,3.9781,4.026,4.063,4.083,0.0,4.0359,4.0536,3.9772,3.9205,3.8764,3.8575,0.0,0.0,3.8404,3.8801,3.9223,3.9321,3.9219,3.9092,3.9294,3.9213,3.9101,3.9445,3.9548,3.9613,4.0179,4.0147,4.012,4.0867,4.0812,4.0464,4.0122,4.0053,3.9695,3.8415,3.7988,3.7697,0.0,0.0,0.0,0.0,0.0,0.0,3.7299,3.83,0.0,0.0,0.0,0.0,0.0,0.0,0.0,0.0,0.0,0.0,0.0,0.0,0.0,0.0,0.0,0.0,4.7905,4.8485,4.9226,5.0089,4.9557,4.9798,5.0801,5.0797,5.0989,5.1343,5.138,5.1391,5.1396,5.1341,5.1316,5.1322,5.1252,5.1238,5.1199,5.0801,5.0661,5.0607,5.0131,5.0218,5.048,0.0,0.0,0.0,0.0,0.0,0.0,0.0,3.385,0.0,3.4208,0.0,3.408,3.4232,3.4279,3.4572,3.5206,0.0,3.5568,3.6057,3.7136,3.7745,3.7682,3.8777,3.9438,3.9551,3.9526,0.0,0.0,0.0,0.0,3.9775,4.0041,4.0327,4.0558,0.0,0.0,0.0,3.9941,3.9395,3.8917,3.871,3.8599,3.8612,3.8685,3.9154,3.9712,3.9698,3.9583,3.9376,3.899,3.8778,3.8695,3.8882,3.8923,3.8995,3.9536,3.9611,3.9633,4.0305,4.0245,4.0219,4.0969,4.1171,4.0911,3.9713,3.9441,3.9122,3.7807,3.7486,3.7376,0.0,0.0,0.0,3.8407,0.0,0.0,0.0,0.0,0.0,0.0,0.0,0.0,0.0,0.0,0.0,0.0,0.0,0.0,0.0,0.0,0.0,4.7147,4.7783,4.8651,4.979,0.0,4.9064,5.0497,5.0738,5.1042,5.14,5.1386,5.1372,5.1366,5.1238,5.1167,5.1159,5.0936,5.0763,5.0557,4.9744,4.9433,4.9315,4.828,4.8435,4.9059,0.0,0.0,0.0,0.0,0.0,3.5031,3.4916,3.4478,3.4292,3.466,3.4659,3.4756,3.4996,3.4924,3.4793,3.467,3.5254,0.0,0.0,0.0,0.0,3.8072,3.8573,3.9145,3.9826,3.9665,3.926,0.0,0.0,0.0,3.7965,3.8339,3.8601,3.8763,0.0,0.0,3.9529,3.9307,0.0,3.8674,3.9461,3.9288,3.859,3.9267,3.9626,3.9758,3.9575,3.9588,3.9602,3.9298,3.9137,3.896,3.875,3.8467,3.8361,3.8959,3.895,3.8954,3.9713,3.9764,3.9775,4.0531,4.0707,4.0813,4.1113,4.1095,4.099,4.0883,4.0666,4.033,3.9743,0.0,0.0,0.0,0.0,0.0,0.0,0.0,0.0,0.0,0.0,0.0,0.0,0.0,0.0,0.0,0.0,0.0,0.0,0.0,0.0,0.0,4.9424,0.0,0.0,0.0,4.9724,4.8926,5.0363,5.1176,5.1391,5.1297,5.1238,5.123,5.1084,5.1031,5.0973,5.0281,4.9477,4.8645,4.823,4.8056,4.7929,4.68,4.632,4.6269,0.0,0.0,0.0,0.0,0.0,0.0,0.0,3.4995,0.0,3.4958,3.4914,3.4899,3.4969,3.5043,3.4924,3.4593,3.5011,3.5402,3.5642,3.6227,3.7005,3.7942,3.8575,0.0,3.9546,3.989,3.9508,3.8354,0.0,0.0,3.7395,3.7868,3.8178,3.8362,0.0,3.8995,0.0,0.0,0.0,3.9097,3.9477,3.9378,3.9058,3.9453,3.9623,3.9623,3.9427,3.9324,3.9298,3.9324,3.9272,3.9137,3.8807,3.8535,3.8372,3.8486,3.8331,3.8271,3.8975,3.9071,3.9128,3.9905,4.0205,4.0392,4.066,4.1014,4.1304,4.1345,4.158,4.1517,4.0745,3.9625,0.0,0.0,0.0,0.0,0.0,0.0,0.0,0.0,0.0,0.0,0.0,0.0,0.0,0.0,0.0,0.0,0.0,0.0,0.0,0.0,0.0,0.0,0.0,0.0,0.0,4.846,4.9372,4.9878,4.9997,4.9932,4.9882,4.979,4.9652,4.9542,4.9408,4.888,4.8221,4.7467,4.6816,4.6315,4.587,4.4824,4.4202,4.3934,0.0,3.5648,0.0,0.0,3.5399,0.0,3.5256,3.5412,3.5482,3.5261,3.5147,3.5066,3.5021,3.5132,3.5095,3.4775,3.4887,3.5209,3.5759,3.5969,3.6525,3.749,3.8216,3.8781,3.9177,3.9883,3.9663,0.0,0.0,0.0,0.0,3.7482,3.7741,0.0,0.0,0.0,0.0,0.0,3.9151,3.9382,3.9242,3.9279,3.9414,3.9364,3.9389,3.9408,3.9165,3.898,3.8886,3.9173,3.9173,3.9064,3.8789,3.8628,3.8428,3.8135,3.7915,3.7847,3.8251,3.8315,3.8376,3.9213,3.9605,3.9812,3.9935,4.0456,4.0945,4.0966,4.1594,4.1915,4.0924,4.0253,0.0,0.0,0.0,0.0,0.0,0.0,0.0,0.0,0.0,0.0,0.0,0.0,0.0,0.0,0.0,0.0,0.0,0.0,0.0,0.0,0.0,4.7717,4.8005,0.0,4.7453,4.7874,4.8341,4.8611,4.8682,4.8639,4.8536,4.8429,4.8275,4.7964,4.7511,4.7158,4.669,4.6092,4.5114,4.4383,4.3723,4.2573,4.1934,4.1604,0.0,0.0,0.0,0.0,0.0,0.0,0.0,3.572,3.5742,3.565,3.5627,3.565,3.5708,3.5679,3.5531,3.5254,3.5254,3.5215,3.5098,3.5277,3.5765,3.6593,3.6818,3.7649,3.917,3.9277,3.9285,0.0,0.0,0.0,0.0,3.6268,0.0,0.0,0.0,0.0,0.0,3.8042,3.8298,3.8722,3.9044,3.9178,3.9125,3.9008,3.9036,3.9099,3.8828,3.8688,3.8628,3.873,3.8628,3.8478,3.8446,3.83,3.8119,3.7951,3.7899,3.7828,3.772,3.761,3.7676,3.8475,3.8709,3.8963,3.9871,4.0085,4.0253,4.0722,4.1572,4.1784,4.0505,4.0689,4.0935,0.0,0.0,0.0,0.0,0.0,0.0,0.0,0.0,0.0,0.0,0.0,0.0,0.0,0.0,0.0,0.0,0.0,0.0,4.6436,0.0,4.6166,4.4833,4.6997,4.7429,4.6162,4.7745,4.8536,4.8602,4.8424,4.8305,4.8226,4.803,4.7201,4.5949,4.5391,4.4623,4.3693,4.2665,4.2181,4.1843,4.0027,3.9311,3.8973,0.0,0.0,0.0,0.0,0.0,0.0,0.0,3.5424,3.5482,3.5461,3.5664,3.5834,3.586,3.5797,3.5677,3.5446,3.5482,3.5452,3.524,3.5399,3.5624,3.5953,3.6473,3.7045,3.7691,3.8203,3.8241,0.0,0.0,0.0,0.0,0.0,0.0,0.0,0.0,3.6489,3.7239,3.7387,3.7627,3.7962,3.8387,3.8511,3.848,3.8436,3.8468,3.8449,3.8096,3.7859,3.7738,3.7631,3.8029,3.8504,3.8423,3.8314,3.8135,3.7897,3.765,3.7485,3.7503,3.7337,3.735,3.7858,3.8021,3.813,3.8672,3.9084,3.9426,3.9767,4.0613,4.1134,4.061,4.011,4.021,0.0,0.0,0.0,0.0,0.0,0.0,0.0,0.0,0.0,0.0,0.0,0.0,0.0,0.0,0.0,0.0,0.0,0.0,4.514,0.0,4.6711,4.5189,4.6756,4.6969,4.5854,4.6585,4.6937,4.6899,4.6714,4.6376,4.5957,4.5778,4.5003,4.3902,4.3554,4.251,4.1006,4.0175,3.9286,3.827,3.7028,3.6307,3.5654,3.4732,0.0,3.4814,0.0,3.4841,3.4891,3.4842,3.4948,3.5045,3.5059,3.5327,3.5596,3.5761,3.5741,3.565,3.55,3.5567,3.5556,3.5444,3.5449,3.5474,3.5539,3.6036,0.0,3.6526,3.713,3.7172,3.6639,3.6378,0.0,0.0,0.0,0.0,0.0,3.5815,3.5985,3.65,3.6635,3.6777,3.7023,3.7324,3.7506,3.7631,3.7685,3.7738,3.7773,3.7379,3.7228,3.7132,3.6764,3.725,3.8029,3.7995,3.7946,3.7861,3.7614,3.7395,3.7188,3.7167,3.7069,3.7013,3.7374,3.7466,3.754,3.7881,3.8241,3.86,3.8743,3.9569,4.0236,4.0218,3.9695,3.9763,4.1214,0.0,0.0,0.0,0.0,0.0,0.0,0.0,3.9788,4.0682,0.0,0.0,0.0,0.0,0.0,0.0,0.0,0.0,0.0,0.0,0.0,0.0,4.6172,4.6298,4.5742,4.5783,4.5769,4.5673,4.5303,4.4817,4.4233,4.3745,4.2844,4.1767,4.1403,4.0207,3.8472,3.7636,3.6609,3.5451,3.4081,3.3292,3.2665,3.4301,3.4404,3.4422,3.4414,3.4566,3.4582,3.4252,3.4312,3.4433,3.451,3.4565,3.4836,3.5451,3.5506,3.5508,3.5508,3.5444,3.5427,3.5498,3.5254,3.5195,0.0,0.0,3.5423,3.6104,3.6121,3.6243,3.65,0.0,0.0,3.5861,0.0,3.5412,3.6056,3.5119,3.5108,3.5797,3.5667,3.5684,3.5814,3.5908,3.6143,3.6429,3.6698,3.6929,3.7064,3.6738,3.6869,3.7094,3.6281,3.6274,3.6655,3.693,3.7108,3.7188,3.7048,3.7108,3.7111,3.6736,3.6615,3.6713,3.7013,3.7108,3.7281,3.7966,3.7915,3.7739,3.7792,3.8545,3.9193,3.905,3.9643,4.0023,3.9509,0.0,0.0,0.0,0.0,0.0,0.0,4.0693,4.0518,4.1317,0.0,0.0,0.0,0.0,0.0,0.0,0.0,0.0,4.4148,4.4234,0.0,4.4401,4.5084,4.5476,4.5603,4.5603,4.553,4.538,4.4654,4.4093,4.3627,4.2459,4.1064,3.9589,3.8938,3.772,3.6231,3.496,3.439,3.3974,3.1213,3.0378,3.0337,3.3468,3.3548,3.3593,3.364,3.3495,3.3395,3.3314,3.3186,3.3177,3.3313,3.3445,3.3605,3.3845,3.4553,3.4998,0.0,3.4899,3.482,0.0,3.4295,3.4035,3.409,3.3605,3.3486,3.3852,3.3758,3.3771,3.393,0.0,0.0,0.0,3.2362,3.2309,3.2657,3.2463,3.2708,3.3226,3.345,3.3793,3.4186,3.4378,3.4835,3.5402,3.5464,3.5657,3.5831,3.562,3.5531,3.5487,3.5128,3.5068,3.5207,3.5554,3.5933,3.6274,3.5942,3.5708,3.5664,3.602,3.5977,3.602,3.6597,3.6736,3.6895,3.7319,3.7485,3.7449,3.7356,3.7755,3.8061,3.7916,3.8331,3.8814,3.9191,3.9409,0.0,0.0,0.0,0.0,0.0,3.896,3.9129,0.0,3.9289,0.0,0.0,0.0,0.0,0.0,0.0,0.0,0.0,4.4421,0.0,4.4341,4.5026,4.5381,4.5322,4.5281,4.5007,4.4485,4.3837,4.3122,4.2253,4.0707,3.9264,3.7867,3.6888,3.5245,3.3201,3.2073,3.1137,3.0062,2.8317,2.7533,2.7132,3.2364,3.2464,3.2512,3.2645,3.2509,3.2343,3.2124,3.1985,3.1916,3.1915,3.2066,3.2231,3.2278,3.304,0.0,3.399,3.4022,3.3974,3.3852,3.3254,3.2994,3.3158,3.2307,3.1951,3.2211,0.0,0.0,3.1381,3.1373,3.1202,3.0824,3.0506,3.0482,3.0773,3.0643,3.0738,3.1021,3.1274,3.1604,3.1992,3.2147,3.2554,3.3097,3.3274,3.3417,3.3559,3.3371,3.3306,3.3306,3.3096,3.3079,3.3226,3.3388,3.3641,3.4097,3.499,3.5018,3.4894,3.5328,3.5283,3.5311,3.602,3.6207,3.6291,3.6776,3.7108,3.7223,3.7031,3.7261,3.7503,3.7392,3.7577,3.7918,3.8402,3.8492,3.869,3.9373,0.0,0.0,0.0,0.0,0.0,0.0,3.8885,0.0,0.0,0.0,0.0,0.0,0.0,0.0,4.3446,4.4534,0.0,4.4533,4.488,4.5017,4.4966,4.4732,4.4317,4.372,4.2674,4.1636,4.0436,3.8571,3.6863,3.53,3.4193,3.2391,3.0336,2.9545,2.8425,2.7232,2.605,2.5298,2.4803,3.1048,3.1147,0.0,0.0,3.1485,0.0,3.0654,3.062,3.057,3.0253,3.0496,3.0735,3.0818,3.1062,3.1549,3.2457,0.0,0.0,0.0,3.2066,3.1882,3.2293,3.1126,3.0581,3.0925,2.9806,2.914,2.9032,2.8947,2.8993,2.9157,2.9346,2.9561,2.98,2.9325,2.9114,2.9183,2.9159,2.9268,2.943,2.943,2.9629,2.9879,3.037,3.0592,3.0607,3.0456,3.0526,3.0694,3.0503,3.0585,3.077,3.0685,3.055,3.1002,3.3937,3.4667,3.4477,3.4478,3.4398,3.4462,3.5143,3.5341,3.5586,3.6284,3.6753,3.6992,3.6811,3.7087,3.7317,3.7259,3.722,3.7259,3.7259,3.7206,3.7321,3.7721,0.0,0.0,0.0,0.0,0.0,0.0,3.8523,3.9213,0.0,0.0,0.0,0.0,0.0,4.1294,4.4562,4.4425,4.4433,4.4697,4.4455,4.4369,4.4452,4.389,4.3389,4.2919,4.1163,3.9608,3.8184,3.5963,3.3954,3.2124,3.0898,2.9311,2.767,2.7152,2.6382,2.539,2.4253,2.3599,2.3187,0.0,0.0,2.9783,3.0037,2.9766,2.9403,2.8849,2.873,2.8576,2.8217,2.8451,2.8698,2.8926,2.9134,2.9115,2.8822,3.0415,3.1113,3.0437,2.9988,2.9642,2.9426,2.8404,2.8044,2.8358,2.7695,2.7334,2.731,2.664,2.6397,2.665,2.6557,2.6383,2.6203,2.6197,2.6359,2.6731,2.684,2.7079,2.736,2.7953,2.8239,2.8293,2.903,2.9492,2.9682,2.9355,2.9232,2.9178,2.8891,2.8836,2.8876,2.8971,2.8876,2.906,3.0612,3.1268,3.1502,3.1801,3.2128,3.256,3.3011,3.3694,3.4544,3.5518,3.6002,3.6316,3.6527,3.665,3.669,3.655,3.6609,3.6708,3.6708,3.6202,3.5959,3.6321,3.5791,0.0,0.0,3.6392,3.716,3.7841,3.8694,3.9082,0.0,0.0,0.0,0.0,3.8927,4.0168,4.3108,4.339,4.3216,4.2699,4.2524,4.2623,4.3002,4.2184,4.1448,4.0699,3.877,3.7053,3.5315,3.3102,3.134,2.9973,2.8066,2.6599,2.5542,2.4815,2.4184,2.3588,2.2968,2.2446,2.1897,2.7674,2.7738,2.785,2.8074,2.7929,2.7652,2.721,2.7235,2.7143,2.6792,2.7113,2.733,2.7365,2.734,2.7095,2.6408,2.8389,2.9383,2.8589,2.8074,2.7753,2.7659,2.6512,2.6097,2.6512,2.5884,2.5479,2.5479,2.477,2.4697,2.5092,2.4496,2.4221,2.4363,2.4157,2.424,2.4398,2.4551,2.468,2.4909,2.5606,2.5932,2.5966,2.6651,2.7003,2.7129,2.6933,2.6821,2.6665,2.668,2.6623,2.6637,2.6764,2.6779,2.6793,2.7267,2.8508,2.9841,3.0325,3.0612,3.093,3.1614,3.2409,3.3156,3.3781,3.4415,3.4918,3.5084,3.5591,3.5959,3.5916,3.5856,3.5899,3.6097,3.5368,3.4977,3.5527,3.4791,0.0,3.5054,3.5537,3.6141,3.6837,3.7491,3.7788,3.7667,0.0,0.0,3.8469,3.8658,3.9735,4.1884,4.2038,4.1924,4.1605,4.1033,4.0928,4.1247,4.0139,3.9207,3.8408,3.6357,3.4422,3.2602,3.042,2.8722,2.7465,2.5857,2.4756,2.4013,2.3554,2.2925,2.2306,2.2101,2.1645,2.1088,2.564,2.5709,2.5884,2.6044,2.6165,2.6126,2.5711,2.5847,2.5875,2.5467,2.5835,2.5997,2.5658,2.5534,2.5204,2.4579,2.635,2.726,2.677,2.6213,2.6001,2.6246,2.5025,2.452,2.4984,2.4142,2.3636,2.3564,2.3182,2.3301,2.3859,2.2942,2.2834,2.3327,2.2761,2.2457,2.247,2.2445,2.2506,2.2567,2.3122,2.3374,2.342,2.3904,2.4137,2.4137,2.415,2.4034,2.4034,2.4412,2.4412,2.431,2.4526,2.4513,2.4456,2.4266,2.6047,2.8187,2.8955,2.9214,2.9456,3.0344,3.1036,3.147,3.1677,3.2445,3.3135,3.3182,3.4139,3.497,3.5026,3.4873,3.4827,3.5245,3.4421,3.3987,3.4699,0.0,3.3782,3.4651,3.4704,3.4924,3.5676,3.5744,3.6027,3.672,3.6759,3.727,3.8433,3.8506,3.9103,4.0306,4.0393,4.0464,4.051,3.9602,3.9208,3.9313,3.7944,3.685,3.609,3.3912,3.19,2.9939,2.8117,2.646,2.4991,2.4146,2.3316,2.2734,2.2563,2.2059,2.1349,2.1349,2.1041,2.0411,2.4526,2.4641,2.4811,2.4939,2.5134,2.5036,2.4496,2.431,2.4021,2.3577,2.3479,2.331,2.3094,2.3369,2.3204,2.2372,2.3141,2.3787,2.4063,2.4076,2.4032,2.3826,2.3323,2.3097,2.3204,2.2274,2.1616,2.1152,2.1318,2.1557,2.2003,2.2041,2.2188,2.2286,2.1455,2.1318,2.1756,2.1318,2.1129,2.1192,2.1918,2.1856,2.1369,2.2091,2.2396,2.2396,2.2445,2.247,2.247,2.2689,2.2555,2.2421,2.2884,2.2836,2.2702,2.2955,2.3403,2.4145,2.5924,2.6939,2.7713,2.8524,2.8815,2.9107,3.0104,3.088,3.1469,3.1838,3.2406,3.2948,3.3288,3.3355,3.3386,3.3561,3.2735,3.2275,3.2934,0.0,3.2599,3.3532,3.4057,3.4393,3.4539,3.4556,3.4745,3.5194,3.5239,3.5504,3.6104,3.6353,3.6561,3.6771,3.8413,3.8762,3.7718,3.7557,3.7387,3.7144,3.5909,3.4748,3.3497,3.1717,2.9628,2.743,2.6587,2.5262,2.3548,2.2531,2.1873,2.1425,2.1098,2.0867,2.0722,2.0722,2.0411,2.002,2.3292,2.3424,2.3471,2.3386,2.3505,2.3386,2.2847,2.2834,2.2847,2.275,2.2518,2.2299,2.2115,2.1806,2.1369,2.076,2.0962,2.1204,2.1557,2.2176,2.2421,2.2127,2.1768,2.1643,2.1643,2.1164,2.0858,2.059,2.0451,2.0568,2.1014,2.0621,2.0568,2.0846,2.0204,2.0009,2.0268,2.0009,1.9879,1.9944,2.0568,2.0568,2.0322,2.1003,2.1255,2.1255,2.1279,2.1279,2.129,2.1376,2.1302,2.1239,2.1502,2.1651,2.1788,2.199,2.2579,2.3408,2.4315,2.5066,2.5699,2.6034,2.642,2.6899,2.7627,2.8472,2.9243,2.9567,3.0266,3.0826,3.1052,3.0892,3.0944,3.1303,3.0732,0.0,0.0,3.1404,3.1554,3.2777,3.3022,3.3192,3.3483,3.3483,3.3671,3.4105,3.417,3.4365,3.4858,3.5011,3.5006,3.4835,3.6225,3.6672,3.5925,3.5388,3.5035,3.4742,3.3376,3.222,3.1294,2.9352,2.7617,2.6064,2.5016,2.3756,2.2478,2.1731,2.1272,2.0886,2.0644,2.0566,2.0566,2.0566,2.0489,2.0255,2.2211,2.2285,2.2359,2.1987,2.2049,2.2013,2.1479,2.1467,2.1592,2.1592,2.142,2.1158,2.1003,2.0429,1.9922,1.9518,1.9528,1.9681,1.9802,2.0537,2.0899,2.076,2.0386,2.0204,2.0063,2.0139,2.0139,2.0009,1.9573,1.9639,2.0074,1.932,1.9198,1.9584,1.9054,1.8865,1.8865,1.8721,1.8721,1.8721,1.91,1.9233,1.9299,1.9672,1.9857,1.9857,1.9933,2.0009,1.9998,2.0257,2.0268,2.0204,2.0398,2.0794,2.1135,2.1008,2.1729,2.2676,2.3122,2.3592,2.4019,2.4063,2.4433,2.4912,2.5218,2.6035,2.6816,2.7064,2.7806,2.8458,2.862,2.8359,2.8359,2.8892,0.0,0.0,0.0,2.9869,3.0197,3.1551,3.1561,3.1652,3.2139,3.217,3.2345,3.2685,3.2739,3.2935,3.3323,3.3374,3.3272,3.2982,3.4088,3.4584,3.4381,3.3419,3.2792,3.247,3.1157,3.0047,2.9157,2.7512,2.6202,2.504,2.3936,2.2852,2.1807,2.1512,2.1041,2.0566,2.0566,2.0566,2.0566,2.0566,2.0566,2.0566,2.1325,2.1639,2.1765,2.1083,2.1388,2.1416,2.0749,2.03,1.9792,1.9323,1.9135,1.889,1.8499,1.9034,1.9177,1.8607,1.9208,1.9615,1.9605,1.9386,1.9365,1.9694,1.9299,1.89,1.8375,1.8731,1.8674,1.8202,1.8144,1.8337,1.8674,1.8549,1.8741,1.9131,1.8375,1.8104,1.8037,1.7677,1.7541,1.7541,1.7541,1.7609,1.7609,1.7599,1.7668,1.7668,1.8094,1.8162,1.8297,1.9135,1.9212,1.909,1.9901,2.0291,2.0366,1.9857,1.9791,2.0302,2.199,2.2847,2.3195,2.3361,2.342,2.3479,2.3467,2.4013,2.456,2.456,2.5093,2.5689,2.6343,2.6142,2.6114,2.6568,0.0,0.0,2.7142,2.7504,2.8148,2.9275,2.9419,2.9664,3.024,3.0297,3.0315,3.0453,3.0422,3.0513,3.0588,3.0573,3.0588,3.0588,3.2011,3.2814,3.2776,3.1794,3.107,3.0572,2.9742,2.8552,2.7139,2.6625,2.5545,2.4032,2.3897,2.3075,2.1807,2.1807,2.1262,2.0566,2.0566,2.0566,2.0566,2.0566,2.0566,2.0566,2.1083,2.0794,2.0515,2.0268,1.9976,1.9629,1.9058,1.8813,1.8613,1.8536,1.8422,1.8307,1.824,1.8395,1.8395,1.8212,1.8617,1.9008,1.9274,1.8509,1.8085,1.821,1.7901,1.7579,1.7373,1.751,1.752,1.7323,1.7323,1.7382,1.752,1.752,1.7588,1.7716,1.7442,1.7304,1.7304,1.7166,1.7097,1.7097,1.7097,1.7097,1.7097,1.7097,1.7097,1.7097,1.7235,1.7304,1.7373,1.7696,1.7696,1.7706,1.8037,1.8375,1.8767,1.889,1.9044,1.9375,2.0063,2.0835,2.1542,2.1865,2.2125,2.2359,2.2665,2.3097,2.3416,2.3664,2.3884,2.4124,2.4347,2.4269,2.4315,2.4548,0.0,2.5236,2.5778,2.619,2.6864,2.8015,2.813,2.8347,2.8941,2.897,2.8883,2.8708,2.9004,2.9157,2.8993,2.91,2.9171,2.9171,2.9529,3.0096,3.0705,3.0125,2.9434,2.8743,2.8101,2.7193,2.5995,2.5193,2.4515,2.3824,2.3001,2.2327,2.1731,2.1262,2.0876,2.0566,2.0566,2.0566,2.0566,2.0566,2.0566,2.0566,2.0085,1.9672,1.9191,1.9003,1.8726,1.8257,1.7755,1.7619,1.7619,1.7472,1.7491,1.756,1.7774,1.7794,1.7881,1.8008,1.8279,1.8549,1.8664,1.7619,1.7001,1.6872,1.6751,1.6691,1.6691,1.6839,1.6908,1.6908,1.6908,1.6908,1.6908,1.6908,1.6908,1.6908,1.6769,1.6691,1.67,1.663,1.656,1.656,1.656,1.656,1.656,1.656,1.656,1.656,1.656,1.656,1.656,1.67,1.6691,1.676,1.6839,1.7176,1.7569,1.822,1.8432,1.8586,1.871,1.9309,2.0042,2.0571,2.1019,2.1388,2.1678,2.2051,2.2347,2.2592,2.2652,2.2652,2.2786,2.2713,2.2713,2.2882,2.3267,2.3689,2.4189,2.4658,2.5275,2.631,2.6397,2.6704,2.7457,2.753,2.7412,2.7221,2.7533,2.7523,2.7153,2.729,2.7311,2.7311,2.7092,2.7326,2.8085,2.8292,2.8025,2.7298,2.6761,2.5951,2.4981,2.4082,2.3593,2.3372,2.2252,2.1731,2.1578,2.1041,2.0722,2.0566,2.0566,2.0566,2.0566,2.0566,2.0566,2.0566,1.8325,1.82,1.7939,1.7207,1.756,1.7755,1.7001,1.6862,1.6603,1.5867,1.607,1.6482,1.6839,1.7254,1.7608,1.794,1.8279,1.8269,1.7706,1.6793,1.6184,1.5797,1.614,1.6272,1.6272,1.67,1.6908,1.6908,1.6908,1.6908,1.6908,1.6908,1.6908,1.6908,1.6482,1.6272,1.6272,1.5938,1.5805,1.5805,1.5805,1.5805,1.5805,1.5805,1.5805,1.5805,1.5805,1.5805,1.5867,1.6211,1.6272,1.6351,1.6769,1.6908,1.7038,1.791,1.7862,1.7598,1.8046,1.8462,1.8942,1.9473,1.9987,2.0355,2.0355,2.0828,2.1158,2.1158,2.1158,2.1285,2.1651,2.1411,2.1285,2.1651,2.1939,2.2101,2.2101,2.2652,2.3349,2.389,2.4015,2.4429,2.5644,2.5759,2.5772,2.5735,2.5749,2.551,2.482,2.4755,2.4755,2.4755,2.4755,2.4809,2.4803,2.6409,2.6934,2.6364,2.5861,2.4969,2.3897,2.3446,2.3001,2.2402,2.1949,2.1578,2.1205,2.1205,2.0964,2.0566,2.0566,2.0566,2.0566,2.0566,2.0566,2.0566,1.7541,1.707,1.6802,1.6941,1.6673,1.6412,1.6132,1.6132,1.607,1.5797,1.607,1.6351,1.6491,1.6839,1.7047,1.7028,1.7097,1.695,1.6385,1.6306,1.6035,1.5426,1.5638,1.5788,1.5938,1.6079,1.6149,1.6149,1.6149,1.6149,1.6149,1.6,1.5921,1.5921,1.563,1.5559,1.5488,1.5417,1.5355,1.5355,1.5355,1.5355,1.5355,1.5355,1.5355,1.5426,1.5505,1.5576,1.5647,1.5867,1.5938,1.5938,1.6079,1.6149,1.6149,1.6412,1.6551,1.6691,1.6821,1.7166,1.7716,1.8921,1.9518,1.9857,1.9857,1.9987,2.0064,2.0064,2.0064,2.0248,2.0688,2.0688,2.0764,2.1285,2.14,2.1639,2.2051,2.2286,2.2653,2.3301,2.3387,2.345,2.3674,2.3687,2.3565,2.322,2.3389,2.3535,2.3713,2.3737,2.3737,2.3737,2.3737,2.3922,2.4255,2.5086,2.5204,2.4659,2.4455,2.4032,2.3298,2.315,2.2852,2.2402,2.1949,2.1578,2.1205,2.0886,2.0722,2.0566,2.0566,2.0566,2.0566,2.0566,2.0566,2.0566,1.6655,1.6114,1.5842,1.6254,1.6061,1.5805,1.5805,1.5805,1.5805,1.5805,1.6008,1.6061,1.5982,1.6184,1.6394,1.6594,1.6524,1.6315,1.6035,1.5754,1.5471,1.507,1.5213,1.5363,1.5576,1.5576,1.5576,1.5576,1.5576,1.5576,1.5576,1.5426,1.5355,1.5355,1.5275,1.5204,1.5204,1.5204,1.5204,1.5204,1.5204,1.5204,1.5204,1.5204,1.5204,1.5204,1.5426,1.5505,1.5505,1.5726,1.5805,1.5805,1.5805,1.5805,1.5797,1.5938,1.614,1.6272,1.6272,1.6621,1.7038,1.7765,1.8509,1.9065,1.9274,1.9473,1.9605,1.9605,1.9605,1.9671,1.9846,1.9835,2.0031,2.0495,2.056,2.0816,2.1439,2.1565,2.169,2.2125,2.2125,2.2175,2.2335,2.2347,2.2274,2.2101,2.21,2.2303,2.2622,2.2633,2.2728,2.2952,2.2952,2.3171,2.3618,2.3897,2.4026,2.3897,2.3897,2.3593,2.3001,2.2852,2.2628,2.2402,2.1807,2.1436,2.1205,2.0809,2.0566,2.0566,2.0566,2.0566,2.0566,2.0566,2.0566,2.0566,1.57,1.5409,1.5275,1.5426,1.5655,1.5805,1.5805,1.5805,1.5805,1.5805,1.5805,1.5718,1.5463,1.5463,1.5745,1.6358,1.6298,1.6167,1.6167,1.5196,1.4713,1.4864,1.4864,1.4927,1.5133,1.5204,1.5204,1.5204,1.5204,1.5204,1.5204,1.5204,1.5204,1.5204,1.5125,1.5133,1.5133,1.5133,1.5133,1.5133,1.5133,1.5133,1.5133,1.5133,1.5133,1.5204,1.5355,1.5434,1.5505,1.5726,1.5797,1.5805,1.5797,1.5805,1.5867,1.614,1.6281,1.6281,1.6281,1.6482,1.67,1.6412,1.7157,1.8114,1.8529,1.9008,1.9341,1.9341,1.9341,1.9264,1.8911,1.8911,1.911,1.9562,1.9628,1.9911,2.0604,2.0669,2.0669,2.0669,2.0669,2.0903,2.1439,2.1502,2.1616,2.1928,2.1616,2.1502,2.1502,2.1537,2.1794,2.222,2.229,2.25,2.2902,2.2913,2.3244,2.3824,2.3824,2.353,2.3001,2.2628,2.2402,2.2327,2.1655,2.1282,2.1205,2.0809,2.0644,2.0722,2.0644,2.0644,2.0722,2.0644,2.0644,2.0644,1.515,1.5133,1.5275,1.5426,1.5655,1.5805,1.5805,1.5805,1.5805,1.5805,1.5805,1.5576,1.5117,1.5417,1.5568,1.5054,1.5133,1.5141,1.4991,1.4713,1.4641,1.4641,1.4641,1.4713,1.4713,1.5062,1.5204,1.5204,1.5204,1.5204,1.5204,1.507,1.4935,1.4935,1.4784,1.4705,1.4705,1.4705,1.4705,1.4705,1.4705,1.4705,1.4705,1.4705,1.4705,1.4784,1.4935,1.5007,1.5078,1.5434,1.5576,1.5576,1.5726,1.5805,1.5797,1.5867,1.5938,1.5938,1.5938,1.5938,1.6079,1.6281,1.6482,1.6821,1.7245,1.7382,1.751,1.751,1.751,1.7579,1.791,1.8442,1.9034,1.9497,2.0053,2.0529,2.0669,2.0669,2.0669,2.0669,2.0669,2.0669,2.0646,2.0518,2.0453,2.0518,2.0453,2.0453,2.0453,2.0819,2.1141,2.1185,2.1563,2.1992,2.2446,2.2446,2.2688,2.3224,2.3224,2.315,2.3001,2.2927,2.2703,2.2402,2.2252,2.1949,2.1655,2.1282,2.1272,2.1492,2.0876,2.0954,2.1492,2.0799,2.0809,2.1041,1.507,1.5133,1.5275,1.5576,1.5726,1.5805,1.5805,1.5805,1.5726,1.5426,1.5355,1.5133,1.4553,1.4776,1.4927,1.4919,1.4697,1.4697,1.4999,1.4641,1.4425,1.4569,1.4569,1.4569,1.4569,1.4784,1.4919,1.4919,1.4919,1.4919,1.4919,1.4784,1.4792,1.4721,1.4641,1.4569,1.4569,1.4569,1.4569,1.4569,1.4569,1.4569,1.4569,1.4569,1.4569,1.4641,1.4864,1.4935,1.507,1.5434,1.5505,1.5505,1.5726,1.5805,1.5805,1.5805,1.5805,1.5805,1.5805,1.5805,1.5867,1.6008,1.607,1.6211,1.6769,1.6908,1.6908,1.6908,1.6908,1.6908,1.7028,1.7354,1.7755,1.822,1.8623,1.9034,1.9386,1.9386,1.9518,1.9857,1.9857,1.9998,2.0216,2.0151,2.0085,2.0085,2.0358,2.0489,2.0489,2.0948,2.1319,2.1549,2.18,2.216,2.2641,2.2641,2.2761,2.3001,2.3001,2.3001,2.3001,2.3001,2.2852,2.2703,2.2478,2.2252,2.2035,2.1655,2.1578,2.1731,2.1339,2.1415,2.1731,2.1339,2.1349,2.1425,1.5133,1.5204,1.5346,1.5655,1.5805,1.5805,1.5805,1.5805,1.5576,1.4974,1.4974,1.4768,1.4057,1.3912,1.4201,1.4911,1.4466,1.4537,1.5213,1.4497,1.4137,1.4497,1.4425,1.4425,1.4425,1.4497,1.4569,1.4569,1.4569,1.4569,1.4569,1.4569,1.4569,1.4569,1.4569,1.4569,1.4569,1.4569,1.4569,1.4569,1.4569,1.4569,1.4569,1.4569,1.4569,1.4641,1.4792,1.4927,1.5133,1.5355,1.5426,1.5497,1.5726,1.5805,1.5805,1.5805,1.5805,1.5805,1.5805,1.5805,1.5805,1.5805,1.5805,1.5938,1.656,1.67,1.67,1.67,1.67,1.663,1.6281,1.6342,1.6542,1.6872,1.7001,1.7276,1.7901,1.8104,1.8365,1.8911,1.911,1.9462,2.0009,2.0151,2.0271,2.0271,2.0708,2.1048,2.1048,2.145,2.1898,2.2302,2.239,2.2619,2.3001,2.3001,2.3001,2.3001,2.3001,2.3001,2.3001,2.3001,2.3001,2.3001,2.2628,2.2478,2.2478,2.2101,2.1949,2.1949,2.1873,2.1873,2.2035,2.1949,2.1883,2.1883,1.5007,1.507,1.5275,1.5505,1.5655,1.5805,1.5805,1.5805,1.5576,1.4974,1.5355,1.5078,1.3484,1.3339,1.3484,1.3977,1.3897,1.3977,1.4274,1.3848,1.3775,1.4129,1.3848,1.3637,1.3637,1.3992,1.4281,1.4569,1.4569,1.4569,1.4569,1.4569,1.4569,1.4569,1.4569,1.4569,1.4569,1.4569,1.4569,1.4569,1.4569,1.4569,1.4569,1.4569,1.4569,1.4569,1.4641,1.4641,1.4713,1.5133,1.5204,1.5275,1.5655,1.5805,1.5805,1.5805,1.5805,1.5805,1.5805,1.5805,1.5805,1.5805,1.5805,1.5805,1.5938,1.5938,1.5938,1.5938,1.5938,1.5938,1.5867,1.6403,1.6872,1.6862,1.7413,1.7901,1.7969,1.8509,1.8911,1.8977,1.9594,2.0009,2.0085,2.0522,2.0762,2.0762,2.121,2.1494,2.1494,2.1953,2.2248,2.2313,2.2695,2.2936,2.3001,2.3001,2.3001,2.3001,2.3001,2.3001,2.3001,2.3001,2.3001,2.3001,2.2927,2.2927,2.2927,2.2478,2.2553,2.2777,2.2101,2.2262,2.2777,2.2478,2.2327,2.2252,1.507,1.5213,1.5426,1.5655,1.5726,1.5805,1.5805,1.5805,1.5576,1.4974,1.4848,1.4569,1.3775,1.3411,1.3339,1.376,1.3324,1.3178,1.3702,1.3411,1.3339,1.3775,1.3564,1.3492,1.3492,1.371,1.392,1.4346,1.4497,1.4569,1.4569,1.4569,1.4569,1.4569,1.4569,1.4569,1.4569,1.4569,1.4569,1.4569,1.4569,1.4569,1.4569,1.4569,1.4569,1.4569,1.4569,1.4569,1.4641,1.4927,1.4999,1.507,1.5355,1.5505,1.5655,1.5655,1.5726,1.5805,1.5805,1.5805,1.5805,1.5805,1.5805,1.5805,1.5805,1.5805,1.5805,1.5805,1.5805,1.5805,1.5805,1.607,1.6272,1.6272,1.6542,1.6751,1.6751,1.7354,1.8241,1.9318,2.0122,2.0653,2.0926,2.1144,2.1265,2.1265,2.1723,2.1996,2.1996,2.2444,2.2695,2.2695,2.2892,2.3001,2.3001,2.3001,2.3001,2.3001,2.3001,2.3001,2.3001,2.3001,2.3001,2.3001,2.3001,2.3001,2.3001,2.2777,2.2852,2.2927,2.2628,2.2703,2.3001,2.2777,2.2703,2.2703]}]]